<?xml version="1.0" encoding="UTF-8" standalone="no" ?>
<gpx xmlns="http://www.topografix.com/GPX/1/1" xmlns:xsi="http://www.w3.org/2001/XMLSchema-instance" xsi:schemaLocation="http://www.topografix.com/GPX/1/1 http://www.topografix.com/GPX/1/1/gpx.xsd" version="1.1" creator="VisuGPX - https://www.visugpx.com">
  <metadata>
    <name>Sortie Trail ALE Dim 06_02_11</name>
    <desc><![CDATA[Sortie dominicale avec l\'ALE pour 500m de déniv]]></desc>
  </metadata>
  <trk>
    <name><![CDATA[Untitled]]></name>
    <trkseg>
      <trkpt lat="45.18305" lon="5.68811">
        <ele>219.60000610352</ele>
        <time>2011-02-06T08:35:14.000Z</time>
      </trkpt>
      <trkpt lat="45.18303" lon="5.68807">
        <ele>219.60000610352</ele>
        <time>2011-02-06T08:35:25.000Z</time>
      </trkpt>
      <trkpt lat="45.18303" lon="5.68805">
        <ele>219.80000305176</ele>
        <time>2011-02-06T08:35:26.000Z</time>
      </trkpt>
      <trkpt lat="45.18308" lon="5.68804">
        <ele>220.19999694824</ele>
        <time>2011-02-06T08:35:29.000Z</time>
      </trkpt>
      <trkpt lat="45.18314" lon="5.68808">
        <ele>220.19999694824</ele>
        <time>2011-02-06T08:35:32.000Z</time>
      </trkpt>
      <trkpt lat="45.18315" lon="5.68807">
        <ele>220.39999389648</ele>
        <time>2011-02-06T08:35:33.000Z</time>
      </trkpt>
      <trkpt lat="45.18327" lon="5.6881">
        <ele>221</ele>
        <time>2011-02-06T08:35:39.000Z</time>
      </trkpt>
      <trkpt lat="45.18332" lon="5.68811">
        <ele>221.19999694824</ele>
        <time>2011-02-06T08:35:41.000Z</time>
      </trkpt>
      <trkpt lat="45.18338" lon="5.68815">
        <ele>221.39999389648</ele>
        <time>2011-02-06T08:35:44.000Z</time>
      </trkpt>
      <trkpt lat="45.18343" lon="5.68818">
        <ele>221.80000305176</ele>
        <time>2011-02-06T08:35:46.000Z</time>
      </trkpt>
      <trkpt lat="45.18349" lon="5.68822">
        <ele>222</ele>
        <time>2011-02-06T08:35:49.000Z</time>
      </trkpt>
      <trkpt lat="45.18353" lon="5.68826">
        <ele>222.19999694824</ele>
        <time>2011-02-06T08:35:51.000Z</time>
      </trkpt>
      <trkpt lat="45.18366" lon="5.68835">
        <ele>223</ele>
        <time>2011-02-06T08:35:58.000Z</time>
      </trkpt>
      <trkpt lat="45.18375" lon="5.6884">
        <ele>223.39999389648</ele>
        <time>2011-02-06T08:36:03.000Z</time>
      </trkpt>
      <trkpt lat="45.18382" lon="5.68847">
        <ele>223.39999389648</ele>
        <time>2011-02-06T08:36:07.000Z</time>
      </trkpt>
      <trkpt lat="45.18385" lon="5.68851">
        <ele>223.39999389648</ele>
        <time>2011-02-06T08:36:09.000Z</time>
      </trkpt>
      <trkpt lat="45.18391" lon="5.68865">
        <ele>222.60000610352</ele>
        <time>2011-02-06T08:36:14.000Z</time>
      </trkpt>
      <trkpt lat="45.18395" lon="5.68869">
        <ele>222.60000610352</ele>
        <time>2011-02-06T08:36:16.000Z</time>
      </trkpt>
      <trkpt lat="45.184" lon="5.68873">
        <ele>222.60000610352</ele>
        <time>2011-02-06T08:36:19.000Z</time>
      </trkpt>
      <trkpt lat="45.18409" lon="5.68885">
        <ele>222</ele>
        <time>2011-02-06T08:36:25.000Z</time>
      </trkpt>
      <trkpt lat="45.18411" lon="5.68887">
        <ele>221.80000305176</ele>
        <time>2011-02-06T08:36:26.000Z</time>
      </trkpt>
      <trkpt lat="45.18425" lon="5.68894">
        <ele>221.19999694824</ele>
        <time>2011-02-06T08:36:32.000Z</time>
      </trkpt>
      <trkpt lat="45.18427" lon="5.68894">
        <ele>221</ele>
        <time>2011-02-06T08:36:33.000Z</time>
      </trkpt>
      <trkpt lat="45.1844" lon="5.68898">
        <ele>220.19999694824</ele>
        <time>2011-02-06T08:36:38.000Z</time>
      </trkpt>
      <trkpt lat="45.18447" lon="5.68899">
        <ele>220</ele>
        <time>2011-02-06T08:36:41.000Z</time>
      </trkpt>
      <trkpt lat="45.18454" lon="5.68899">
        <ele>219.80000305176</ele>
        <time>2011-02-06T08:36:44.000Z</time>
      </trkpt>
      <trkpt lat="45.18465" lon="5.68897">
        <ele>219.60000610352</ele>
        <time>2011-02-06T08:36:48.000Z</time>
      </trkpt>
      <trkpt lat="45.18472" lon="5.68895">
        <ele>219.60000610352</ele>
        <time>2011-02-06T08:36:51.000Z</time>
      </trkpt>
      <trkpt lat="45.18483" lon="5.6889">
        <ele>219.19999694824</ele>
        <time>2011-02-06T08:36:56.000Z</time>
      </trkpt>
      <trkpt lat="45.18487" lon="5.68887">
        <ele>219.19999694824</ele>
        <time>2011-02-06T08:36:58.000Z</time>
      </trkpt>
      <trkpt lat="45.18494" lon="5.68874">
        <ele>218.80000305176</ele>
        <time>2011-02-06T08:37:03.000Z</time>
      </trkpt>
      <trkpt lat="45.18494" lon="5.68871">
        <ele>218.80000305176</ele>
        <time>2011-02-06T08:37:04.000Z</time>
      </trkpt>
      <trkpt lat="45.18495" lon="5.68868">
        <ele>218.60000610352</ele>
        <time>2011-02-06T08:37:05.000Z</time>
      </trkpt>
      <trkpt lat="45.18493" lon="5.68858">
        <ele>218.80000305176</ele>
        <time>2011-02-06T08:37:08.000Z</time>
      </trkpt>
      <trkpt lat="45.18491" lon="5.6885">
        <ele>219</ele>
        <time>2011-02-06T08:37:11.000Z</time>
      </trkpt>
      <trkpt lat="45.18489" lon="5.68847">
        <ele>219.19999694824</ele>
        <time>2011-02-06T08:37:12.000Z</time>
      </trkpt>
      <trkpt lat="45.18487" lon="5.68842">
        <ele>219.39999389648</ele>
        <time>2011-02-06T08:37:14.000Z</time>
      </trkpt>
      <trkpt lat="45.18477" lon="5.68836">
        <ele>220.60000610352</ele>
        <time>2011-02-06T08:37:19.000Z</time>
      </trkpt>
      <trkpt lat="45.18474" lon="5.68836">
        <ele>220.80000305176</ele>
        <time>2011-02-06T08:37:20.000Z</time>
      </trkpt>
      <trkpt lat="45.18464" lon="5.68836">
        <ele>222</ele>
        <time>2011-02-06T08:37:25.000Z</time>
      </trkpt>
      <trkpt lat="45.18457" lon="5.68831">
        <ele>223</ele>
        <time>2011-02-06T08:37:29.000Z</time>
      </trkpt>
      <trkpt lat="45.18456" lon="5.68829">
        <ele>223.19999694824</ele>
        <time>2011-02-06T08:37:30.000Z</time>
      </trkpt>
      <trkpt lat="45.18453" lon="5.68814">
        <ele>224</ele>
        <time>2011-02-06T08:37:37.000Z</time>
      </trkpt>
      <trkpt lat="45.18452" lon="5.68806">
        <ele>224.39999389648</ele>
        <time>2011-02-06T08:37:41.000Z</time>
      </trkpt>
      <trkpt lat="45.18447" lon="5.688">
        <ele>225.39999389648</ele>
        <time>2011-02-06T08:37:45.000Z</time>
      </trkpt>
      <trkpt lat="45.18439" lon="5.68793">
        <ele>226.60000610352</ele>
        <time>2011-02-06T08:37:50.000Z</time>
      </trkpt>
      <trkpt lat="45.18437" lon="5.68792">
        <ele>227</ele>
        <time>2011-02-06T08:37:51.000Z</time>
      </trkpt>
      <trkpt lat="45.18427" lon="5.68781">
        <ele>228.80000305176</ele>
        <time>2011-02-06T08:37:57.000Z</time>
      </trkpt>
      <trkpt lat="45.18421" lon="5.68778">
        <ele>230</ele>
        <time>2011-02-06T08:38:00.000Z</time>
      </trkpt>
      <trkpt lat="45.18412" lon="5.68775">
        <ele>230.39999389648</ele>
        <time>2011-02-06T08:38:04.000Z</time>
      </trkpt>
      <trkpt lat="45.18403" lon="5.68769">
        <ele>229.80000305176</ele>
        <time>2011-02-06T08:38:08.000Z</time>
      </trkpt>
      <trkpt lat="45.18385" lon="5.68764">
        <ele>228.60000610352</ele>
        <time>2011-02-06T08:38:15.000Z</time>
      </trkpt>
      <trkpt lat="45.18379" lon="5.68761">
        <ele>228.19999694824</ele>
        <time>2011-02-06T08:38:19.000Z</time>
      </trkpt>
      <trkpt lat="45.18372" lon="5.68756">
        <ele>227.80000305176</ele>
        <time>2011-02-06T08:38:23.000Z</time>
      </trkpt>
      <trkpt lat="45.18368" lon="5.68754">
        <ele>227.60000610352</ele>
        <time>2011-02-06T08:38:25.000Z</time>
      </trkpt>
      <trkpt lat="45.18362" lon="5.6875">
        <ele>227.39999389648</ele>
        <time>2011-02-06T08:38:28.000Z</time>
      </trkpt>
      <trkpt lat="45.18359" lon="5.68741">
        <ele>230</ele>
        <time>2011-02-06T08:38:32.000Z</time>
      </trkpt>
      <trkpt lat="45.18356" lon="5.68736">
        <ele>231.80000305176</ele>
        <time>2011-02-06T08:38:35.000Z</time>
      </trkpt>
      <trkpt lat="45.18355" lon="5.68734">
        <ele>232.19999694824</ele>
        <time>2011-02-06T08:38:36.000Z</time>
      </trkpt>
      <trkpt lat="45.18354" lon="5.68733">
        <ele>232.60000610352</ele>
        <time>2011-02-06T08:38:37.000Z</time>
      </trkpt>
      <trkpt lat="45.18352" lon="5.6873">
        <ele>233.39999389648</ele>
        <time>2011-02-06T08:38:40.000Z</time>
      </trkpt>
      <trkpt lat="45.1835" lon="5.68727">
        <ele>234</ele>
        <time>2011-02-06T08:38:42.000Z</time>
      </trkpt>
      <trkpt lat="45.18347" lon="5.68722">
        <ele>235.60000610352</ele>
        <time>2011-02-06T08:38:46.000Z</time>
      </trkpt>
      <trkpt lat="45.18346" lon="5.6872">
        <ele>236.19999694824</ele>
        <time>2011-02-06T08:38:47.000Z</time>
      </trkpt>
      <trkpt lat="45.18346" lon="5.6872">
        <ele>236.19999694824</ele>
        <time>2011-02-06T08:38:48.000Z</time>
      </trkpt>
      <trkpt lat="45.18342" lon="5.68717">
        <ele>236.80000305176</ele>
        <time>2011-02-06T08:38:51.000Z</time>
      </trkpt>
      <trkpt lat="45.18341" lon="5.68715">
        <ele>237.19999694824</ele>
        <time>2011-02-06T08:38:52.000Z</time>
      </trkpt>
      <trkpt lat="45.18336" lon="5.6871">
        <ele>238.39999389648</ele>
        <time>2011-02-06T08:38:56.000Z</time>
      </trkpt>
      <trkpt lat="45.18335" lon="5.6871">
        <ele>238.39999389648</ele>
        <time>2011-02-06T08:38:57.000Z</time>
      </trkpt>
      <trkpt lat="45.18332" lon="5.68707">
        <ele>239.19999694824</ele>
        <time>2011-02-06T08:38:59.000Z</time>
      </trkpt>
      <trkpt lat="45.18331" lon="5.68705">
        <ele>240</ele>
        <time>2011-02-06T08:39:02.000Z</time>
      </trkpt>
      <trkpt lat="45.18328" lon="5.68699">
        <ele>241.60000610352</ele>
        <time>2011-02-06T08:39:08.000Z</time>
      </trkpt>
      <trkpt lat="45.18327" lon="5.68699">
        <ele>241.60000610352</ele>
        <time>2011-02-06T08:39:09.000Z</time>
      </trkpt>
      <trkpt lat="45.18322" lon="5.68699">
        <ele>241.39999389648</ele>
        <time>2011-02-06T08:39:12.000Z</time>
      </trkpt>
      <trkpt lat="45.1832" lon="5.68699">
        <ele>241.19999694824</ele>
        <time>2011-02-06T08:39:13.000Z</time>
      </trkpt>
      <trkpt lat="45.18316" lon="5.68694">
        <ele>242.60000610352</ele>
        <time>2011-02-06T08:39:18.000Z</time>
      </trkpt>
      <trkpt lat="45.18319" lon="5.6869">
        <ele>244.19999694824</ele>
        <time>2011-02-06T08:39:21.000Z</time>
      </trkpt>
      <trkpt lat="45.1832" lon="5.68689">
        <ele>244.80000305176</ele>
        <time>2011-02-06T08:39:22.000Z</time>
      </trkpt>
      <trkpt lat="45.18321" lon="5.68686">
        <ele>245.60000610352</ele>
        <time>2011-02-06T08:39:23.000Z</time>
      </trkpt>
      <trkpt lat="45.18324" lon="5.68679">
        <ele>248.39999389648</ele>
        <time>2011-02-06T08:39:27.000Z</time>
      </trkpt>
      <trkpt lat="45.18331" lon="5.68675">
        <ele>250</ele>
        <time>2011-02-06T08:39:32.000Z</time>
      </trkpt>
      <trkpt lat="45.18338" lon="5.68673">
        <ele>251.39999389648</ele>
        <time>2011-02-06T08:39:36.000Z</time>
      </trkpt>
      <trkpt lat="45.18343" lon="5.68671">
        <ele>252.39999389648</ele>
        <time>2011-02-06T08:39:40.000Z</time>
      </trkpt>
      <trkpt lat="45.18347" lon="5.68671">
        <ele>253</ele>
        <time>2011-02-06T08:39:43.000Z</time>
      </trkpt>
      <trkpt lat="45.18348" lon="5.68669">
        <ele>253.80000305176</ele>
        <time>2011-02-06T08:39:45.000Z</time>
      </trkpt>
      <trkpt lat="45.18346" lon="5.68668">
        <ele>254</ele>
        <time>2011-02-06T08:39:47.000Z</time>
      </trkpt>
      <trkpt lat="45.18345" lon="5.68667">
        <ele>254.19999694824</ele>
        <time>2011-02-06T08:39:48.000Z</time>
      </trkpt>
      <trkpt lat="45.18344" lon="5.68666">
        <ele>254.60000610352</ele>
        <time>2011-02-06T08:39:49.000Z</time>
      </trkpt>
      <trkpt lat="45.18342" lon="5.68663">
        <ele>255.39999389648</ele>
        <time>2011-02-06T08:39:52.000Z</time>
      </trkpt>
      <trkpt lat="45.1834" lon="5.68661">
        <ele>255.80000305176</ele>
        <time>2011-02-06T08:39:53.000Z</time>
      </trkpt>
      <trkpt lat="45.18338" lon="5.68659">
        <ele>256.60000610352</ele>
        <time>2011-02-06T08:39:55.000Z</time>
      </trkpt>
      <trkpt lat="45.1834" lon="5.68655">
        <ele>258.39999389648</ele>
        <time>2011-02-06T08:39:58.000Z</time>
      </trkpt>
      <trkpt lat="45.18341" lon="5.68655">
        <ele>258.39999389648</ele>
        <time>2011-02-06T08:39:59.000Z</time>
      </trkpt>
      <trkpt lat="45.18343" lon="5.68656">
        <ele>258.20001220703</ele>
        <time>2011-02-06T08:40:00.000Z</time>
      </trkpt>
      <trkpt lat="45.18347" lon="5.68659">
        <ele>257.39999389648</ele>
        <time>2011-02-06T08:40:03.000Z</time>
      </trkpt>
      <trkpt lat="45.18352" lon="5.68663">
        <ele>256.60000610352</ele>
        <time>2011-02-06T08:40:07.000Z</time>
      </trkpt>
      <trkpt lat="45.18357" lon="5.68665">
        <ele>256.20001220703</ele>
        <time>2011-02-06T08:40:11.000Z</time>
      </trkpt>
      <trkpt lat="45.18357" lon="5.68664">
        <ele>256.60000610352</ele>
        <time>2011-02-06T08:40:12.000Z</time>
      </trkpt>
      <trkpt lat="45.18353" lon="5.68659">
        <ele>258.20001220703</ele>
        <time>2011-02-06T08:40:17.000Z</time>
      </trkpt>
      <trkpt lat="45.18352" lon="5.68656">
        <ele>259</ele>
        <time>2011-02-06T08:40:19.000Z</time>
      </trkpt>
      <trkpt lat="45.18349" lon="5.68653">
        <ele>260</ele>
        <time>2011-02-06T08:40:22.000Z</time>
      </trkpt>
      <trkpt lat="45.18347" lon="5.68649">
        <ele>261.20001220703</ele>
        <time>2011-02-06T08:40:26.000Z</time>
      </trkpt>
      <trkpt lat="45.18348" lon="5.68648">
        <ele>261.79998779297</ele>
        <time>2011-02-06T08:40:27.000Z</time>
      </trkpt>
      <trkpt lat="45.18348" lon="5.68644">
        <ele>263.39999389648</ele>
        <time>2011-02-06T08:40:29.000Z</time>
      </trkpt>
      <trkpt lat="45.18348" lon="5.6864">
        <ele>265</ele>
        <time>2011-02-06T08:40:32.000Z</time>
      </trkpt>
      <trkpt lat="45.18348" lon="5.68637">
        <ele>266</ele>
        <time>2011-02-06T08:40:34.000Z</time>
      </trkpt>
      <trkpt lat="45.18349" lon="5.68637">
        <ele>266.39999389648</ele>
        <time>2011-02-06T08:40:35.000Z</time>
      </trkpt>
      <trkpt lat="45.18351" lon="5.68636">
        <ele>266.79998779297</ele>
        <time>2011-02-06T08:40:37.000Z</time>
      </trkpt>
      <trkpt lat="45.18352" lon="5.68637">
        <ele>266.60000610352</ele>
        <time>2011-02-06T08:40:40.000Z</time>
      </trkpt>
      <trkpt lat="45.18354" lon="5.68638">
        <ele>266.20001220703</ele>
        <time>2011-02-06T08:40:41.000Z</time>
      </trkpt>
      <trkpt lat="45.18357" lon="5.68644">
        <ele>264</ele>
        <time>2011-02-06T08:40:46.000Z</time>
      </trkpt>
      <trkpt lat="45.18358" lon="5.68647">
        <ele>263.20001220703</ele>
        <time>2011-02-06T08:40:47.000Z</time>
      </trkpt>
      <trkpt lat="45.18365" lon="5.68654">
        <ele>261.20001220703</ele>
        <time>2011-02-06T08:40:52.000Z</time>
      </trkpt>
      <trkpt lat="45.18373" lon="5.68659">
        <ele>260.20001220703</ele>
        <time>2011-02-06T08:40:58.000Z</time>
      </trkpt>
      <trkpt lat="45.18374" lon="5.6866">
        <ele>259.79998779297</ele>
        <time>2011-02-06T08:40:59.000Z</time>
      </trkpt>
      <trkpt lat="45.18376" lon="5.68661">
        <ele>259.60000610352</ele>
        <time>2011-02-06T08:41:00.000Z</time>
      </trkpt>
      <trkpt lat="45.18378" lon="5.68666">
        <ele>258</ele>
        <time>2011-02-06T08:41:03.000Z</time>
      </trkpt>
      <trkpt lat="45.1838" lon="5.68669">
        <ele>257</ele>
        <time>2011-02-06T08:41:05.000Z</time>
      </trkpt>
      <trkpt lat="45.18383" lon="5.68672">
        <ele>256.39999389648</ele>
        <time>2011-02-06T08:41:07.000Z</time>
      </trkpt>
      <trkpt lat="45.18387" lon="5.68674">
        <ele>256</ele>
        <time>2011-02-06T08:41:10.000Z</time>
      </trkpt>
      <trkpt lat="45.18389" lon="5.68675">
        <ele>256.20001220703</ele>
        <time>2011-02-06T08:41:11.000Z</time>
      </trkpt>
      <trkpt lat="45.18398" lon="5.68674">
        <ele>257.20001220703</ele>
        <time>2011-02-06T08:41:16.000Z</time>
      </trkpt>
      <trkpt lat="45.18401" lon="5.68673">
        <ele>258</ele>
        <time>2011-02-06T08:41:19.000Z</time>
      </trkpt>
      <trkpt lat="45.18403" lon="5.68672">
        <ele>258.79998779297</ele>
        <time>2011-02-06T08:41:21.000Z</time>
      </trkpt>
      <trkpt lat="45.18404" lon="5.68671">
        <ele>259</ele>
        <time>2011-02-06T08:41:22.000Z</time>
      </trkpt>
      <trkpt lat="45.18405" lon="5.68668">
        <ele>260.39999389648</ele>
        <time>2011-02-06T08:41:24.000Z</time>
      </trkpt>
      <trkpt lat="45.18406" lon="5.68665">
        <ele>261.20001220703</ele>
        <time>2011-02-06T08:41:25.000Z</time>
      </trkpt>
      <trkpt lat="45.1841" lon="5.68654">
        <ele>265.39999389648</ele>
        <time>2011-02-06T08:41:31.000Z</time>
      </trkpt>
      <trkpt lat="45.18415" lon="5.68648">
        <ele>267.79998779297</ele>
        <time>2011-02-06T08:41:36.000Z</time>
      </trkpt>
      <trkpt lat="45.18416" lon="5.68647">
        <ele>268.20001220703</ele>
        <time>2011-02-06T08:41:37.000Z</time>
      </trkpt>
      <trkpt lat="45.18417" lon="5.68647">
        <ele>268</ele>
        <time>2011-02-06T08:41:38.000Z</time>
      </trkpt>
      <trkpt lat="45.1842" lon="5.68645">
        <ele>267.60000610352</ele>
        <time>2011-02-06T08:41:41.000Z</time>
      </trkpt>
      <trkpt lat="45.18426" lon="5.68634">
        <ele>268</ele>
        <time>2011-02-06T08:41:47.000Z</time>
      </trkpt>
      <trkpt lat="45.18427" lon="5.68632">
        <ele>268.20001220703</ele>
        <time>2011-02-06T08:41:48.000Z</time>
      </trkpt>
      <trkpt lat="45.18428" lon="5.68631">
        <ele>268</ele>
        <time>2011-02-06T08:41:49.000Z</time>
      </trkpt>
      <trkpt lat="45.18429" lon="5.68631">
        <ele>267.60000610352</ele>
        <time>2011-02-06T08:41:51.000Z</time>
      </trkpt>
      <trkpt lat="45.1843" lon="5.68631">
        <ele>267</ele>
        <time>2011-02-06T08:41:52.000Z</time>
      </trkpt>
      <trkpt lat="45.18434" lon="5.68626">
        <ele>266.79998779297</ele>
        <time>2011-02-06T08:41:59.000Z</time>
      </trkpt>
      <trkpt lat="45.18436" lon="5.68612">
        <ele>269.79998779297</ele>
        <time>2011-02-06T08:42:04.000Z</time>
      </trkpt>
      <trkpt lat="45.18437" lon="5.68609">
        <ele>270.39999389648</ele>
        <time>2011-02-06T08:42:05.000Z</time>
      </trkpt>
      <trkpt lat="45.18435" lon="5.68602">
        <ele>273.20001220703</ele>
        <time>2011-02-06T08:42:08.000Z</time>
      </trkpt>
      <trkpt lat="45.18435" lon="5.68599">
        <ele>274.20001220703</ele>
        <time>2011-02-06T08:42:09.000Z</time>
      </trkpt>
      <trkpt lat="45.18435" lon="5.68587">
        <ele>277.60000610352</ele>
        <time>2011-02-06T08:42:13.000Z</time>
      </trkpt>
      <trkpt lat="45.18436" lon="5.68585">
        <ele>278.20001220703</ele>
        <time>2011-02-06T08:42:14.000Z</time>
      </trkpt>
      <trkpt lat="45.18436" lon="5.68582">
        <ele>278.79998779297</ele>
        <time>2011-02-06T08:42:15.000Z</time>
      </trkpt>
      <trkpt lat="45.18434" lon="5.68573">
        <ele>280.60000610352</ele>
        <time>2011-02-06T08:42:18.000Z</time>
      </trkpt>
      <trkpt lat="45.18433" lon="5.68561">
        <ele>282.79998779297</ele>
        <time>2011-02-06T08:42:23.000Z</time>
      </trkpt>
      <trkpt lat="45.18433" lon="5.68558">
        <ele>283</ele>
        <time>2011-02-06T08:42:24.000Z</time>
      </trkpt>
      <trkpt lat="45.18436" lon="5.6855">
        <ele>282.60000610352</ele>
        <time>2011-02-06T08:42:28.000Z</time>
      </trkpt>
      <trkpt lat="45.18437" lon="5.68549">
        <ele>282.60000610352</ele>
        <time>2011-02-06T08:42:29.000Z</time>
      </trkpt>
      <trkpt lat="45.1844" lon="5.68535">
        <ele>282.60000610352</ele>
        <time>2011-02-06T08:42:34.000Z</time>
      </trkpt>
      <trkpt lat="45.18448" lon="5.68518">
        <ele>281.20001220703</ele>
        <time>2011-02-06T08:42:41.000Z</time>
      </trkpt>
      <trkpt lat="45.18451" lon="5.68513">
        <ele>280.60000610352</ele>
        <time>2011-02-06T08:42:44.000Z</time>
      </trkpt>
      <trkpt lat="45.18454" lon="5.68508">
        <ele>280.20001220703</ele>
        <time>2011-02-06T08:42:47.000Z</time>
      </trkpt>
      <trkpt lat="45.18456" lon="5.68494">
        <ele>281.60000610352</ele>
        <time>2011-02-06T08:42:54.000Z</time>
      </trkpt>
      <trkpt lat="45.18456" lon="5.68487">
        <ele>282.39999389648</ele>
        <time>2011-02-06T08:42:56.000Z</time>
      </trkpt>
      <trkpt lat="45.18457" lon="5.68484">
        <ele>282.60000610352</ele>
        <time>2011-02-06T08:42:57.000Z</time>
      </trkpt>
      <trkpt lat="45.1846" lon="5.68479">
        <ele>282.20001220703</ele>
        <time>2011-02-06T08:42:59.000Z</time>
      </trkpt>
      <trkpt lat="45.18464" lon="5.68468">
        <ele>282.20001220703</ele>
        <time>2011-02-06T08:43:04.000Z</time>
      </trkpt>
      <trkpt lat="45.18465" lon="5.68465">
        <ele>282.39999389648</ele>
        <time>2011-02-06T08:43:06.000Z</time>
      </trkpt>
      <trkpt lat="45.18466" lon="5.68463">
        <ele>282.39999389648</ele>
        <time>2011-02-06T08:43:07.000Z</time>
      </trkpt>
      <trkpt lat="45.18467" lon="5.68459">
        <ele>282.79998779297</ele>
        <time>2011-02-06T08:43:09.000Z</time>
      </trkpt>
      <trkpt lat="45.1847" lon="5.68451">
        <ele>283</ele>
        <time>2011-02-06T08:43:14.000Z</time>
      </trkpt>
      <trkpt lat="45.18471" lon="5.68449">
        <ele>283</ele>
        <time>2011-02-06T08:43:15.000Z</time>
      </trkpt>
      <trkpt lat="45.18473" lon="5.6844">
        <ele>284</ele>
        <time>2011-02-06T08:43:18.000Z</time>
      </trkpt>
      <trkpt lat="45.18473" lon="5.68434">
        <ele>285</ele>
        <time>2011-02-06T08:43:20.000Z</time>
      </trkpt>
      <trkpt lat="45.18475" lon="5.6842">
        <ele>287.20001220703</ele>
        <time>2011-02-06T08:43:25.000Z</time>
      </trkpt>
      <trkpt lat="45.18474" lon="5.68415">
        <ele>288.60000610352</ele>
        <time>2011-02-06T08:43:27.000Z</time>
      </trkpt>
      <trkpt lat="45.18472" lon="5.6841">
        <ele>290.79998779297</ele>
        <time>2011-02-06T08:43:30.000Z</time>
      </trkpt>
      <trkpt lat="45.18466" lon="5.68398">
        <ele>295.79998779297</ele>
        <time>2011-02-06T08:43:36.000Z</time>
      </trkpt>
      <trkpt lat="45.18466" lon="5.68396">
        <ele>296.79998779297</ele>
        <time>2011-02-06T08:43:37.000Z</time>
      </trkpt>
      <trkpt lat="45.18465" lon="5.68391">
        <ele>298.79998779297</ele>
        <time>2011-02-06T08:43:40.000Z</time>
      </trkpt>
      <trkpt lat="45.18464" lon="5.6839">
        <ele>299.20001220703</ele>
        <time>2011-02-06T08:43:41.000Z</time>
      </trkpt>
      <trkpt lat="45.18458" lon="5.68384">
        <ele>302.60000610352</ele>
        <time>2011-02-06T08:43:45.000Z</time>
      </trkpt>
      <trkpt lat="45.18453" lon="5.6838">
        <ele>305</ele>
        <time>2011-02-06T08:43:49.000Z</time>
      </trkpt>
      <trkpt lat="45.18452" lon="5.68379">
        <ele>305.79998779297</ele>
        <time>2011-02-06T08:44:06.000Z</time>
      </trkpt>
      <trkpt lat="45.18451" lon="5.68377">
        <ele>306.39999389648</ele>
        <time>2011-02-06T08:44:13.000Z</time>
      </trkpt>
      <trkpt lat="45.1845" lon="5.68376">
        <ele>307</ele>
        <time>2011-02-06T08:44:37.000Z</time>
      </trkpt>
      <trkpt lat="45.18455" lon="5.68378">
        <ele>305</ele>
        <time>2011-02-06T08:44:51.000Z</time>
      </trkpt>
      <trkpt lat="45.1846" lon="5.68384">
        <ele>301.79998779297</ele>
        <time>2011-02-06T08:44:55.000Z</time>
      </trkpt>
      <trkpt lat="45.18461" lon="5.68384">
        <ele>301.60000610352</ele>
        <time>2011-02-06T08:44:56.000Z</time>
      </trkpt>
      <trkpt lat="45.18469" lon="5.6838">
        <ele>300.79998779297</ele>
        <time>2011-02-06T08:45:00.000Z</time>
      </trkpt>
      <trkpt lat="45.18474" lon="5.68375">
        <ele>301</ele>
        <time>2011-02-06T08:45:03.000Z</time>
      </trkpt>
      <trkpt lat="45.18475" lon="5.68373">
        <ele>301.39999389648</ele>
        <time>2011-02-06T08:45:04.000Z</time>
      </trkpt>
      <trkpt lat="45.18478" lon="5.68369">
        <ele>301.79998779297</ele>
        <time>2011-02-06T08:45:06.000Z</time>
      </trkpt>
      <trkpt lat="45.18481" lon="5.68365">
        <ele>302.20001220703</ele>
        <time>2011-02-06T08:45:09.000Z</time>
      </trkpt>
      <trkpt lat="45.18481" lon="5.68365">
        <ele>302.20001220703</ele>
        <time>2011-02-06T08:45:10.000Z</time>
      </trkpt>
      <trkpt lat="45.18477" lon="5.6837">
        <ele>301.79998779297</ele>
        <time>2011-02-06T08:45:17.000Z</time>
      </trkpt>
      <trkpt lat="45.18472" lon="5.68375">
        <ele>301.60000610352</ele>
        <time>2011-02-06T08:45:21.000Z</time>
      </trkpt>
      <trkpt lat="45.1847" lon="5.68376">
        <ele>301.60000610352</ele>
        <time>2011-02-06T08:45:22.000Z</time>
      </trkpt>
      <trkpt lat="45.18459" lon="5.68385">
        <ele>302</ele>
        <time>2011-02-06T08:45:28.000Z</time>
      </trkpt>
      <trkpt lat="45.18455" lon="5.68384">
        <ele>303.39999389648</ele>
        <time>2011-02-06T08:45:30.000Z</time>
      </trkpt>
      <trkpt lat="45.18454" lon="5.6838">
        <ele>305</ele>
        <time>2011-02-06T08:45:32.000Z</time>
      </trkpt>
      <trkpt lat="45.18455" lon="5.68366">
        <ele>308.79998779297</ele>
        <time>2011-02-06T08:45:37.000Z</time>
      </trkpt>
      <trkpt lat="45.18459" lon="5.6836">
        <ele>309.60000610352</ele>
        <time>2011-02-06T08:45:39.000Z</time>
      </trkpt>
      <trkpt lat="45.1846" lon="5.68357">
        <ele>310</ele>
        <time>2011-02-06T08:45:40.000Z</time>
      </trkpt>
      <trkpt lat="45.18464" lon="5.6835">
        <ele>311.20001220703</ele>
        <time>2011-02-06T08:45:43.000Z</time>
      </trkpt>
      <trkpt lat="45.1847" lon="5.68338">
        <ele>313.39999389648</ele>
        <time>2011-02-06T08:45:47.000Z</time>
      </trkpt>
      <trkpt lat="45.18471" lon="5.68335">
        <ele>314</ele>
        <time>2011-02-06T08:45:48.000Z</time>
      </trkpt>
      <trkpt lat="45.1848" lon="5.68322">
        <ele>313.60000610352</ele>
        <time>2011-02-06T08:45:54.000Z</time>
      </trkpt>
      <trkpt lat="45.18484" lon="5.68318">
        <ele>313.20001220703</ele>
        <time>2011-02-06T08:45:56.000Z</time>
      </trkpt>
      <trkpt lat="45.18486" lon="5.68313">
        <ele>313.20001220703</ele>
        <time>2011-02-06T08:45:58.000Z</time>
      </trkpt>
      <trkpt lat="45.18489" lon="5.68309">
        <ele>313</ele>
        <time>2011-02-06T08:46:00.000Z</time>
      </trkpt>
      <trkpt lat="45.18497" lon="5.68299">
        <ele>311.79998779297</ele>
        <time>2011-02-06T08:46:04.000Z</time>
      </trkpt>
      <trkpt lat="45.18499" lon="5.68297">
        <ele>311.60000610352</ele>
        <time>2011-02-06T08:46:05.000Z</time>
      </trkpt>
      <trkpt lat="45.18508" lon="5.68276">
        <ele>308.60000610352</ele>
        <time>2011-02-06T08:46:13.000Z</time>
      </trkpt>
      <trkpt lat="45.18514" lon="5.68262">
        <ele>307</ele>
        <time>2011-02-06T08:46:18.000Z</time>
      </trkpt>
      <trkpt lat="45.18519" lon="5.68251">
        <ele>306.20001220703</ele>
        <time>2011-02-06T08:46:22.000Z</time>
      </trkpt>
      <trkpt lat="45.18521" lon="5.68246">
        <ele>305.79998779297</ele>
        <time>2011-02-06T08:46:24.000Z</time>
      </trkpt>
      <trkpt lat="45.18528" lon="5.68232">
        <ele>303.60000610352</ele>
        <time>2011-02-06T08:46:30.000Z</time>
      </trkpt>
      <trkpt lat="45.18529" lon="5.68229">
        <ele>303.60000610352</ele>
        <time>2011-02-06T08:46:31.000Z</time>
      </trkpt>
      <trkpt lat="45.18531" lon="5.68217">
        <ele>304.39999389648</ele>
        <time>2011-02-06T08:46:35.000Z</time>
      </trkpt>
      <trkpt lat="45.18533" lon="5.68202">
        <ele>305.60000610352</ele>
        <time>2011-02-06T08:46:40.000Z</time>
      </trkpt>
      <trkpt lat="45.18534" lon="5.68199">
        <ele>305.60000610352</ele>
        <time>2011-02-06T08:46:41.000Z</time>
      </trkpt>
      <trkpt lat="45.18539" lon="5.68177">
        <ele>306.79998779297</ele>
        <time>2011-02-06T08:46:48.000Z</time>
      </trkpt>
      <trkpt lat="45.18544" lon="5.68161">
        <ele>307.79998779297</ele>
        <time>2011-02-06T08:46:54.000Z</time>
      </trkpt>
      <trkpt lat="45.18546" lon="5.68152">
        <ele>308.39999389648</ele>
        <time>2011-02-06T08:46:57.000Z</time>
      </trkpt>
      <trkpt lat="45.18547" lon="5.68148">
        <ele>308.60000610352</ele>
        <time>2011-02-06T08:46:59.000Z</time>
      </trkpt>
      <trkpt lat="45.18552" lon="5.68132">
        <ele>309.20001220703</ele>
        <time>2011-02-06T08:47:05.000Z</time>
      </trkpt>
      <trkpt lat="45.18553" lon="5.68129">
        <ele>309.20001220703</ele>
        <time>2011-02-06T08:47:06.000Z</time>
      </trkpt>
      <trkpt lat="45.18557" lon="5.68118">
        <ele>309.60000610352</ele>
        <time>2011-02-06T08:47:10.000Z</time>
      </trkpt>
      <trkpt lat="45.1856" lon="5.68107">
        <ele>310</ele>
        <time>2011-02-06T08:47:14.000Z</time>
      </trkpt>
      <trkpt lat="45.18561" lon="5.68104">
        <ele>310.20001220703</ele>
        <time>2011-02-06T08:47:15.000Z</time>
      </trkpt>
      <trkpt lat="45.18565" lon="5.6809">
        <ele>310.79998779297</ele>
        <time>2011-02-06T08:47:20.000Z</time>
      </trkpt>
      <trkpt lat="45.18568" lon="5.6808">
        <ele>311.39999389648</ele>
        <time>2011-02-06T08:47:23.000Z</time>
      </trkpt>
      <trkpt lat="45.18571" lon="5.68064">
        <ele>312.60000610352</ele>
        <time>2011-02-06T08:47:28.000Z</time>
      </trkpt>
      <trkpt lat="45.18573" lon="5.68055">
        <ele>313.20001220703</ele>
        <time>2011-02-06T08:47:31.000Z</time>
      </trkpt>
      <trkpt lat="45.18575" lon="5.68046">
        <ele>314</ele>
        <time>2011-02-06T08:47:34.000Z</time>
      </trkpt>
      <trkpt lat="45.18576" lon="5.68031">
        <ele>315.39999389648</ele>
        <time>2011-02-06T08:47:39.000Z</time>
      </trkpt>
      <trkpt lat="45.18576" lon="5.68028">
        <ele>315.79998779297</ele>
        <time>2011-02-06T08:47:40.000Z</time>
      </trkpt>
      <trkpt lat="45.18574" lon="5.68012">
        <ele>318</ele>
        <time>2011-02-06T08:47:46.000Z</time>
      </trkpt>
      <trkpt lat="45.18572" lon="5.68003">
        <ele>319.60000610352</ele>
        <time>2011-02-06T08:47:49.000Z</time>
      </trkpt>
      <trkpt lat="45.18571" lon="5.67997">
        <ele>320.20001220703</ele>
        <time>2011-02-06T08:47:51.000Z</time>
      </trkpt>
      <trkpt lat="45.18571" lon="5.67994">
        <ele>320.20001220703</ele>
        <time>2011-02-06T08:47:52.000Z</time>
      </trkpt>
      <trkpt lat="45.18571" lon="5.67975">
        <ele>321.20001220703</ele>
        <time>2011-02-06T08:47:58.000Z</time>
      </trkpt>
      <trkpt lat="45.18572" lon="5.67956">
        <ele>322</ele>
        <time>2011-02-06T08:48:05.000Z</time>
      </trkpt>
      <trkpt lat="45.18571" lon="5.67947">
        <ele>322.60000610352</ele>
        <time>2011-02-06T08:48:08.000Z</time>
      </trkpt>
      <trkpt lat="45.18572" lon="5.67935">
        <ele>323</ele>
        <time>2011-02-06T08:48:12.000Z</time>
      </trkpt>
      <trkpt lat="45.18571" lon="5.67919">
        <ele>324</ele>
        <time>2011-02-06T08:48:18.000Z</time>
      </trkpt>
      <trkpt lat="45.18566" lon="5.6791">
        <ele>325.79998779297</ele>
        <time>2011-02-06T08:48:23.000Z</time>
      </trkpt>
      <trkpt lat="45.18559" lon="5.679">
        <ele>328</ele>
        <time>2011-02-06T08:48:29.000Z</time>
      </trkpt>
      <trkpt lat="45.18551" lon="5.67893">
        <ele>330</ele>
        <time>2011-02-06T08:48:34.000Z</time>
      </trkpt>
      <trkpt lat="45.18543" lon="5.6789">
        <ele>331.60000610352</ele>
        <time>2011-02-06T08:48:38.000Z</time>
      </trkpt>
      <trkpt lat="45.18539" lon="5.67888">
        <ele>332.60000610352</ele>
        <time>2011-02-06T08:48:40.000Z</time>
      </trkpt>
      <trkpt lat="45.18528" lon="5.67883">
        <ele>334.79998779297</ele>
        <time>2011-02-06T08:48:45.000Z</time>
      </trkpt>
      <trkpt lat="45.18525" lon="5.67881">
        <ele>335.39999389648</ele>
        <time>2011-02-06T08:48:46.000Z</time>
      </trkpt>
      <trkpt lat="45.18518" lon="5.67876">
        <ele>337</ele>
        <time>2011-02-06T08:48:50.000Z</time>
      </trkpt>
      <trkpt lat="45.18511" lon="5.67871">
        <ele>338.39999389648</ele>
        <time>2011-02-06T08:48:54.000Z</time>
      </trkpt>
      <trkpt lat="45.1851" lon="5.6787">
        <ele>338.79998779297</ele>
        <time>2011-02-06T08:48:55.000Z</time>
      </trkpt>
      <trkpt lat="45.18509" lon="5.67869">
        <ele>339</ele>
        <time>2011-02-06T08:48:56.000Z</time>
      </trkpt>
      <trkpt lat="45.18505" lon="5.67866">
        <ele>339.79998779297</ele>
        <time>2011-02-06T08:48:58.000Z</time>
      </trkpt>
      <trkpt lat="45.18499" lon="5.67862">
        <ele>341</ele>
        <time>2011-02-06T08:49:01.000Z</time>
      </trkpt>
      <trkpt lat="45.18494" lon="5.67858">
        <ele>342</ele>
        <time>2011-02-06T08:49:04.000Z</time>
      </trkpt>
      <trkpt lat="45.18492" lon="5.67857">
        <ele>342.20001220703</ele>
        <time>2011-02-06T08:49:05.000Z</time>
      </trkpt>
      <trkpt lat="45.18491" lon="5.67856">
        <ele>342.60000610352</ele>
        <time>2011-02-06T08:49:06.000Z</time>
      </trkpt>
      <trkpt lat="45.18481" lon="5.6785">
        <ele>344</ele>
        <time>2011-02-06T08:49:11.000Z</time>
      </trkpt>
      <trkpt lat="45.18474" lon="5.67847">
        <ele>345</ele>
        <time>2011-02-06T08:49:14.000Z</time>
      </trkpt>
      <trkpt lat="45.18472" lon="5.67847">
        <ele>345.20001220703</ele>
        <time>2011-02-06T08:49:15.000Z</time>
      </trkpt>
      <trkpt lat="45.18462" lon="5.67845">
        <ele>346.39999389648</ele>
        <time>2011-02-06T08:49:21.000Z</time>
      </trkpt>
      <trkpt lat="45.18457" lon="5.67843">
        <ele>347</ele>
        <time>2011-02-06T08:49:24.000Z</time>
      </trkpt>
      <trkpt lat="45.18455" lon="5.67842">
        <ele>347.20001220703</ele>
        <time>2011-02-06T08:49:25.000Z</time>
      </trkpt>
      <trkpt lat="45.18453" lon="5.6784">
        <ele>347.39999389648</ele>
        <time>2011-02-06T08:49:26.000Z</time>
      </trkpt>
      <trkpt lat="45.18445" lon="5.67834">
        <ele>348.20001220703</ele>
        <time>2011-02-06T08:49:30.000Z</time>
      </trkpt>
      <trkpt lat="45.1844" lon="5.6783">
        <ele>348.60000610352</ele>
        <time>2011-02-06T08:49:33.000Z</time>
      </trkpt>
      <trkpt lat="45.18438" lon="5.67829">
        <ele>348.79998779297</ele>
        <time>2011-02-06T08:49:34.000Z</time>
      </trkpt>
      <trkpt lat="45.18433" lon="5.67825">
        <ele>349.20001220703</ele>
        <time>2011-02-06T08:49:37.000Z</time>
      </trkpt>
      <trkpt lat="45.18423" lon="5.67816">
        <ele>349.60000610352</ele>
        <time>2011-02-06T08:49:43.000Z</time>
      </trkpt>
      <trkpt lat="45.1842" lon="5.67813">
        <ele>349.79998779297</ele>
        <time>2011-02-06T08:49:45.000Z</time>
      </trkpt>
      <trkpt lat="45.18414" lon="5.67812">
        <ele>350</ele>
        <time>2011-02-06T08:49:47.000Z</time>
      </trkpt>
      <trkpt lat="45.1841" lon="5.67811">
        <ele>350</ele>
        <time>2011-02-06T08:49:49.000Z</time>
      </trkpt>
      <trkpt lat="45.18405" lon="5.6781">
        <ele>350</ele>
        <time>2011-02-06T08:49:51.000Z</time>
      </trkpt>
      <trkpt lat="45.18399" lon="5.67809">
        <ele>350</ele>
        <time>2011-02-06T08:49:53.000Z</time>
      </trkpt>
      <trkpt lat="45.18388" lon="5.67804">
        <ele>349.79998779297</ele>
        <time>2011-02-06T08:49:58.000Z</time>
      </trkpt>
      <trkpt lat="45.18387" lon="5.67801">
        <ele>349.60000610352</ele>
        <time>2011-02-06T08:49:59.000Z</time>
      </trkpt>
      <trkpt lat="45.18381" lon="5.67795">
        <ele>349.20001220703</ele>
        <time>2011-02-06T08:50:03.000Z</time>
      </trkpt>
      <trkpt lat="45.18375" lon="5.6779">
        <ele>348.79998779297</ele>
        <time>2011-02-06T08:50:06.000Z</time>
      </trkpt>
      <trkpt lat="45.1837" lon="5.67785">
        <ele>348.20001220703</ele>
        <time>2011-02-06T08:50:08.000Z</time>
      </trkpt>
      <trkpt lat="45.18361" lon="5.67779">
        <ele>347.60000610352</ele>
        <time>2011-02-06T08:50:11.000Z</time>
      </trkpt>
      <trkpt lat="45.18354" lon="5.67776">
        <ele>347</ele>
        <time>2011-02-06T08:50:14.000Z</time>
      </trkpt>
      <trkpt lat="45.18351" lon="5.67776">
        <ele>347</ele>
        <time>2011-02-06T08:50:15.000Z</time>
      </trkpt>
      <trkpt lat="45.18342" lon="5.67779">
        <ele>347.20001220703</ele>
        <time>2011-02-06T08:50:19.000Z</time>
      </trkpt>
      <trkpt lat="45.18341" lon="5.67779">
        <ele>347.20001220703</ele>
        <time>2011-02-06T08:50:20.000Z</time>
      </trkpt>
      <trkpt lat="45.18339" lon="5.67782">
        <ele>347.60000610352</ele>
        <time>2011-02-06T08:50:24.000Z</time>
      </trkpt>
      <trkpt lat="45.18334" lon="5.67784">
        <ele>347.79998779297</ele>
        <time>2011-02-06T08:50:27.000Z</time>
      </trkpt>
      <trkpt lat="45.18331" lon="5.67785">
        <ele>347.79998779297</ele>
        <time>2011-02-06T08:50:28.000Z</time>
      </trkpt>
      <trkpt lat="45.18327" lon="5.6779">
        <ele>347.79998779297</ele>
        <time>2011-02-06T08:50:32.000Z</time>
      </trkpt>
      <trkpt lat="45.18326" lon="5.67791">
        <ele>347.79998779297</ele>
        <time>2011-02-06T08:50:33.000Z</time>
      </trkpt>
      <trkpt lat="45.18321" lon="5.67795">
        <ele>347.79998779297</ele>
        <time>2011-02-06T08:50:38.000Z</time>
      </trkpt>
      <trkpt lat="45.1832" lon="5.67796">
        <ele>347.79998779297</ele>
        <time>2011-02-06T08:50:39.000Z</time>
      </trkpt>
      <trkpt lat="45.18316" lon="5.67799">
        <ele>347.60000610352</ele>
        <time>2011-02-06T08:50:43.000Z</time>
      </trkpt>
      <trkpt lat="45.18313" lon="5.67797">
        <ele>347</ele>
        <time>2011-02-06T08:50:47.000Z</time>
      </trkpt>
      <trkpt lat="45.18312" lon="5.67797">
        <ele>346.79998779297</ele>
        <time>2011-02-06T08:50:51.000Z</time>
      </trkpt>
      <trkpt lat="45.18307" lon="5.67797">
        <ele>346.20001220703</ele>
        <time>2011-02-06T08:50:55.000Z</time>
      </trkpt>
      <trkpt lat="45.18308" lon="5.67797">
        <ele>346.20001220703</ele>
        <time>2011-02-06T08:50:56.000Z</time>
      </trkpt>
      <trkpt lat="45.18311" lon="5.67799">
        <ele>346.79998779297</ele>
        <time>2011-02-06T08:51:01.000Z</time>
      </trkpt>
      <trkpt lat="45.18312" lon="5.67801">
        <ele>347.39999389648</ele>
        <time>2011-02-06T08:51:03.000Z</time>
      </trkpt>
      <trkpt lat="45.18314" lon="5.67803">
        <ele>347.79998779297</ele>
        <time>2011-02-06T08:51:04.000Z</time>
      </trkpt>
      <trkpt lat="45.18314" lon="5.67804">
        <ele>348</ele>
        <time>2011-02-06T08:51:06.000Z</time>
      </trkpt>
      <trkpt lat="45.1832" lon="5.67807">
        <ele>349</ele>
        <time>2011-02-06T08:51:11.000Z</time>
      </trkpt>
      <trkpt lat="45.18325" lon="5.67807">
        <ele>350</ele>
        <time>2011-02-06T08:51:19.000Z</time>
      </trkpt>
      <trkpt lat="45.18328" lon="5.67809">
        <ele>350.60000610352</ele>
        <time>2011-02-06T08:51:23.000Z</time>
      </trkpt>
      <trkpt lat="45.18329" lon="5.6781">
        <ele>350.79998779297</ele>
        <time>2011-02-06T08:51:24.000Z</time>
      </trkpt>
      <trkpt lat="45.1833" lon="5.67812">
        <ele>351.39999389648</ele>
        <time>2011-02-06T08:51:27.000Z</time>
      </trkpt>
      <trkpt lat="45.18332" lon="5.67809">
        <ele>351.20001220703</ele>
        <time>2011-02-06T08:51:28.000Z</time>
      </trkpt>
      <trkpt lat="45.18333" lon="5.67808">
        <ele>351.39999389648</ele>
        <time>2011-02-06T08:51:29.000Z</time>
      </trkpt>
      <trkpt lat="45.18335" lon="5.67805">
        <ele>350.79998779297</ele>
        <time>2011-02-06T08:51:31.000Z</time>
      </trkpt>
      <trkpt lat="45.18334" lon="5.67799">
        <ele>350</ele>
        <time>2011-02-06T08:51:33.000Z</time>
      </trkpt>
      <trkpt lat="45.18337" lon="5.67795">
        <ele>349.39999389648</ele>
        <time>2011-02-06T08:51:35.000Z</time>
      </trkpt>
      <trkpt lat="45.18339" lon="5.67796">
        <ele>349.60000610352</ele>
        <time>2011-02-06T08:51:36.000Z</time>
      </trkpt>
      <trkpt lat="45.18345" lon="5.67794">
        <ele>349.20001220703</ele>
        <time>2011-02-06T08:51:40.000Z</time>
      </trkpt>
      <trkpt lat="45.18346" lon="5.67794">
        <ele>349.20001220703</ele>
        <time>2011-02-06T08:51:41.000Z</time>
      </trkpt>
      <trkpt lat="45.18348" lon="5.67794">
        <ele>349.20001220703</ele>
        <time>2011-02-06T08:51:43.000Z</time>
      </trkpt>
      <trkpt lat="45.1835" lon="5.67795">
        <ele>349.39999389648</ele>
        <time>2011-02-06T08:51:44.000Z</time>
      </trkpt>
      <trkpt lat="45.1836" lon="5.67794">
        <ele>349.20001220703</ele>
        <time>2011-02-06T08:51:48.000Z</time>
      </trkpt>
      <trkpt lat="45.18365" lon="5.67792">
        <ele>348.79998779297</ele>
        <time>2011-02-06T08:51:50.000Z</time>
      </trkpt>
      <trkpt lat="45.18371" lon="5.67791">
        <ele>348.79998779297</ele>
        <time>2011-02-06T08:51:53.000Z</time>
      </trkpt>
      <trkpt lat="45.18379" lon="5.67793">
        <ele>349</ele>
        <time>2011-02-06T08:51:56.000Z</time>
      </trkpt>
      <trkpt lat="45.18383" lon="5.67795">
        <ele>349.20001220703</ele>
        <time>2011-02-06T08:51:58.000Z</time>
      </trkpt>
      <trkpt lat="45.18403" lon="5.67803">
        <ele>349.60000610352</ele>
        <time>2011-02-06T08:52:05.000Z</time>
      </trkpt>
      <trkpt lat="45.18405" lon="5.67803">
        <ele>349.60000610352</ele>
        <time>2011-02-06T08:52:07.000Z</time>
      </trkpt>
      <trkpt lat="45.18411" lon="5.67808">
        <ele>349.79998779297</ele>
        <time>2011-02-06T08:52:10.000Z</time>
      </trkpt>
      <trkpt lat="45.18413" lon="5.67811">
        <ele>349.79998779297</ele>
        <time>2011-02-06T08:52:11.000Z</time>
      </trkpt>
      <trkpt lat="45.18417" lon="5.67815">
        <ele>350</ele>
        <time>2011-02-06T08:52:13.000Z</time>
      </trkpt>
      <trkpt lat="45.1843" lon="5.67824">
        <ele>349.39999389648</ele>
        <time>2011-02-06T08:52:17.000Z</time>
      </trkpt>
      <trkpt lat="45.18435" lon="5.67827">
        <ele>349</ele>
        <time>2011-02-06T08:52:20.000Z</time>
      </trkpt>
      <trkpt lat="45.18442" lon="5.67829">
        <ele>348.39999389648</ele>
        <time>2011-02-06T08:52:22.000Z</time>
      </trkpt>
      <trkpt lat="45.18453" lon="5.67839">
        <ele>347.39999389648</ele>
        <time>2011-02-06T08:52:28.000Z</time>
      </trkpt>
      <trkpt lat="45.18464" lon="5.67844">
        <ele>346.20001220703</ele>
        <time>2011-02-06T08:52:34.000Z</time>
      </trkpt>
      <trkpt lat="45.18469" lon="5.67846">
        <ele>345.60000610352</ele>
        <time>2011-02-06T08:52:36.000Z</time>
      </trkpt>
      <trkpt lat="45.18481" lon="5.6785">
        <ele>344</ele>
        <time>2011-02-06T08:52:41.000Z</time>
      </trkpt>
      <trkpt lat="45.18489" lon="5.67853">
        <ele>342.79998779297</ele>
        <time>2011-02-06T08:52:45.000Z</time>
      </trkpt>
      <trkpt lat="45.18491" lon="5.67853">
        <ele>342.60000610352</ele>
        <time>2011-02-06T08:52:46.000Z</time>
      </trkpt>
      <trkpt lat="45.185" lon="5.67861">
        <ele>341</ele>
        <time>2011-02-06T08:52:51.000Z</time>
      </trkpt>
      <trkpt lat="45.18502" lon="5.67862">
        <ele>340.60000610352</ele>
        <time>2011-02-06T08:52:52.000Z</time>
      </trkpt>
      <trkpt lat="45.18506" lon="5.67865">
        <ele>339.79998779297</ele>
        <time>2011-02-06T08:52:54.000Z</time>
      </trkpt>
      <trkpt lat="45.18512" lon="5.67868">
        <ele>338.60000610352</ele>
        <time>2011-02-06T08:52:57.000Z</time>
      </trkpt>
      <trkpt lat="45.18522" lon="5.67875">
        <ele>336.39999389648</ele>
        <time>2011-02-06T08:53:02.000Z</time>
      </trkpt>
      <trkpt lat="45.18536" lon="5.67883">
        <ele>333.39999389648</ele>
        <time>2011-02-06T08:53:08.000Z</time>
      </trkpt>
      <trkpt lat="45.18541" lon="5.67885">
        <ele>332.60000610352</ele>
        <time>2011-02-06T08:53:10.000Z</time>
      </trkpt>
      <trkpt lat="45.18551" lon="5.67891">
        <ele>330.39999389648</ele>
        <time>2011-02-06T08:53:14.000Z</time>
      </trkpt>
      <trkpt lat="45.18559" lon="5.67899">
        <ele>328</ele>
        <time>2011-02-06T08:53:19.000Z</time>
      </trkpt>
      <trkpt lat="45.18561" lon="5.67902">
        <ele>327.60000610352</ele>
        <time>2011-02-06T08:53:21.000Z</time>
      </trkpt>
      <trkpt lat="45.18567" lon="5.67909">
        <ele>325.60000610352</ele>
        <time>2011-02-06T08:53:24.000Z</time>
      </trkpt>
      <trkpt lat="45.18571" lon="5.67908">
        <ele>325.20001220703</ele>
        <time>2011-02-06T08:53:26.000Z</time>
      </trkpt>
      <trkpt lat="45.18574" lon="5.67904">
        <ele>325</ele>
        <time>2011-02-06T08:53:28.000Z</time>
      </trkpt>
      <trkpt lat="45.18578" lon="5.67896">
        <ele>325.20001220703</ele>
        <time>2011-02-06T08:53:32.000Z</time>
      </trkpt>
      <trkpt lat="45.18582" lon="5.67884">
        <ele>326</ele>
        <time>2011-02-06T08:53:38.000Z</time>
      </trkpt>
      <trkpt lat="45.18589" lon="5.6787">
        <ele>326.79998779297</ele>
        <time>2011-02-06T08:53:43.000Z</time>
      </trkpt>
      <trkpt lat="45.18595" lon="5.67859">
        <ele>327.60000610352</ele>
        <time>2011-02-06T08:53:48.000Z</time>
      </trkpt>
      <trkpt lat="45.18596" lon="5.67857">
        <ele>327.79998779297</ele>
        <time>2011-02-06T08:53:49.000Z</time>
      </trkpt>
      <trkpt lat="45.18602" lon="5.67842">
        <ele>329.20001220703</ele>
        <time>2011-02-06T08:53:55.000Z</time>
      </trkpt>
      <trkpt lat="45.18605" lon="5.67834">
        <ele>329.79998779297</ele>
        <time>2011-02-06T08:53:58.000Z</time>
      </trkpt>
      <trkpt lat="45.18609" lon="5.67828">
        <ele>330.20001220703</ele>
        <time>2011-02-06T08:54:01.000Z</time>
      </trkpt>
      <trkpt lat="45.18618" lon="5.67813">
        <ele>331.60000610352</ele>
        <time>2011-02-06T08:54:07.000Z</time>
      </trkpt>
      <trkpt lat="45.18627" lon="5.678">
        <ele>332.79998779297</ele>
        <time>2011-02-06T08:54:13.000Z</time>
      </trkpt>
      <trkpt lat="45.18631" lon="5.67792">
        <ele>333.60000610352</ele>
        <time>2011-02-06T08:54:16.000Z</time>
      </trkpt>
      <trkpt lat="45.18637" lon="5.67782">
        <ele>334.60000610352</ele>
        <time>2011-02-06T08:54:20.000Z</time>
      </trkpt>
      <trkpt lat="45.18642" lon="5.67771">
        <ele>336</ele>
        <time>2011-02-06T08:54:24.000Z</time>
      </trkpt>
      <trkpt lat="45.18645" lon="5.67766">
        <ele>336.60000610352</ele>
        <time>2011-02-06T08:54:26.000Z</time>
      </trkpt>
      <trkpt lat="45.18652" lon="5.67753">
        <ele>338.39999389648</ele>
        <time>2011-02-06T08:54:31.000Z</time>
      </trkpt>
      <trkpt lat="45.18653" lon="5.6775">
        <ele>338.60000610352</ele>
        <time>2011-02-06T08:54:32.000Z</time>
      </trkpt>
      <trkpt lat="45.1866" lon="5.67739">
        <ele>339.60000610352</ele>
        <time>2011-02-06T08:54:37.000Z</time>
      </trkpt>
      <trkpt lat="45.18667" lon="5.67732">
        <ele>340</ele>
        <time>2011-02-06T08:54:41.000Z</time>
      </trkpt>
      <trkpt lat="45.18669" lon="5.67731">
        <ele>340</ele>
        <time>2011-02-06T08:54:42.000Z</time>
      </trkpt>
      <trkpt lat="45.18681" lon="5.67722">
        <ele>339.60000610352</ele>
        <time>2011-02-06T08:54:48.000Z</time>
      </trkpt>
      <trkpt lat="45.18685" lon="5.67719">
        <ele>339.60000610352</ele>
        <time>2011-02-06T08:54:50.000Z</time>
      </trkpt>
      <trkpt lat="45.18695" lon="5.67707">
        <ele>340</ele>
        <time>2011-02-06T08:54:56.000Z</time>
      </trkpt>
      <trkpt lat="45.18699" lon="5.67703">
        <ele>340.20001220703</ele>
        <time>2011-02-06T08:54:58.000Z</time>
      </trkpt>
      <trkpt lat="45.18705" lon="5.67699">
        <ele>340.20001220703</ele>
        <time>2011-02-06T08:55:01.000Z</time>
      </trkpt>
      <trkpt lat="45.18717" lon="5.67692">
        <ele>339.79998779297</ele>
        <time>2011-02-06T08:55:06.000Z</time>
      </trkpt>
      <trkpt lat="45.18719" lon="5.67691">
        <ele>339.79998779297</ele>
        <time>2011-02-06T08:55:07.000Z</time>
      </trkpt>
      <trkpt lat="45.18734" lon="5.67679">
        <ele>340.20001220703</ele>
        <time>2011-02-06T08:55:13.000Z</time>
      </trkpt>
      <trkpt lat="45.18736" lon="5.67677">
        <ele>340.39999389648</ele>
        <time>2011-02-06T08:55:14.000Z</time>
      </trkpt>
      <trkpt lat="45.18741" lon="5.67669">
        <ele>341.20001220703</ele>
        <time>2011-02-06T08:55:17.000Z</time>
      </trkpt>
      <trkpt lat="45.18743" lon="5.67664">
        <ele>341.60000610352</ele>
        <time>2011-02-06T08:55:19.000Z</time>
      </trkpt>
      <trkpt lat="45.18745" lon="5.67658">
        <ele>341.79998779297</ele>
        <time>2011-02-06T08:55:21.000Z</time>
      </trkpt>
      <trkpt lat="45.18746" lon="5.67645">
        <ele>342.60000610352</ele>
        <time>2011-02-06T08:55:25.000Z</time>
      </trkpt>
      <trkpt lat="45.18747" lon="5.67631">
        <ele>343.20001220703</ele>
        <time>2011-02-06T08:55:29.000Z</time>
      </trkpt>
      <trkpt lat="45.18749" lon="5.67625">
        <ele>343.60000610352</ele>
        <time>2011-02-06T08:55:31.000Z</time>
      </trkpt>
      <trkpt lat="45.18751" lon="5.67617">
        <ele>343.79998779297</ele>
        <time>2011-02-06T08:55:34.000Z</time>
      </trkpt>
      <trkpt lat="45.18753" lon="5.67613">
        <ele>343.60000610352</ele>
        <time>2011-02-06T08:55:36.000Z</time>
      </trkpt>
      <trkpt lat="45.18756" lon="5.67608">
        <ele>343.39999389648</ele>
        <time>2011-02-06T08:55:38.000Z</time>
      </trkpt>
      <trkpt lat="45.18758" lon="5.67606">
        <ele>343.39999389648</ele>
        <time>2011-02-06T08:55:39.000Z</time>
      </trkpt>
      <trkpt lat="45.18759" lon="5.67603">
        <ele>343.39999389648</ele>
        <time>2011-02-06T08:55:40.000Z</time>
      </trkpt>
      <trkpt lat="45.18762" lon="5.67595">
        <ele>343.39999389648</ele>
        <time>2011-02-06T08:55:43.000Z</time>
      </trkpt>
      <trkpt lat="45.18767" lon="5.67588">
        <ele>343.20001220703</ele>
        <time>2011-02-06T08:55:46.000Z</time>
      </trkpt>
      <trkpt lat="45.18768" lon="5.67585">
        <ele>343.20001220703</ele>
        <time>2011-02-06T08:55:47.000Z</time>
      </trkpt>
      <trkpt lat="45.18776" lon="5.67572">
        <ele>342.79998779297</ele>
        <time>2011-02-06T08:55:52.000Z</time>
      </trkpt>
      <trkpt lat="45.18779" lon="5.67565">
        <ele>342.79998779297</ele>
        <time>2011-02-06T08:55:54.000Z</time>
      </trkpt>
      <trkpt lat="45.1878" lon="5.67559">
        <ele>343.20001220703</ele>
        <time>2011-02-06T08:55:57.000Z</time>
      </trkpt>
      <trkpt lat="45.18778" lon="5.6754">
        <ele>344.60000610352</ele>
        <time>2011-02-06T08:56:02.000Z</time>
      </trkpt>
      <trkpt lat="45.18777" lon="5.67538">
        <ele>344.79998779297</ele>
        <time>2011-02-06T08:56:03.000Z</time>
      </trkpt>
      <trkpt lat="45.18772" lon="5.67523">
        <ele>346.20001220703</ele>
        <time>2011-02-06T08:56:09.000Z</time>
      </trkpt>
      <trkpt lat="45.18769" lon="5.67515">
        <ele>346.60000610352</ele>
        <time>2011-02-06T08:56:12.000Z</time>
      </trkpt>
      <trkpt lat="45.18766" lon="5.67508">
        <ele>347.20001220703</ele>
        <time>2011-02-06T08:56:15.000Z</time>
      </trkpt>
      <trkpt lat="45.18758" lon="5.67493">
        <ele>348.79998779297</ele>
        <time>2011-02-06T08:56:22.000Z</time>
      </trkpt>
      <trkpt lat="45.18746" lon="5.67481">
        <ele>351.60000610352</ele>
        <time>2011-02-06T08:56:28.000Z</time>
      </trkpt>
      <trkpt lat="45.18741" lon="5.67476">
        <ele>352.79998779297</ele>
        <time>2011-02-06T08:56:30.000Z</time>
      </trkpt>
      <trkpt lat="45.18734" lon="5.67467">
        <ele>355.20001220703</ele>
        <time>2011-02-06T08:56:34.000Z</time>
      </trkpt>
      <trkpt lat="45.18734" lon="5.67455">
        <ele>357</ele>
        <time>2011-02-06T08:56:38.000Z</time>
      </trkpt>
      <trkpt lat="45.18741" lon="5.67441">
        <ele>358.60000610352</ele>
        <time>2011-02-06T08:56:44.000Z</time>
      </trkpt>
      <trkpt lat="45.18742" lon="5.67439">
        <ele>358.79998779297</ele>
        <time>2011-02-06T08:56:45.000Z</time>
      </trkpt>
      <trkpt lat="45.18746" lon="5.67433">
        <ele>359.60000610352</ele>
        <time>2011-02-06T08:56:48.000Z</time>
      </trkpt>
      <trkpt lat="45.18748" lon="5.67429">
        <ele>360</ele>
        <time>2011-02-06T08:56:50.000Z</time>
      </trkpt>
      <trkpt lat="45.18755" lon="5.67416">
        <ele>361.79998779297</ele>
        <time>2011-02-06T08:56:56.000Z</time>
      </trkpt>
      <trkpt lat="45.18756" lon="5.67411">
        <ele>362.20001220703</ele>
        <time>2011-02-06T08:56:58.000Z</time>
      </trkpt>
      <trkpt lat="45.18759" lon="5.67404">
        <ele>362.79998779297</ele>
        <time>2011-02-06T08:57:01.000Z</time>
      </trkpt>
      <trkpt lat="45.18765" lon="5.67394">
        <ele>363.39999389648</ele>
        <time>2011-02-06T08:57:06.000Z</time>
      </trkpt>
      <trkpt lat="45.18767" lon="5.67389">
        <ele>363.79998779297</ele>
        <time>2011-02-06T08:57:08.000Z</time>
      </trkpt>
      <trkpt lat="45.18771" lon="5.6738">
        <ele>364.60000610352</ele>
        <time>2011-02-06T08:57:11.000Z</time>
      </trkpt>
      <trkpt lat="45.18774" lon="5.67364">
        <ele>366</ele>
        <time>2011-02-06T08:57:16.000Z</time>
      </trkpt>
      <trkpt lat="45.18775" lon="5.67361">
        <ele>366.20001220703</ele>
        <time>2011-02-06T08:57:17.000Z</time>
      </trkpt>
      <trkpt lat="45.18776" lon="5.67352">
        <ele>367.20001220703</ele>
        <time>2011-02-06T08:57:20.000Z</time>
      </trkpt>
      <trkpt lat="45.18778" lon="5.67337">
        <ele>368.60000610352</ele>
        <time>2011-02-06T08:57:25.000Z</time>
      </trkpt>
      <trkpt lat="45.18784" lon="5.6732">
        <ele>371</ele>
        <time>2011-02-06T08:57:32.000Z</time>
      </trkpt>
      <trkpt lat="45.18787" lon="5.67316">
        <ele>371.60000610352</ele>
        <time>2011-02-06T08:57:34.000Z</time>
      </trkpt>
      <trkpt lat="45.18791" lon="5.6731">
        <ele>372.39999389648</ele>
        <time>2011-02-06T08:57:37.000Z</time>
      </trkpt>
      <trkpt lat="45.18799" lon="5.67298">
        <ele>374.60000610352</ele>
        <time>2011-02-06T08:57:43.000Z</time>
      </trkpt>
      <trkpt lat="45.188" lon="5.67296">
        <ele>375</ele>
        <time>2011-02-06T08:57:44.000Z</time>
      </trkpt>
      <trkpt lat="45.18803" lon="5.67286">
        <ele>376.79998779297</ele>
        <time>2011-02-06T08:57:48.000Z</time>
      </trkpt>
      <trkpt lat="45.1881" lon="5.67274">
        <ele>379.20001220703</ele>
        <time>2011-02-06T08:57:54.000Z</time>
      </trkpt>
      <trkpt lat="45.18811" lon="5.67271">
        <ele>379.60000610352</ele>
        <time>2011-02-06T08:57:55.000Z</time>
      </trkpt>
      <trkpt lat="45.18817" lon="5.67262">
        <ele>381.60000610352</ele>
        <time>2011-02-06T08:58:00.000Z</time>
      </trkpt>
      <trkpt lat="45.18823" lon="5.67251">
        <ele>384</ele>
        <time>2011-02-06T08:58:06.000Z</time>
      </trkpt>
      <trkpt lat="45.18828" lon="5.67242">
        <ele>386.39999389648</ele>
        <time>2011-02-06T08:58:11.000Z</time>
      </trkpt>
      <trkpt lat="45.18831" lon="5.67241">
        <ele>386.60000610352</ele>
        <time>2011-02-06T08:58:19.000Z</time>
      </trkpt>
      <trkpt lat="45.18826" lon="5.67238">
        <ele>387</ele>
        <time>2011-02-06T08:58:26.000Z</time>
      </trkpt>
      <trkpt lat="45.18823" lon="5.67236">
        <ele>387.39999389648</ele>
        <time>2011-02-06T08:58:28.000Z</time>
      </trkpt>
      <trkpt lat="45.18815" lon="5.67233">
        <ele>387.39999389648</ele>
        <time>2011-02-06T08:58:33.000Z</time>
      </trkpt>
      <trkpt lat="45.18805" lon="5.6723">
        <ele>387.60000610352</ele>
        <time>2011-02-06T08:58:39.000Z</time>
      </trkpt>
      <trkpt lat="45.18795" lon="5.67227">
        <ele>387.60000610352</ele>
        <time>2011-02-06T08:58:44.000Z</time>
      </trkpt>
      <trkpt lat="45.18786" lon="5.67222">
        <ele>388.20001220703</ele>
        <time>2011-02-06T08:58:49.000Z</time>
      </trkpt>
      <trkpt lat="45.18782" lon="5.67219">
        <ele>388.39999389648</ele>
        <time>2011-02-06T08:58:51.000Z</time>
      </trkpt>
      <trkpt lat="45.18769" lon="5.6721">
        <ele>390</ele>
        <time>2011-02-06T08:58:58.000Z</time>
      </trkpt>
      <trkpt lat="45.18767" lon="5.67209">
        <ele>390.20001220703</ele>
        <time>2011-02-06T08:58:59.000Z</time>
      </trkpt>
      <trkpt lat="45.18757" lon="5.67201">
        <ele>391.60000610352</ele>
        <time>2011-02-06T08:59:05.000Z</time>
      </trkpt>
      <trkpt lat="45.18752" lon="5.67198">
        <ele>392.20001220703</ele>
        <time>2011-02-06T08:59:08.000Z</time>
      </trkpt>
      <trkpt lat="45.18746" lon="5.67194">
        <ele>393</ele>
        <time>2011-02-06T08:59:12.000Z</time>
      </trkpt>
      <trkpt lat="45.18735" lon="5.67189">
        <ele>394</ele>
        <time>2011-02-06T08:59:18.000Z</time>
      </trkpt>
      <trkpt lat="45.18727" lon="5.67187">
        <ele>394.39999389648</ele>
        <time>2011-02-06T08:59:23.000Z</time>
      </trkpt>
      <trkpt lat="45.18717" lon="5.67186">
        <ele>394.60000610352</ele>
        <time>2011-02-06T08:59:28.000Z</time>
      </trkpt>
      <trkpt lat="45.18715" lon="5.67185">
        <ele>394.60000610352</ele>
        <time>2011-02-06T08:59:29.000Z</time>
      </trkpt>
      <trkpt lat="45.18702" lon="5.67178">
        <ele>395.79998779297</ele>
        <time>2011-02-06T08:59:36.000Z</time>
      </trkpt>
      <trkpt lat="45.18701" lon="5.67176">
        <ele>396.20001220703</ele>
        <time>2011-02-06T08:59:37.000Z</time>
      </trkpt>
      <trkpt lat="45.18698" lon="5.67168">
        <ele>397.79998779297</ele>
        <time>2011-02-06T08:59:40.000Z</time>
      </trkpt>
      <trkpt lat="45.18698" lon="5.67165">
        <ele>398.20001220703</ele>
        <time>2011-02-06T08:59:41.000Z</time>
      </trkpt>
      <trkpt lat="45.18698" lon="5.67151">
        <ele>400</ele>
        <time>2011-02-06T08:59:46.000Z</time>
      </trkpt>
      <trkpt lat="45.18698" lon="5.67148">
        <ele>400.39999389648</ele>
        <time>2011-02-06T08:59:47.000Z</time>
      </trkpt>
      <trkpt lat="45.18698" lon="5.67142">
        <ele>401.20001220703</ele>
        <time>2011-02-06T08:59:49.000Z</time>
      </trkpt>
      <trkpt lat="45.18699" lon="5.67136">
        <ele>402</ele>
        <time>2011-02-06T08:59:51.000Z</time>
      </trkpt>
      <trkpt lat="45.18701" lon="5.67126">
        <ele>403.39999389648</ele>
        <time>2011-02-06T08:59:55.000Z</time>
      </trkpt>
      <trkpt lat="45.18701" lon="5.67115">
        <ele>404.79998779297</ele>
        <time>2011-02-06T08:59:59.000Z</time>
      </trkpt>
      <trkpt lat="45.18702" lon="5.671">
        <ele>406.79998779297</ele>
        <time>2011-02-06T09:00:05.000Z</time>
      </trkpt>
      <trkpt lat="45.18703" lon="5.67085">
        <ele>408.60000610352</ele>
        <time>2011-02-06T09:00:12.000Z</time>
      </trkpt>
      <trkpt lat="45.18702" lon="5.67075">
        <ele>409</ele>
        <time>2011-02-06T09:00:17.000Z</time>
      </trkpt>
      <trkpt lat="45.18702" lon="5.67073">
        <ele>409</ele>
        <time>2011-02-06T09:00:18.000Z</time>
      </trkpt>
      <trkpt lat="45.18702" lon="5.67072">
        <ele>409</ele>
        <time>2011-02-06T09:00:19.000Z</time>
      </trkpt>
      <trkpt lat="45.18699" lon="5.67067">
        <ele>409</ele>
        <time>2011-02-06T09:00:26.000Z</time>
      </trkpt>
      <trkpt lat="45.18699" lon="5.67058">
        <ele>409</ele>
        <time>2011-02-06T09:01:23.000Z</time>
      </trkpt>
      <trkpt lat="45.18698" lon="5.67054">
        <ele>409</ele>
        <time>2011-02-06T09:01:28.000Z</time>
      </trkpt>
      <trkpt lat="45.18698" lon="5.67052">
        <ele>409</ele>
        <time>2011-02-06T09:01:29.000Z</time>
      </trkpt>
      <trkpt lat="45.18699" lon="5.67049">
        <ele>409</ele>
        <time>2011-02-06T09:01:34.000Z</time>
      </trkpt>
      <trkpt lat="45.187" lon="5.6704">
        <ele>409.20001220703</ele>
        <time>2011-02-06T09:01:39.000Z</time>
      </trkpt>
      <trkpt lat="45.18697" lon="5.67027">
        <ele>409.20001220703</ele>
        <time>2011-02-06T09:01:45.000Z</time>
      </trkpt>
      <trkpt lat="45.18696" lon="5.67024">
        <ele>409.20001220703</ele>
        <time>2011-02-06T09:01:46.000Z</time>
      </trkpt>
      <trkpt lat="45.18695" lon="5.67013">
        <ele>409.20001220703</ele>
        <time>2011-02-06T09:01:52.000Z</time>
      </trkpt>
      <trkpt lat="45.18693" lon="5.67007">
        <ele>409.20001220703</ele>
        <time>2011-02-06T09:01:56.000Z</time>
      </trkpt>
      <trkpt lat="45.18692" lon="5.67007">
        <ele>409.20001220703</ele>
        <time>2011-02-06T09:01:57.000Z</time>
      </trkpt>
      <trkpt lat="45.18689" lon="5.67007">
        <ele>409.20001220703</ele>
        <time>2011-02-06T09:01:58.000Z</time>
      </trkpt>
      <trkpt lat="45.18684" lon="5.67002">
        <ele>409.20001220703</ele>
        <time>2011-02-06T09:02:01.000Z</time>
      </trkpt>
      <trkpt lat="45.18678" lon="5.66994">
        <ele>408.79998779297</ele>
        <time>2011-02-06T09:02:06.000Z</time>
      </trkpt>
      <trkpt lat="45.18676" lon="5.66989">
        <ele>408.60000610352</ele>
        <time>2011-02-06T09:02:08.000Z</time>
      </trkpt>
      <trkpt lat="45.18674" lon="5.66976">
        <ele>408</ele>
        <time>2011-02-06T09:02:12.000Z</time>
      </trkpt>
      <trkpt lat="45.18672" lon="5.66961">
        <ele>407.39999389648</ele>
        <time>2011-02-06T09:02:16.000Z</time>
      </trkpt>
      <trkpt lat="45.18668" lon="5.66955">
        <ele>407.20001220703</ele>
        <time>2011-02-06T09:02:18.000Z</time>
      </trkpt>
      <trkpt lat="45.18655" lon="5.66946">
        <ele>406.79998779297</ele>
        <time>2011-02-06T09:02:23.000Z</time>
      </trkpt>
      <trkpt lat="45.18637" lon="5.66941">
        <ele>406</ele>
        <time>2011-02-06T09:02:30.000Z</time>
      </trkpt>
      <trkpt lat="45.18635" lon="5.6694">
        <ele>406</ele>
        <time>2011-02-06T09:02:31.000Z</time>
      </trkpt>
      <trkpt lat="45.1862" lon="5.66935">
        <ele>405.20001220703</ele>
        <time>2011-02-06T09:02:37.000Z</time>
      </trkpt>
      <trkpt lat="45.18616" lon="5.66932">
        <ele>404.79998779297</ele>
        <time>2011-02-06T09:02:39.000Z</time>
      </trkpt>
      <trkpt lat="45.18608" lon="5.66926">
        <ele>404</ele>
        <time>2011-02-06T09:02:43.000Z</time>
      </trkpt>
      <trkpt lat="45.18603" lon="5.66913">
        <ele>402.60000610352</ele>
        <time>2011-02-06T09:02:48.000Z</time>
      </trkpt>
      <trkpt lat="45.18598" lon="5.66897">
        <ele>401.79998779297</ele>
        <time>2011-02-06T09:02:54.000Z</time>
      </trkpt>
      <trkpt lat="45.18595" lon="5.66887">
        <ele>401.20001220703</ele>
        <time>2011-02-06T09:02:58.000Z</time>
      </trkpt>
      <trkpt lat="45.18594" lon="5.6688">
        <ele>401</ele>
        <time>2011-02-06T09:03:00.000Z</time>
      </trkpt>
      <trkpt lat="45.1859" lon="5.6686">
        <ele>400</ele>
        <time>2011-02-06T09:03:06.000Z</time>
      </trkpt>
      <trkpt lat="45.18588" lon="5.6685">
        <ele>399.60000610352</ele>
        <time>2011-02-06T09:03:09.000Z</time>
      </trkpt>
      <trkpt lat="45.18586" lon="5.66847">
        <ele>399.39999389648</ele>
        <time>2011-02-06T09:03:10.000Z</time>
      </trkpt>
      <trkpt lat="45.18578" lon="5.66837">
        <ele>399.39999389648</ele>
        <time>2011-02-06T09:03:13.000Z</time>
      </trkpt>
      <trkpt lat="45.18576" lon="5.66834">
        <ele>399.39999389648</ele>
        <time>2011-02-06T09:03:14.000Z</time>
      </trkpt>
      <trkpt lat="45.18561" lon="5.66823">
        <ele>401.60000610352</ele>
        <time>2011-02-06T09:03:19.000Z</time>
      </trkpt>
      <trkpt lat="45.18559" lon="5.66821">
        <ele>402</ele>
        <time>2011-02-06T09:03:20.000Z</time>
      </trkpt>
      <trkpt lat="45.18552" lon="5.66807">
        <ele>404.20001220703</ele>
        <time>2011-02-06T09:03:25.000Z</time>
      </trkpt>
      <trkpt lat="45.18553" lon="5.668">
        <ele>405.20001220703</ele>
        <time>2011-02-06T09:03:27.000Z</time>
      </trkpt>
      <trkpt lat="45.18555" lon="5.66794">
        <ele>405.79998779297</ele>
        <time>2011-02-06T09:03:29.000Z</time>
      </trkpt>
      <trkpt lat="45.18556" lon="5.6679">
        <ele>406.20001220703</ele>
        <time>2011-02-06T09:03:30.000Z</time>
      </trkpt>
      <trkpt lat="45.1856" lon="5.66776">
        <ele>407.60000610352</ele>
        <time>2011-02-06T09:03:35.000Z</time>
      </trkpt>
      <trkpt lat="45.18561" lon="5.66771">
        <ele>408.39999389648</ele>
        <time>2011-02-06T09:03:37.000Z</time>
      </trkpt>
      <trkpt lat="45.18561" lon="5.66756">
        <ele>410.20001220703</ele>
        <time>2011-02-06T09:03:43.000Z</time>
      </trkpt>
      <trkpt lat="45.18561" lon="5.66749">
        <ele>411.20001220703</ele>
        <time>2011-02-06T09:03:47.000Z</time>
      </trkpt>
      <trkpt lat="45.18561" lon="5.66746">
        <ele>411.79998779297</ele>
        <time>2011-02-06T09:03:49.000Z</time>
      </trkpt>
      <trkpt lat="45.18564" lon="5.66739">
        <ele>413</ele>
        <time>2011-02-06T09:03:54.000Z</time>
      </trkpt>
      <trkpt lat="45.18566" lon="5.66732">
        <ele>414.20001220703</ele>
        <time>2011-02-06T09:03:59.000Z</time>
      </trkpt>
      <trkpt lat="45.18565" lon="5.66729">
        <ele>414.79998779297</ele>
        <time>2011-02-06T09:04:01.000Z</time>
      </trkpt>
      <trkpt lat="45.18566" lon="5.66724">
        <ele>415.79998779297</ele>
        <time>2011-02-06T09:04:04.000Z</time>
      </trkpt>
      <trkpt lat="45.18566" lon="5.66721">
        <ele>416.20001220703</ele>
        <time>2011-02-06T09:04:05.000Z</time>
      </trkpt>
      <trkpt lat="45.18566" lon="5.66715">
        <ele>417.39999389648</ele>
        <time>2011-02-06T09:04:08.000Z</time>
      </trkpt>
      <trkpt lat="45.18566" lon="5.6671">
        <ele>418.39999389648</ele>
        <time>2011-02-06T09:04:10.000Z</time>
      </trkpt>
      <trkpt lat="45.18566" lon="5.66708">
        <ele>418.79998779297</ele>
        <time>2011-02-06T09:04:11.000Z</time>
      </trkpt>
      <trkpt lat="45.18567" lon="5.667">
        <ele>420.20001220703</ele>
        <time>2011-02-06T09:04:15.000Z</time>
      </trkpt>
      <trkpt lat="45.18568" lon="5.66694">
        <ele>421.60000610352</ele>
        <time>2011-02-06T09:04:18.000Z</time>
      </trkpt>
      <trkpt lat="45.18569" lon="5.66689">
        <ele>422.39999389648</ele>
        <time>2011-02-06T09:04:20.000Z</time>
      </trkpt>
      <trkpt lat="45.18571" lon="5.66681">
        <ele>424.20001220703</ele>
        <time>2011-02-06T09:04:24.000Z</time>
      </trkpt>
      <trkpt lat="45.18572" lon="5.6668">
        <ele>424.60000610352</ele>
        <time>2011-02-06T09:04:25.000Z</time>
      </trkpt>
      <trkpt lat="45.18573" lon="5.6667">
        <ele>426.60000610352</ele>
        <time>2011-02-06T09:04:31.000Z</time>
      </trkpt>
      <trkpt lat="45.18572" lon="5.66668">
        <ele>426.79998779297</ele>
        <time>2011-02-06T09:04:32.000Z</time>
      </trkpt>
      <trkpt lat="45.18568" lon="5.66659">
        <ele>428</ele>
        <time>2011-02-06T09:04:37.000Z</time>
      </trkpt>
      <trkpt lat="45.18566" lon="5.66647">
        <ele>429.39999389648</ele>
        <time>2011-02-06T09:04:42.000Z</time>
      </trkpt>
      <trkpt lat="45.18566" lon="5.66644">
        <ele>430</ele>
        <time>2011-02-06T09:04:44.000Z</time>
      </trkpt>
      <trkpt lat="45.18567" lon="5.66641">
        <ele>430.20001220703</ele>
        <time>2011-02-06T09:04:45.000Z</time>
      </trkpt>
      <trkpt lat="45.18567" lon="5.66636">
        <ele>431</ele>
        <time>2011-02-06T09:04:47.000Z</time>
      </trkpt>
      <trkpt lat="45.18568" lon="5.66632">
        <ele>431.60000610352</ele>
        <time>2011-02-06T09:04:49.000Z</time>
      </trkpt>
      <trkpt lat="45.18569" lon="5.66623">
        <ele>433</ele>
        <time>2011-02-06T09:04:53.000Z</time>
      </trkpt>
      <trkpt lat="45.18569" lon="5.66619">
        <ele>433.60000610352</ele>
        <time>2011-02-06T09:04:55.000Z</time>
      </trkpt>
      <trkpt lat="45.1857" lon="5.66616">
        <ele>433.79998779297</ele>
        <time>2011-02-06T09:04:56.000Z</time>
      </trkpt>
      <trkpt lat="45.18571" lon="5.66609">
        <ele>434.79998779297</ele>
        <time>2011-02-06T09:04:59.000Z</time>
      </trkpt>
      <trkpt lat="45.18572" lon="5.66606">
        <ele>435.60000610352</ele>
        <time>2011-02-06T09:05:01.000Z</time>
      </trkpt>
      <trkpt lat="45.18573" lon="5.66594">
        <ele>437.20001220703</ele>
        <time>2011-02-06T09:05:06.000Z</time>
      </trkpt>
      <trkpt lat="45.18571" lon="5.66587">
        <ele>438</ele>
        <time>2011-02-06T09:05:09.000Z</time>
      </trkpt>
      <trkpt lat="45.18571" lon="5.66582">
        <ele>438.79998779297</ele>
        <time>2011-02-06T09:05:11.000Z</time>
      </trkpt>
      <trkpt lat="45.18572" lon="5.6658">
        <ele>439.20001220703</ele>
        <time>2011-02-06T09:05:12.000Z</time>
      </trkpt>
      <trkpt lat="45.18574" lon="5.66572">
        <ele>441.20001220703</ele>
        <time>2011-02-06T09:05:17.000Z</time>
      </trkpt>
      <trkpt lat="45.18578" lon="5.66567">
        <ele>442.60000610352</ele>
        <time>2011-02-06T09:05:22.000Z</time>
      </trkpt>
      <trkpt lat="45.18581" lon="5.66564">
        <ele>443.79998779297</ele>
        <time>2011-02-06T09:05:26.000Z</time>
      </trkpt>
      <trkpt lat="45.18583" lon="5.66562">
        <ele>444.39999389648</ele>
        <time>2011-02-06T09:05:29.000Z</time>
      </trkpt>
      <trkpt lat="45.18591" lon="5.66557">
        <ele>446.20001220703</ele>
        <time>2011-02-06T09:05:35.000Z</time>
      </trkpt>
      <trkpt lat="45.18598" lon="5.66554">
        <ele>447.39999389648</ele>
        <time>2011-02-06T09:05:40.000Z</time>
      </trkpt>
      <trkpt lat="45.18605" lon="5.6655">
        <ele>448.79998779297</ele>
        <time>2011-02-06T09:05:46.000Z</time>
      </trkpt>
      <trkpt lat="45.18606" lon="5.66548">
        <ele>449.39999389648</ele>
        <time>2011-02-06T09:05:47.000Z</time>
      </trkpt>
      <trkpt lat="45.18612" lon="5.66544">
        <ele>450.60000610352</ele>
        <time>2011-02-06T09:05:52.000Z</time>
      </trkpt>
      <trkpt lat="45.18615" lon="5.66543">
        <ele>451.20001220703</ele>
        <time>2011-02-06T09:05:54.000Z</time>
      </trkpt>
      <trkpt lat="45.18619" lon="5.66541">
        <ele>452</ele>
        <time>2011-02-06T09:05:57.000Z</time>
      </trkpt>
      <trkpt lat="45.18627" lon="5.66536">
        <ele>453.60000610352</ele>
        <time>2011-02-06T09:06:03.000Z</time>
      </trkpt>
      <trkpt lat="45.18628" lon="5.66535">
        <ele>453.60000610352</ele>
        <time>2011-02-06T09:06:04.000Z</time>
      </trkpt>
      <trkpt lat="45.18632" lon="5.66532">
        <ele>454.60000610352</ele>
        <time>2011-02-06T09:06:07.000Z</time>
      </trkpt>
      <trkpt lat="45.18633" lon="5.66531">
        <ele>455</ele>
        <time>2011-02-06T09:06:08.000Z</time>
      </trkpt>
      <trkpt lat="45.18638" lon="5.66523">
        <ele>456.60000610352</ele>
        <time>2011-02-06T09:06:13.000Z</time>
      </trkpt>
      <trkpt lat="45.18641" lon="5.66521">
        <ele>457.39999389648</ele>
        <time>2011-02-06T09:06:15.000Z</time>
      </trkpt>
      <trkpt lat="45.18645" lon="5.66516">
        <ele>458.60000610352</ele>
        <time>2011-02-06T09:06:19.000Z</time>
      </trkpt>
      <trkpt lat="45.18645" lon="5.66515">
        <ele>458.79998779297</ele>
        <time>2011-02-06T09:06:20.000Z</time>
      </trkpt>
      <trkpt lat="45.18646" lon="5.66514">
        <ele>459</ele>
        <time>2011-02-06T09:06:21.000Z</time>
      </trkpt>
      <trkpt lat="45.18652" lon="5.66504">
        <ele>461.20001220703</ele>
        <time>2011-02-06T09:06:27.000Z</time>
      </trkpt>
      <trkpt lat="45.18654" lon="5.66502">
        <ele>461.79998779297</ele>
        <time>2011-02-06T09:06:29.000Z</time>
      </trkpt>
      <trkpt lat="45.18659" lon="5.66497">
        <ele>463</ele>
        <time>2011-02-06T09:06:33.000Z</time>
      </trkpt>
      <trkpt lat="45.18663" lon="5.66492">
        <ele>464.39999389648</ele>
        <time>2011-02-06T09:06:36.000Z</time>
      </trkpt>
      <trkpt lat="45.18667" lon="5.66488">
        <ele>465.39999389648</ele>
        <time>2011-02-06T09:06:39.000Z</time>
      </trkpt>
      <trkpt lat="45.18671" lon="5.66479">
        <ele>467</ele>
        <time>2011-02-06T09:06:44.000Z</time>
      </trkpt>
      <trkpt lat="45.18671" lon="5.66475">
        <ele>467.60000610352</ele>
        <time>2011-02-06T09:06:46.000Z</time>
      </trkpt>
      <trkpt lat="45.18673" lon="5.66467">
        <ele>469.20001220703</ele>
        <time>2011-02-06T09:06:53.000Z</time>
      </trkpt>
      <trkpt lat="45.18666" lon="5.66461">
        <ele>471.20001220703</ele>
        <time>2011-02-06T09:06:58.000Z</time>
      </trkpt>
      <trkpt lat="45.18664" lon="5.66459">
        <ele>471.60000610352</ele>
        <time>2011-02-06T09:07:00.000Z</time>
      </trkpt>
      <trkpt lat="45.18655" lon="5.66455">
        <ele>471.79998779297</ele>
        <time>2011-02-06T09:07:06.000Z</time>
      </trkpt>
      <trkpt lat="45.18648" lon="5.66454">
        <ele>471.79998779297</ele>
        <time>2011-02-06T09:07:11.000Z</time>
      </trkpt>
      <trkpt lat="45.18647" lon="5.66454">
        <ele>471.60000610352</ele>
        <time>2011-02-06T09:07:12.000Z</time>
      </trkpt>
      <trkpt lat="45.18645" lon="5.66454">
        <ele>471.39999389648</ele>
        <time>2011-02-06T09:07:13.000Z</time>
      </trkpt>
      <trkpt lat="45.18642" lon="5.66454">
        <ele>471.39999389648</ele>
        <time>2011-02-06T09:07:15.000Z</time>
      </trkpt>
      <trkpt lat="45.18638" lon="5.66451">
        <ele>471.79998779297</ele>
        <time>2011-02-06T09:07:18.000Z</time>
      </trkpt>
      <trkpt lat="45.18636" lon="5.6645">
        <ele>471.79998779297</ele>
        <time>2011-02-06T09:07:19.000Z</time>
      </trkpt>
      <trkpt lat="45.18628" lon="5.66444">
        <ele>472.60000610352</ele>
        <time>2011-02-06T09:07:24.000Z</time>
      </trkpt>
      <trkpt lat="45.18627" lon="5.66443">
        <ele>472.79998779297</ele>
        <time>2011-02-06T09:07:25.000Z</time>
      </trkpt>
      <trkpt lat="45.18621" lon="5.66435">
        <ele>474.20001220703</ele>
        <time>2011-02-06T09:07:30.000Z</time>
      </trkpt>
      <trkpt lat="45.18616" lon="5.66426">
        <ele>475.79998779297</ele>
        <time>2011-02-06T09:07:35.000Z</time>
      </trkpt>
      <trkpt lat="45.18616" lon="5.66423">
        <ele>476.39999389648</ele>
        <time>2011-02-06T09:07:36.000Z</time>
      </trkpt>
      <trkpt lat="45.18614" lon="5.66414">
        <ele>478.20001220703</ele>
        <time>2011-02-06T09:07:41.000Z</time>
      </trkpt>
      <trkpt lat="45.18613" lon="5.66411">
        <ele>478.39999389648</ele>
        <time>2011-02-06T09:07:42.000Z</time>
      </trkpt>
      <trkpt lat="45.18613" lon="5.664">
        <ele>479.60000610352</ele>
        <time>2011-02-06T09:07:47.000Z</time>
      </trkpt>
      <trkpt lat="45.18614" lon="5.66397">
        <ele>480</ele>
        <time>2011-02-06T09:07:48.000Z</time>
      </trkpt>
      <trkpt lat="45.18614" lon="5.66389">
        <ele>481.20001220703</ele>
        <time>2011-02-06T09:07:52.000Z</time>
      </trkpt>
      <trkpt lat="45.18615" lon="5.66378">
        <ele>482.60000610352</ele>
        <time>2011-02-06T09:07:58.000Z</time>
      </trkpt>
      <trkpt lat="45.18615" lon="5.66372">
        <ele>483.39999389648</ele>
        <time>2011-02-06T09:08:01.000Z</time>
      </trkpt>
      <trkpt lat="45.18616" lon="5.6637">
        <ele>483.60000610352</ele>
        <time>2011-02-06T09:08:02.000Z</time>
      </trkpt>
      <trkpt lat="45.18617" lon="5.66369">
        <ele>483.79998779297</ele>
        <time>2011-02-06T09:08:03.000Z</time>
      </trkpt>
      <trkpt lat="45.18615" lon="5.66357">
        <ele>485.20001220703</ele>
        <time>2011-02-06T09:08:09.000Z</time>
      </trkpt>
      <trkpt lat="45.18615" lon="5.66346">
        <ele>486.60000610352</ele>
        <time>2011-02-06T09:08:14.000Z</time>
      </trkpt>
      <trkpt lat="45.18616" lon="5.66344">
        <ele>486.79998779297</ele>
        <time>2011-02-06T09:08:15.000Z</time>
      </trkpt>
      <trkpt lat="45.18617" lon="5.66334">
        <ele>488.39999389648</ele>
        <time>2011-02-06T09:08:20.000Z</time>
      </trkpt>
      <trkpt lat="45.18617" lon="5.66323">
        <ele>489.39999389648</ele>
        <time>2011-02-06T09:08:25.000Z</time>
      </trkpt>
      <trkpt lat="45.18615" lon="5.6632">
        <ele>489.60000610352</ele>
        <time>2011-02-06T09:08:26.000Z</time>
      </trkpt>
      <trkpt lat="45.18612" lon="5.66317">
        <ele>489.39999389648</ele>
        <time>2011-02-06T09:08:29.000Z</time>
      </trkpt>
      <trkpt lat="45.18611" lon="5.66316">
        <ele>489.39999389648</ele>
        <time>2011-02-06T09:08:30.000Z</time>
      </trkpt>
      <trkpt lat="45.18607" lon="5.66316">
        <ele>489</ele>
        <time>2011-02-06T09:09:45.000Z</time>
      </trkpt>
      <trkpt lat="45.18606" lon="5.66315">
        <ele>489</ele>
        <time>2011-02-06T09:09:50.000Z</time>
      </trkpt>
      <trkpt lat="45.18605" lon="5.66317">
        <ele>488.60000610352</ele>
        <time>2011-02-06T09:09:58.000Z</time>
      </trkpt>
      <trkpt lat="45.18605" lon="5.66313">
        <ele>489</ele>
        <time>2011-02-06T09:10:35.000Z</time>
      </trkpt>
      <trkpt lat="45.18606" lon="5.66306">
        <ele>489.79998779297</ele>
        <time>2011-02-06T09:11:00.000Z</time>
      </trkpt>
      <trkpt lat="45.18606" lon="5.66304">
        <ele>490</ele>
        <time>2011-02-06T09:11:01.000Z</time>
      </trkpt>
      <trkpt lat="45.18604" lon="5.66294">
        <ele>491</ele>
        <time>2011-02-06T09:11:05.000Z</time>
      </trkpt>
      <trkpt lat="45.18605" lon="5.66283">
        <ele>492.39999389648</ele>
        <time>2011-02-06T09:11:09.000Z</time>
      </trkpt>
      <trkpt lat="45.18605" lon="5.66281">
        <ele>492.60000610352</ele>
        <time>2011-02-06T09:11:10.000Z</time>
      </trkpt>
      <trkpt lat="45.18606" lon="5.66278">
        <ele>492.79998779297</ele>
        <time>2011-02-06T09:11:11.000Z</time>
      </trkpt>
      <trkpt lat="45.18606" lon="5.66269">
        <ele>493.79998779297</ele>
        <time>2011-02-06T09:11:15.000Z</time>
      </trkpt>
      <trkpt lat="45.18605" lon="5.66268">
        <ele>494</ele>
        <time>2011-02-06T09:11:16.000Z</time>
      </trkpt>
      <trkpt lat="45.186" lon="5.66255">
        <ele>495.20001220703</ele>
        <time>2011-02-06T09:11:21.000Z</time>
      </trkpt>
      <trkpt lat="45.186" lon="5.66254">
        <ele>495.20001220703</ele>
        <time>2011-02-06T09:11:22.000Z</time>
      </trkpt>
      <trkpt lat="45.18591" lon="5.66246">
        <ele>495.60000610352</ele>
        <time>2011-02-06T09:11:26.000Z</time>
      </trkpt>
      <trkpt lat="45.1859" lon="5.66244">
        <ele>495.60000610352</ele>
        <time>2011-02-06T09:11:27.000Z</time>
      </trkpt>
      <trkpt lat="45.18585" lon="5.66239">
        <ele>496</ele>
        <time>2011-02-06T09:11:30.000Z</time>
      </trkpt>
      <trkpt lat="45.18583" lon="5.66237">
        <ele>496</ele>
        <time>2011-02-06T09:11:31.000Z</time>
      </trkpt>
      <trkpt lat="45.1858" lon="5.6623">
        <ele>496.39999389648</ele>
        <time>2011-02-06T09:11:34.000Z</time>
      </trkpt>
      <trkpt lat="45.18578" lon="5.66224">
        <ele>496.79998779297</ele>
        <time>2011-02-06T09:11:37.000Z</time>
      </trkpt>
      <trkpt lat="45.18579" lon="5.66216">
        <ele>497.60000610352</ele>
        <time>2011-02-06T09:11:41.000Z</time>
      </trkpt>
      <trkpt lat="45.1858" lon="5.66211">
        <ele>498.20001220703</ele>
        <time>2011-02-06T09:11:44.000Z</time>
      </trkpt>
      <trkpt lat="45.1858" lon="5.66209">
        <ele>498.39999389648</ele>
        <time>2011-02-06T09:11:45.000Z</time>
      </trkpt>
      <trkpt lat="45.18579" lon="5.66201">
        <ele>499.20001220703</ele>
        <time>2011-02-06T09:11:49.000Z</time>
      </trkpt>
      <trkpt lat="45.18578" lon="5.66194">
        <ele>499.79998779297</ele>
        <time>2011-02-06T09:11:52.000Z</time>
      </trkpt>
      <trkpt lat="45.18577" lon="5.66191">
        <ele>500.20001220703</ele>
        <time>2011-02-06T09:11:53.000Z</time>
      </trkpt>
      <trkpt lat="45.18573" lon="5.66182">
        <ele>501.20001220703</ele>
        <time>2011-02-06T09:11:56.000Z</time>
      </trkpt>
      <trkpt lat="45.18568" lon="5.66171">
        <ele>503</ele>
        <time>2011-02-06T09:12:01.000Z</time>
      </trkpt>
      <trkpt lat="45.18567" lon="5.66167">
        <ele>503.60000610352</ele>
        <time>2011-02-06T09:12:03.000Z</time>
      </trkpt>
      <trkpt lat="45.18563" lon="5.6616">
        <ele>504.20001220703</ele>
        <time>2011-02-06T09:12:07.000Z</time>
      </trkpt>
      <trkpt lat="45.18554" lon="5.66151">
        <ele>505.79998779297</ele>
        <time>2011-02-06T09:12:12.000Z</time>
      </trkpt>
      <trkpt lat="45.18552" lon="5.66149">
        <ele>506.20001220703</ele>
        <time>2011-02-06T09:12:13.000Z</time>
      </trkpt>
      <trkpt lat="45.18543" lon="5.66139">
        <ele>507.79998779297</ele>
        <time>2011-02-06T09:12:18.000Z</time>
      </trkpt>
      <trkpt lat="45.18537" lon="5.66132">
        <ele>509.20001220703</ele>
        <time>2011-02-06T09:12:22.000Z</time>
      </trkpt>
      <trkpt lat="45.18535" lon="5.66125">
        <ele>510</ele>
        <time>2011-02-06T09:12:25.000Z</time>
      </trkpt>
      <trkpt lat="45.18532" lon="5.66114">
        <ele>511.39999389648</ele>
        <time>2011-02-06T09:12:30.000Z</time>
      </trkpt>
      <trkpt lat="45.18531" lon="5.66107">
        <ele>512.20001220703</ele>
        <time>2011-02-06T09:12:34.000Z</time>
      </trkpt>
      <trkpt lat="45.18529" lon="5.66101">
        <ele>512.79998779297</ele>
        <time>2011-02-06T09:12:36.000Z</time>
      </trkpt>
      <trkpt lat="45.18525" lon="5.66088">
        <ele>514.79998779297</ele>
        <time>2011-02-06T09:12:42.000Z</time>
      </trkpt>
      <trkpt lat="45.18523" lon="5.66084">
        <ele>515.59997558594</ele>
        <time>2011-02-06T09:12:44.000Z</time>
      </trkpt>
      <trkpt lat="45.18523" lon="5.66082">
        <ele>515.79998779297</ele>
        <time>2011-02-06T09:12:45.000Z</time>
      </trkpt>
      <trkpt lat="45.18522" lon="5.6608">
        <ele>516.20001220703</ele>
        <time>2011-02-06T09:12:46.000Z</time>
      </trkpt>
      <trkpt lat="45.18519" lon="5.66074">
        <ele>517.40002441406</ele>
        <time>2011-02-06T09:12:48.000Z</time>
      </trkpt>
      <trkpt lat="45.18517" lon="5.6607">
        <ele>518.40002441406</ele>
        <time>2011-02-06T09:12:50.000Z</time>
      </trkpt>
      <trkpt lat="45.18511" lon="5.66061">
        <ele>520.20001220703</ele>
        <time>2011-02-06T09:12:54.000Z</time>
      </trkpt>
      <trkpt lat="45.18508" lon="5.66055">
        <ele>521.40002441406</ele>
        <time>2011-02-06T09:12:57.000Z</time>
      </trkpt>
      <trkpt lat="45.18498" lon="5.6604">
        <ele>524.59997558594</ele>
        <time>2011-02-06T09:13:04.000Z</time>
      </trkpt>
      <trkpt lat="45.1849" lon="5.66025">
        <ele>528.20001220703</ele>
        <time>2011-02-06T09:13:11.000Z</time>
      </trkpt>
      <trkpt lat="45.18487" lon="5.66023">
        <ele>529.20001220703</ele>
        <time>2011-02-06T09:13:13.000Z</time>
      </trkpt>
      <trkpt lat="45.18484" lon="5.66023">
        <ele>530</ele>
        <time>2011-02-06T09:13:15.000Z</time>
      </trkpt>
      <trkpt lat="45.18483" lon="5.66023">
        <ele>530.59997558594</ele>
        <time>2011-02-06T09:13:16.000Z</time>
      </trkpt>
      <trkpt lat="45.18473" lon="5.6603">
        <ele>533</ele>
        <time>2011-02-06T09:13:23.000Z</time>
      </trkpt>
      <trkpt lat="45.18469" lon="5.66035">
        <ele>534.20001220703</ele>
        <time>2011-02-06T09:13:27.000Z</time>
      </trkpt>
      <trkpt lat="45.18466" lon="5.66042">
        <ele>534.59997558594</ele>
        <time>2011-02-06T09:13:30.000Z</time>
      </trkpt>
      <trkpt lat="45.18463" lon="5.66046">
        <ele>535.40002441406</ele>
        <time>2011-02-06T09:13:33.000Z</time>
      </trkpt>
      <trkpt lat="45.18459" lon="5.66049">
        <ele>536.59997558594</ele>
        <time>2011-02-06T09:13:36.000Z</time>
      </trkpt>
      <trkpt lat="45.18455" lon="5.6605">
        <ele>538</ele>
        <time>2011-02-06T09:13:39.000Z</time>
      </trkpt>
      <trkpt lat="45.18449" lon="5.66051">
        <ele>539.59997558594</ele>
        <time>2011-02-06T09:13:42.000Z</time>
      </trkpt>
      <trkpt lat="45.18442" lon="5.66056">
        <ele>542</ele>
        <time>2011-02-06T09:13:49.000Z</time>
      </trkpt>
      <trkpt lat="45.18439" lon="5.6606">
        <ele>542.79998779297</ele>
        <time>2011-02-06T09:13:53.000Z</time>
      </trkpt>
      <trkpt lat="45.18438" lon="5.66062">
        <ele>543.20001220703</ele>
        <time>2011-02-06T09:13:54.000Z</time>
      </trkpt>
      <trkpt lat="45.18434" lon="5.66066">
        <ele>544.20001220703</ele>
        <time>2011-02-06T09:13:57.000Z</time>
      </trkpt>
      <trkpt lat="45.1843" lon="5.66074">
        <ele>545.40002441406</ele>
        <time>2011-02-06T09:14:01.000Z</time>
      </trkpt>
      <trkpt lat="45.1843" lon="5.66075">
        <ele>545.40002441406</ele>
        <time>2011-02-06T09:14:02.000Z</time>
      </trkpt>
      <trkpt lat="45.18431" lon="5.66077">
        <ele>545.20001220703</ele>
        <time>2011-02-06T09:14:03.000Z</time>
      </trkpt>
      <trkpt lat="45.18435" lon="5.66081">
        <ele>543.40002441406</ele>
        <time>2011-02-06T09:14:06.000Z</time>
      </trkpt>
      <trkpt lat="45.18437" lon="5.66084">
        <ele>543</ele>
        <time>2011-02-06T09:14:07.000Z</time>
      </trkpt>
      <trkpt lat="45.18438" lon="5.66089">
        <ele>541.59997558594</ele>
        <time>2011-02-06T09:14:10.000Z</time>
      </trkpt>
      <trkpt lat="45.1844" lon="5.66094">
        <ele>540.40002441406</ele>
        <time>2011-02-06T09:14:13.000Z</time>
      </trkpt>
      <trkpt lat="45.1844" lon="5.66098">
        <ele>539.59997558594</ele>
        <time>2011-02-06T09:14:15.000Z</time>
      </trkpt>
      <trkpt lat="45.18441" lon="5.661">
        <ele>539.20001220703</ele>
        <time>2011-02-06T09:14:16.000Z</time>
      </trkpt>
      <trkpt lat="45.18441" lon="5.66104">
        <ele>538.40002441406</ele>
        <time>2011-02-06T09:14:19.000Z</time>
      </trkpt>
      <trkpt lat="45.18441" lon="5.66106">
        <ele>538.20001220703</ele>
        <time>2011-02-06T09:14:20.000Z</time>
      </trkpt>
      <trkpt lat="45.1844" lon="5.66109">
        <ele>538</ele>
        <time>2011-02-06T09:14:22.000Z</time>
      </trkpt>
      <trkpt lat="45.18439" lon="5.6611">
        <ele>538.20001220703</ele>
        <time>2011-02-06T09:14:23.000Z</time>
      </trkpt>
      <trkpt lat="45.18434" lon="5.66116">
        <ele>539.20001220703</ele>
        <time>2011-02-06T09:14:28.000Z</time>
      </trkpt>
      <trkpt lat="45.18433" lon="5.66117">
        <ele>539.40002441406</ele>
        <time>2011-02-06T09:14:29.000Z</time>
      </trkpt>
      <trkpt lat="45.18426" lon="5.66122">
        <ele>540.59997558594</ele>
        <time>2011-02-06T09:14:34.000Z</time>
      </trkpt>
      <trkpt lat="45.18418" lon="5.66125">
        <ele>542.79998779297</ele>
        <time>2011-02-06T09:14:40.000Z</time>
      </trkpt>
      <trkpt lat="45.18411" lon="5.66122">
        <ele>546</ele>
        <time>2011-02-06T09:14:47.000Z</time>
      </trkpt>
      <trkpt lat="45.18409" lon="5.6612">
        <ele>547</ele>
        <time>2011-02-06T09:14:49.000Z</time>
      </trkpt>
      <trkpt lat="45.18406" lon="5.66121">
        <ele>548.40002441406</ele>
        <time>2011-02-06T09:14:53.000Z</time>
      </trkpt>
      <trkpt lat="45.18405" lon="5.66122">
        <ele>548.79998779297</ele>
        <time>2011-02-06T09:14:54.000Z</time>
      </trkpt>
      <trkpt lat="45.18397" lon="5.6612">
        <ele>552.20001220703</ele>
        <time>2011-02-06T09:14:59.000Z</time>
      </trkpt>
      <trkpt lat="45.18395" lon="5.66119">
        <ele>553</ele>
        <time>2011-02-06T09:15:00.000Z</time>
      </trkpt>
      <trkpt lat="45.18391" lon="5.66118">
        <ele>554.59997558594</ele>
        <time>2011-02-06T09:15:02.000Z</time>
      </trkpt>
      <trkpt lat="45.18387" lon="5.66117">
        <ele>556.40002441406</ele>
        <time>2011-02-06T09:15:04.000Z</time>
      </trkpt>
      <trkpt lat="45.18379" lon="5.66104">
        <ele>560.59997558594</ele>
        <time>2011-02-06T09:15:11.000Z</time>
      </trkpt>
      <trkpt lat="45.18378" lon="5.66102">
        <ele>561.20001220703</ele>
        <time>2011-02-06T09:15:12.000Z</time>
      </trkpt>
      <trkpt lat="45.18378" lon="5.66093">
        <ele>562.20001220703</ele>
        <time>2011-02-06T09:15:16.000Z</time>
      </trkpt>
      <trkpt lat="45.18379" lon="5.66091">
        <ele>562</ele>
        <time>2011-02-06T09:15:17.000Z</time>
      </trkpt>
      <trkpt lat="45.18383" lon="5.66081">
        <ele>561.20001220703</ele>
        <time>2011-02-06T09:15:23.000Z</time>
      </trkpt>
      <trkpt lat="45.18383" lon="5.66078">
        <ele>561.20001220703</ele>
        <time>2011-02-06T09:15:25.000Z</time>
      </trkpt>
      <trkpt lat="45.18379" lon="5.66079">
        <ele>562.59997558594</ele>
        <time>2011-02-06T09:15:28.000Z</time>
      </trkpt>
      <trkpt lat="45.1837" lon="5.66087">
        <ele>565.40002441406</ele>
        <time>2011-02-06T09:15:34.000Z</time>
      </trkpt>
      <trkpt lat="45.18368" lon="5.66091">
        <ele>565.79998779297</ele>
        <time>2011-02-06T09:15:36.000Z</time>
      </trkpt>
      <trkpt lat="45.18367" lon="5.66093">
        <ele>566</ele>
        <time>2011-02-06T09:15:37.000Z</time>
      </trkpt>
      <trkpt lat="45.18365" lon="5.66096">
        <ele>566.40002441406</ele>
        <time>2011-02-06T09:15:39.000Z</time>
      </trkpt>
      <trkpt lat="45.18359" lon="5.66111">
        <ele>567.59997558594</ele>
        <time>2011-02-06T09:15:46.000Z</time>
      </trkpt>
      <trkpt lat="45.18358" lon="5.66114">
        <ele>568</ele>
        <time>2011-02-06T09:15:48.000Z</time>
      </trkpt>
      <trkpt lat="45.18353" lon="5.66125">
        <ele>569.20001220703</ele>
        <time>2011-02-06T09:15:54.000Z</time>
      </trkpt>
      <trkpt lat="45.18348" lon="5.66136">
        <ele>571</ele>
        <time>2011-02-06T09:15:59.000Z</time>
      </trkpt>
      <trkpt lat="45.18347" lon="5.66139">
        <ele>571.40002441406</ele>
        <time>2011-02-06T09:16:00.000Z</time>
      </trkpt>
      <trkpt lat="45.18341" lon="5.66146">
        <ele>574</ele>
        <time>2011-02-06T09:16:05.000Z</time>
      </trkpt>
      <trkpt lat="45.18336" lon="5.66155">
        <ele>575.79998779297</ele>
        <time>2011-02-06T09:16:09.000Z</time>
      </trkpt>
      <trkpt lat="45.18333" lon="5.66158">
        <ele>577.20001220703</ele>
        <time>2011-02-06T09:16:12.000Z</time>
      </trkpt>
      <trkpt lat="45.18324" lon="5.66166">
        <ele>579.40002441406</ele>
        <time>2011-02-06T09:16:19.000Z</time>
      </trkpt>
      <trkpt lat="45.18321" lon="5.66166">
        <ele>580.40002441406</ele>
        <time>2011-02-06T09:16:21.000Z</time>
      </trkpt>
      <trkpt lat="45.1832" lon="5.66166">
        <ele>580.79998779297</ele>
        <time>2011-02-06T09:16:22.000Z</time>
      </trkpt>
      <trkpt lat="45.18316" lon="5.66166">
        <ele>581.59997558594</ele>
        <time>2011-02-06T09:16:24.000Z</time>
      </trkpt>
      <trkpt lat="45.18315" lon="5.66155">
        <ele>582</ele>
        <time>2011-02-06T09:16:29.000Z</time>
      </trkpt>
      <trkpt lat="45.18315" lon="5.66144">
        <ele>582</ele>
        <time>2011-02-06T09:16:33.000Z</time>
      </trkpt>
      <trkpt lat="45.18316" lon="5.66141">
        <ele>581.79998779297</ele>
        <time>2011-02-06T09:16:34.000Z</time>
      </trkpt>
      <trkpt lat="45.18317" lon="5.66139">
        <ele>581.59997558594</ele>
        <time>2011-02-06T09:16:35.000Z</time>
      </trkpt>
      <trkpt lat="45.18318" lon="5.66124">
        <ele>581.20001220703</ele>
        <time>2011-02-06T09:16:41.000Z</time>
      </trkpt>
      <trkpt lat="45.18319" lon="5.66118">
        <ele>581.20001220703</ele>
        <time>2011-02-06T09:16:44.000Z</time>
      </trkpt>
      <trkpt lat="45.18317" lon="5.66114">
        <ele>581.79998779297</ele>
        <time>2011-02-06T09:16:46.000Z</time>
      </trkpt>
      <trkpt lat="45.18308" lon="5.66103">
        <ele>584</ele>
        <time>2011-02-06T09:16:52.000Z</time>
      </trkpt>
      <trkpt lat="45.18306" lon="5.661">
        <ele>584.59997558594</ele>
        <time>2011-02-06T09:16:54.000Z</time>
      </trkpt>
      <trkpt lat="45.18298" lon="5.66092">
        <ele>586.40002441406</ele>
        <time>2011-02-06T09:17:00.000Z</time>
      </trkpt>
      <trkpt lat="45.18291" lon="5.66086">
        <ele>588.20001220703</ele>
        <time>2011-02-06T09:17:05.000Z</time>
      </trkpt>
      <trkpt lat="45.18288" lon="5.66084">
        <ele>588.79998779297</ele>
        <time>2011-02-06T09:17:07.000Z</time>
      </trkpt>
      <trkpt lat="45.18277" lon="5.66076">
        <ele>591.40002441406</ele>
        <time>2011-02-06T09:17:14.000Z</time>
      </trkpt>
      <trkpt lat="45.18274" lon="5.66074">
        <ele>592.20001220703</ele>
        <time>2011-02-06T09:17:16.000Z</time>
      </trkpt>
      <trkpt lat="45.18266" lon="5.66066">
        <ele>594.20001220703</ele>
        <time>2011-02-06T09:17:21.000Z</time>
      </trkpt>
      <trkpt lat="45.18262" lon="5.66056">
        <ele>595.40002441406</ele>
        <time>2011-02-06T09:17:26.000Z</time>
      </trkpt>
      <trkpt lat="45.1826" lon="5.66052">
        <ele>595.79998779297</ele>
        <time>2011-02-06T09:17:28.000Z</time>
      </trkpt>
      <trkpt lat="45.18255" lon="5.66036">
        <ele>597.20001220703</ele>
        <time>2011-02-06T09:17:35.000Z</time>
      </trkpt>
      <trkpt lat="45.18253" lon="5.66032">
        <ele>597.79998779297</ele>
        <time>2011-02-06T09:17:37.000Z</time>
      </trkpt>
      <trkpt lat="45.18247" lon="5.6602">
        <ele>599.20001220703</ele>
        <time>2011-02-06T09:17:43.000Z</time>
      </trkpt>
      <trkpt lat="45.18241" lon="5.66011">
        <ele>600</ele>
        <time>2011-02-06T09:17:47.000Z</time>
      </trkpt>
      <trkpt lat="45.18238" lon="5.66005">
        <ele>600.59997558594</ele>
        <time>2011-02-06T09:17:50.000Z</time>
      </trkpt>
      <trkpt lat="45.18229" lon="5.65991">
        <ele>602.20001220703</ele>
        <time>2011-02-06T09:17:58.000Z</time>
      </trkpt>
      <trkpt lat="45.18228" lon="5.65989">
        <ele>602.40002441406</ele>
        <time>2011-02-06T09:17:59.000Z</time>
      </trkpt>
      <trkpt lat="45.18219" lon="5.65975">
        <ele>603.79998779297</ele>
        <time>2011-02-06T09:18:07.000Z</time>
      </trkpt>
      <trkpt lat="45.18217" lon="5.65972">
        <ele>604.20001220703</ele>
        <time>2011-02-06T09:18:09.000Z</time>
      </trkpt>
      <trkpt lat="45.18211" lon="5.65962">
        <ele>605.20001220703</ele>
        <time>2011-02-06T09:18:14.000Z</time>
      </trkpt>
      <trkpt lat="45.18202" lon="5.65954">
        <ele>606.59997558594</ele>
        <time>2011-02-06T09:18:20.000Z</time>
      </trkpt>
      <trkpt lat="45.18199" lon="5.65952">
        <ele>607</ele>
        <time>2011-02-06T09:18:22.000Z</time>
      </trkpt>
      <trkpt lat="45.18188" lon="5.65944">
        <ele>608.79998779297</ele>
        <time>2011-02-06T09:18:29.000Z</time>
      </trkpt>
      <trkpt lat="45.18186" lon="5.65943">
        <ele>609</ele>
        <time>2011-02-06T09:18:30.000Z</time>
      </trkpt>
      <trkpt lat="45.18172" lon="5.65941">
        <ele>610.79998779297</ele>
        <time>2011-02-06T09:18:38.000Z</time>
      </trkpt>
      <trkpt lat="45.18167" lon="5.65941">
        <ele>611.59997558594</ele>
        <time>2011-02-06T09:18:41.000Z</time>
      </trkpt>
      <trkpt lat="45.18163" lon="5.65944">
        <ele>612</ele>
        <time>2011-02-06T09:18:44.000Z</time>
      </trkpt>
      <trkpt lat="45.18154" lon="5.65954">
        <ele>612.40002441406</ele>
        <time>2011-02-06T09:18:51.000Z</time>
      </trkpt>
      <trkpt lat="45.18152" lon="5.65957">
        <ele>612.59997558594</ele>
        <time>2011-02-06T09:18:53.000Z</time>
      </trkpt>
      <trkpt lat="45.18143" lon="5.65967">
        <ele>613</ele>
        <time>2011-02-06T09:18:59.000Z</time>
      </trkpt>
      <trkpt lat="45.18137" lon="5.65974">
        <ele>613.20001220703</ele>
        <time>2011-02-06T09:19:03.000Z</time>
      </trkpt>
      <trkpt lat="45.18134" lon="5.65979">
        <ele>613.20001220703</ele>
        <time>2011-02-06T09:19:05.000Z</time>
      </trkpt>
      <trkpt lat="45.18122" lon="5.6599">
        <ele>613.40002441406</ele>
        <time>2011-02-06T09:19:11.000Z</time>
      </trkpt>
      <trkpt lat="45.1812" lon="5.65992">
        <ele>613.59997558594</ele>
        <time>2011-02-06T09:19:12.000Z</time>
      </trkpt>
      <trkpt lat="45.18106" lon="5.66005">
        <ele>613.59997558594</ele>
        <time>2011-02-06T09:19:19.000Z</time>
      </trkpt>
      <trkpt lat="45.18095" lon="5.66014">
        <ele>614.20001220703</ele>
        <time>2011-02-06T09:19:25.000Z</time>
      </trkpt>
      <trkpt lat="45.18089" lon="5.66017">
        <ele>614.40002441406</ele>
        <time>2011-02-06T09:19:28.000Z</time>
      </trkpt>
      <trkpt lat="45.18081" lon="5.66021">
        <ele>615</ele>
        <time>2011-02-06T09:19:32.000Z</time>
      </trkpt>
      <trkpt lat="45.18071" lon="5.66024">
        <ele>616.40002441406</ele>
        <time>2011-02-06T09:19:37.000Z</time>
      </trkpt>
      <trkpt lat="45.18067" lon="5.66024">
        <ele>617</ele>
        <time>2011-02-06T09:19:39.000Z</time>
      </trkpt>
      <trkpt lat="45.18059" lon="5.66022">
        <ele>618.20001220703</ele>
        <time>2011-02-06T09:19:44.000Z</time>
      </trkpt>
      <trkpt lat="45.18054" lon="5.6602">
        <ele>619</ele>
        <time>2011-02-06T09:19:49.000Z</time>
      </trkpt>
      <trkpt lat="45.18053" lon="5.6602">
        <ele>619.20001220703</ele>
        <time>2011-02-06T09:19:50.000Z</time>
      </trkpt>
      <trkpt lat="45.18053" lon="5.6602">
        <ele>619.40002441406</ele>
        <time>2011-02-06T09:19:51.000Z</time>
      </trkpt>
      <trkpt lat="45.18051" lon="5.66019">
        <ele>619.59997558594</ele>
        <time>2011-02-06T09:19:53.000Z</time>
      </trkpt>
      <trkpt lat="45.18048" lon="5.66023">
        <ele>620</ele>
        <time>2011-02-06T09:19:57.000Z</time>
      </trkpt>
      <trkpt lat="45.18047" lon="5.66022">
        <ele>620.20001220703</ele>
        <time>2011-02-06T09:19:59.000Z</time>
      </trkpt>
      <trkpt lat="45.18044" lon="5.6602">
        <ele>620.59997558594</ele>
        <time>2011-02-06T09:20:02.000Z</time>
      </trkpt>
      <trkpt lat="45.18039" lon="5.6601">
        <ele>621.79998779297</ele>
        <time>2011-02-06T09:20:08.000Z</time>
      </trkpt>
      <trkpt lat="45.18038" lon="5.66007">
        <ele>622.20001220703</ele>
        <time>2011-02-06T09:20:10.000Z</time>
      </trkpt>
      <trkpt lat="45.18033" lon="5.65997">
        <ele>623.40002441406</ele>
        <time>2011-02-06T09:20:17.000Z</time>
      </trkpt>
      <trkpt lat="45.18033" lon="5.65996">
        <ele>623.59997558594</ele>
        <time>2011-02-06T09:20:18.000Z</time>
      </trkpt>
      <trkpt lat="45.18033" lon="5.65994">
        <ele>623.59997558594</ele>
        <time>2011-02-06T09:20:21.000Z</time>
      </trkpt>
      <trkpt lat="45.18033" lon="5.65998">
        <ele>623.40002441406</ele>
        <time>2011-02-06T09:20:35.000Z</time>
      </trkpt>
      <trkpt lat="45.18033" lon="5.65999">
        <ele>623.40002441406</ele>
        <time>2011-02-06T09:20:36.000Z</time>
      </trkpt>
      <trkpt lat="45.18033" lon="5.66001">
        <ele>623.40002441406</ele>
        <time>2011-02-06T09:20:41.000Z</time>
      </trkpt>
      <trkpt lat="45.18036" lon="5.66003">
        <ele>622.59997558594</ele>
        <time>2011-02-06T09:21:06.000Z</time>
      </trkpt>
      <trkpt lat="45.18042" lon="5.66009">
        <ele>621.40002441406</ele>
        <time>2011-02-06T09:21:15.000Z</time>
      </trkpt>
      <trkpt lat="45.18047" lon="5.66014">
        <ele>620.40002441406</ele>
        <time>2011-02-06T09:21:22.000Z</time>
      </trkpt>
      <trkpt lat="45.18049" lon="5.66018">
        <ele>619.79998779297</ele>
        <time>2011-02-06T09:21:28.000Z</time>
      </trkpt>
      <trkpt lat="45.18049" lon="5.66019">
        <ele>619.79998779297</ele>
        <time>2011-02-06T09:21:30.000Z</time>
      </trkpt>
      <trkpt lat="45.18048" lon="5.66021">
        <ele>620</ele>
        <time>2011-02-06T09:21:42.000Z</time>
      </trkpt>
      <trkpt lat="45.18048" lon="5.66021">
        <ele>620</ele>
        <time>2011-02-06T09:22:06.000Z</time>
      </trkpt>
      <trkpt lat="45.18049" lon="5.66022">
        <ele>619.79998779297</ele>
        <time>2011-02-06T09:22:20.000Z</time>
      </trkpt>
      <trkpt lat="45.18043" lon="5.66022">
        <ele>620.59997558594</ele>
        <time>2011-02-06T09:23:31.000Z</time>
      </trkpt>
      <trkpt lat="45.18033" lon="5.66025">
        <ele>622</ele>
        <time>2011-02-06T09:23:37.000Z</time>
      </trkpt>
      <trkpt lat="45.18027" lon="5.66033">
        <ele>622.40002441406</ele>
        <time>2011-02-06T09:23:41.000Z</time>
      </trkpt>
      <trkpt lat="45.18026" lon="5.66036">
        <ele>622.40002441406</ele>
        <time>2011-02-06T09:23:42.000Z</time>
      </trkpt>
      <trkpt lat="45.18023" lon="5.66048">
        <ele>622</ele>
        <time>2011-02-06T09:23:47.000Z</time>
      </trkpt>
      <trkpt lat="45.1802" lon="5.6606">
        <ele>621.59997558594</ele>
        <time>2011-02-06T09:23:51.000Z</time>
      </trkpt>
      <trkpt lat="45.18019" lon="5.66063">
        <ele>621.40002441406</ele>
        <time>2011-02-06T09:23:52.000Z</time>
      </trkpt>
      <trkpt lat="45.18013" lon="5.6608">
        <ele>620.79998779297</ele>
        <time>2011-02-06T09:23:58.000Z</time>
      </trkpt>
      <trkpt lat="45.18011" lon="5.66085">
        <ele>620.79998779297</ele>
        <time>2011-02-06T09:24:00.000Z</time>
      </trkpt>
      <trkpt lat="45.1801" lon="5.66096">
        <ele>620.79998779297</ele>
        <time>2011-02-06T09:24:03.000Z</time>
      </trkpt>
      <trkpt lat="45.18007" lon="5.66111">
        <ele>621</ele>
        <time>2011-02-06T09:24:08.000Z</time>
      </trkpt>
      <trkpt lat="45.18005" lon="5.66117">
        <ele>621</ele>
        <time>2011-02-06T09:24:10.000Z</time>
      </trkpt>
      <trkpt lat="45.17997" lon="5.66134">
        <ele>621.59997558594</ele>
        <time>2011-02-06T09:24:16.000Z</time>
      </trkpt>
      <trkpt lat="45.17988" lon="5.66147">
        <ele>622.40002441406</ele>
        <time>2011-02-06T09:24:21.000Z</time>
      </trkpt>
      <trkpt lat="45.17985" lon="5.66155">
        <ele>622.59997558594</ele>
        <time>2011-02-06T09:24:24.000Z</time>
      </trkpt>
      <trkpt lat="45.17984" lon="5.66162">
        <ele>622.59997558594</ele>
        <time>2011-02-06T09:24:26.000Z</time>
      </trkpt>
      <trkpt lat="45.1798" lon="5.66175">
        <ele>623.79998779297</ele>
        <time>2011-02-06T09:24:31.000Z</time>
      </trkpt>
      <trkpt lat="45.1798" lon="5.66181">
        <ele>624.40002441406</ele>
        <time>2011-02-06T09:24:33.000Z</time>
      </trkpt>
      <trkpt lat="45.17984" lon="5.66198">
        <ele>625.40002441406</ele>
        <time>2011-02-06T09:24:38.000Z</time>
      </trkpt>
      <trkpt lat="45.17986" lon="5.66206">
        <ele>625.79998779297</ele>
        <time>2011-02-06T09:24:41.000Z</time>
      </trkpt>
      <trkpt lat="45.17987" lon="5.66215">
        <ele>626.59997558594</ele>
        <time>2011-02-06T09:24:44.000Z</time>
      </trkpt>
      <trkpt lat="45.17987" lon="5.66231">
        <ele>628</ele>
        <time>2011-02-06T09:24:49.000Z</time>
      </trkpt>
      <trkpt lat="45.17987" lon="5.66235">
        <ele>628.40002441406</ele>
        <time>2011-02-06T09:24:50.000Z</time>
      </trkpt>
      <trkpt lat="45.17987" lon="5.66255">
        <ele>629.40002441406</ele>
        <time>2011-02-06T09:24:56.000Z</time>
      </trkpt>
      <trkpt lat="45.17986" lon="5.66261">
        <ele>629.40002441406</ele>
        <time>2011-02-06T09:24:58.000Z</time>
      </trkpt>
      <trkpt lat="45.17984" lon="5.66278">
        <ele>628.79998779297</ele>
        <time>2011-02-06T09:25:03.000Z</time>
      </trkpt>
      <trkpt lat="45.17986" lon="5.66286">
        <ele>628.20001220703</ele>
        <time>2011-02-06T09:25:06.000Z</time>
      </trkpt>
      <trkpt lat="45.17987" lon="5.66293">
        <ele>627.79998779297</ele>
        <time>2011-02-06T09:25:08.000Z</time>
      </trkpt>
      <trkpt lat="45.17989" lon="5.66312">
        <ele>626.59997558594</ele>
        <time>2011-02-06T09:25:15.000Z</time>
      </trkpt>
      <trkpt lat="45.17987" lon="5.66317">
        <ele>626.79998779297</ele>
        <time>2011-02-06T09:25:17.000Z</time>
      </trkpt>
      <trkpt lat="45.17982" lon="5.66318">
        <ele>627.40002441406</ele>
        <time>2011-02-06T09:25:19.000Z</time>
      </trkpt>
      <trkpt lat="45.17975" lon="5.66312">
        <ele>628.79998779297</ele>
        <time>2011-02-06T09:25:23.000Z</time>
      </trkpt>
      <trkpt lat="45.17973" lon="5.6631">
        <ele>629</ele>
        <time>2011-02-06T09:25:24.000Z</time>
      </trkpt>
      <trkpt lat="45.17965" lon="5.66302">
        <ele>630.59997558594</ele>
        <time>2011-02-06T09:25:29.000Z</time>
      </trkpt>
      <trkpt lat="45.17958" lon="5.66296">
        <ele>631.79998779297</ele>
        <time>2011-02-06T09:25:33.000Z</time>
      </trkpt>
      <trkpt lat="45.17957" lon="5.66294">
        <ele>632</ele>
        <time>2011-02-06T09:25:34.000Z</time>
      </trkpt>
      <trkpt lat="45.17947" lon="5.66284">
        <ele>633.79998779297</ele>
        <time>2011-02-06T09:25:40.000Z</time>
      </trkpt>
      <trkpt lat="45.17942" lon="5.66281">
        <ele>634.59997558594</ele>
        <time>2011-02-06T09:25:42.000Z</time>
      </trkpt>
      <trkpt lat="45.17939" lon="5.66279">
        <ele>635</ele>
        <time>2011-02-06T09:25:44.000Z</time>
      </trkpt>
      <trkpt lat="45.17929" lon="5.66277">
        <ele>636.59997558594</ele>
        <time>2011-02-06T09:25:49.000Z</time>
      </trkpt>
      <trkpt lat="45.17923" lon="5.66278">
        <ele>637.40002441406</ele>
        <time>2011-02-06T09:25:53.000Z</time>
      </trkpt>
      <trkpt lat="45.17921" lon="5.66278">
        <ele>637.59997558594</ele>
        <time>2011-02-06T09:25:54.000Z</time>
      </trkpt>
      <trkpt lat="45.17918" lon="5.66278">
        <ele>638</ele>
        <time>2011-02-06T09:25:56.000Z</time>
      </trkpt>
      <trkpt lat="45.17909" lon="5.6628">
        <ele>639.20001220703</ele>
        <time>2011-02-06T09:26:01.000Z</time>
      </trkpt>
      <trkpt lat="45.17905" lon="5.66283">
        <ele>639.59997558594</ele>
        <time>2011-02-06T09:26:04.000Z</time>
      </trkpt>
      <trkpt lat="45.17899" lon="5.66286">
        <ele>640.20001220703</ele>
        <time>2011-02-06T09:26:07.000Z</time>
      </trkpt>
      <trkpt lat="45.17896" lon="5.66289">
        <ele>640.59997558594</ele>
        <time>2011-02-06T09:26:09.000Z</time>
      </trkpt>
      <trkpt lat="45.17891" lon="5.66294">
        <ele>641</ele>
        <time>2011-02-06T09:26:12.000Z</time>
      </trkpt>
      <trkpt lat="45.17889" lon="5.66298">
        <ele>641.20001220703</ele>
        <time>2011-02-06T09:26:14.000Z</time>
      </trkpt>
      <trkpt lat="45.17884" lon="5.66306">
        <ele>641.40002441406</ele>
        <time>2011-02-06T09:26:18.000Z</time>
      </trkpt>
      <trkpt lat="45.17874" lon="5.66318">
        <ele>642.20001220703</ele>
        <time>2011-02-06T09:26:24.000Z</time>
      </trkpt>
      <trkpt lat="45.17858" lon="5.66334">
        <ele>643.20001220703</ele>
        <time>2011-02-06T09:26:31.000Z</time>
      </trkpt>
      <trkpt lat="45.17848" lon="5.66339">
        <ele>643</ele>
        <time>2011-02-06T09:26:35.000Z</time>
      </trkpt>
      <trkpt lat="45.1784" lon="5.66341">
        <ele>643.79998779297</ele>
        <time>2011-02-06T09:26:38.000Z</time>
      </trkpt>
      <trkpt lat="45.17835" lon="5.66339">
        <ele>644.79998779297</ele>
        <time>2011-02-06T09:26:40.000Z</time>
      </trkpt>
      <trkpt lat="45.17821" lon="5.66334">
        <ele>645.59997558594</ele>
        <time>2011-02-06T09:26:45.000Z</time>
      </trkpt>
      <trkpt lat="45.17815" lon="5.66333">
        <ele>645.79998779297</ele>
        <time>2011-02-06T09:26:47.000Z</time>
      </trkpt>
      <trkpt lat="45.17801" lon="5.66335">
        <ele>645.20001220703</ele>
        <time>2011-02-06T09:26:53.000Z</time>
      </trkpt>
      <trkpt lat="45.17785" lon="5.66335">
        <ele>645</ele>
        <time>2011-02-06T09:27:00.000Z</time>
      </trkpt>
      <trkpt lat="45.17781" lon="5.66332">
        <ele>645.40002441406</ele>
        <time>2011-02-06T09:27:02.000Z</time>
      </trkpt>
      <trkpt lat="45.17774" lon="5.66323">
        <ele>645.59997558594</ele>
        <time>2011-02-06T09:27:06.000Z</time>
      </trkpt>
      <trkpt lat="45.17767" lon="5.66312">
        <ele>645.79998779297</ele>
        <time>2011-02-06T09:27:10.000Z</time>
      </trkpt>
      <trkpt lat="45.17762" lon="5.66305">
        <ele>645.79998779297</ele>
        <time>2011-02-06T09:27:13.000Z</time>
      </trkpt>
      <trkpt lat="45.17752" lon="5.66296">
        <ele>645.79998779297</ele>
        <time>2011-02-06T09:27:18.000Z</time>
      </trkpt>
      <trkpt lat="45.17736" lon="5.66291">
        <ele>645</ele>
        <time>2011-02-06T09:27:24.000Z</time>
      </trkpt>
      <trkpt lat="45.17734" lon="5.66291">
        <ele>644.79998779297</ele>
        <time>2011-02-06T09:27:25.000Z</time>
      </trkpt>
      <trkpt lat="45.17721" lon="5.66299">
        <ele>643.59997558594</ele>
        <time>2011-02-06T09:27:30.000Z</time>
      </trkpt>
      <trkpt lat="45.17716" lon="5.66303">
        <ele>643</ele>
        <time>2011-02-06T09:27:32.000Z</time>
      </trkpt>
      <trkpt lat="45.17703" lon="5.66306">
        <ele>642</ele>
        <time>2011-02-06T09:27:36.000Z</time>
      </trkpt>
      <trkpt lat="45.17695" lon="5.66304">
        <ele>641.40002441406</ele>
        <time>2011-02-06T09:27:39.000Z</time>
      </trkpt>
      <trkpt lat="45.1769" lon="5.66302">
        <ele>641.20001220703</ele>
        <time>2011-02-06T09:27:41.000Z</time>
      </trkpt>
      <trkpt lat="45.17676" lon="5.663">
        <ele>640.40002441406</ele>
        <time>2011-02-06T09:27:46.000Z</time>
      </trkpt>
      <trkpt lat="45.17671" lon="5.663">
        <ele>640</ele>
        <time>2011-02-06T09:27:48.000Z</time>
      </trkpt>
      <trkpt lat="45.17656" lon="5.66299">
        <ele>640.59997558594</ele>
        <time>2011-02-06T09:27:53.000Z</time>
      </trkpt>
      <trkpt lat="45.17653" lon="5.66299">
        <ele>640.79998779297</ele>
        <time>2011-02-06T09:27:54.000Z</time>
      </trkpt>
      <trkpt lat="45.17636" lon="5.66299">
        <ele>642</ele>
        <time>2011-02-06T09:28:00.000Z</time>
      </trkpt>
      <trkpt lat="45.17618" lon="5.66308">
        <ele>642.79998779297</ele>
        <time>2011-02-06T09:28:06.000Z</time>
      </trkpt>
      <trkpt lat="45.17606" lon="5.66328">
        <ele>642.40002441406</ele>
        <time>2011-02-06T09:28:12.000Z</time>
      </trkpt>
      <trkpt lat="45.17598" lon="5.66347">
        <ele>640.20001220703</ele>
        <time>2011-02-06T09:28:18.000Z</time>
      </trkpt>
      <trkpt lat="45.17595" lon="5.66352">
        <ele>639.40002441406</ele>
        <time>2011-02-06T09:28:20.000Z</time>
      </trkpt>
      <trkpt lat="45.17583" lon="5.66369">
        <ele>637.59997558594</ele>
        <time>2011-02-06T09:28:27.000Z</time>
      </trkpt>
      <trkpt lat="45.17581" lon="5.66371">
        <ele>637.40002441406</ele>
        <time>2011-02-06T09:28:28.000Z</time>
      </trkpt>
      <trkpt lat="45.17563" lon="5.66385">
        <ele>637.59997558594</ele>
        <time>2011-02-06T09:28:36.000Z</time>
      </trkpt>
      <trkpt lat="45.17545" lon="5.66394">
        <ele>638.40002441406</ele>
        <time>2011-02-06T09:28:43.000Z</time>
      </trkpt>
      <trkpt lat="45.1754" lon="5.66395">
        <ele>638.79998779297</ele>
        <time>2011-02-06T09:28:45.000Z</time>
      </trkpt>
      <trkpt lat="45.17528" lon="5.66398">
        <ele>639.79998779297</ele>
        <time>2011-02-06T09:28:50.000Z</time>
      </trkpt>
      <trkpt lat="45.17522" lon="5.66398">
        <ele>640.59997558594</ele>
        <time>2011-02-06T09:28:52.000Z</time>
      </trkpt>
      <trkpt lat="45.17509" lon="5.66401">
        <ele>641.59997558594</ele>
        <time>2011-02-06T09:28:57.000Z</time>
      </trkpt>
      <trkpt lat="45.17504" lon="5.66402">
        <ele>642</ele>
        <time>2011-02-06T09:28:59.000Z</time>
      </trkpt>
      <trkpt lat="45.17493" lon="5.66404">
        <ele>641.59997558594</ele>
        <time>2011-02-06T09:29:03.000Z</time>
      </trkpt>
      <trkpt lat="45.1749" lon="5.66405">
        <ele>641.40002441406</ele>
        <time>2011-02-06T09:29:04.000Z</time>
      </trkpt>
      <trkpt lat="45.17476" lon="5.66406">
        <ele>640.40002441406</ele>
        <time>2011-02-06T09:29:09.000Z</time>
      </trkpt>
      <trkpt lat="45.1747" lon="5.66406">
        <ele>640.20001220703</ele>
        <time>2011-02-06T09:29:11.000Z</time>
      </trkpt>
      <trkpt lat="45.17459" lon="5.66402">
        <ele>640.59997558594</ele>
        <time>2011-02-06T09:29:15.000Z</time>
      </trkpt>
      <trkpt lat="45.17451" lon="5.66399">
        <ele>641.20001220703</ele>
        <time>2011-02-06T09:29:18.000Z</time>
      </trkpt>
      <trkpt lat="45.17444" lon="5.66394">
        <ele>642.20001220703</ele>
        <time>2011-02-06T09:29:21.000Z</time>
      </trkpt>
      <trkpt lat="45.17435" lon="5.66387">
        <ele>643.59997558594</ele>
        <time>2011-02-06T09:29:25.000Z</time>
      </trkpt>
      <trkpt lat="45.17428" lon="5.66381">
        <ele>644.79998779297</ele>
        <time>2011-02-06T09:29:28.000Z</time>
      </trkpt>
      <trkpt lat="45.17418" lon="5.66374">
        <ele>646.40002441406</ele>
        <time>2011-02-06T09:29:32.000Z</time>
      </trkpt>
      <trkpt lat="45.17413" lon="5.6637">
        <ele>647.59997558594</ele>
        <time>2011-02-06T09:29:34.000Z</time>
      </trkpt>
      <trkpt lat="45.17404" lon="5.66369">
        <ele>649.40002441406</ele>
        <time>2011-02-06T09:29:38.000Z</time>
      </trkpt>
      <trkpt lat="45.17402" lon="5.6637">
        <ele>649.20001220703</ele>
        <time>2011-02-06T09:29:39.000Z</time>
      </trkpt>
      <trkpt lat="45.17401" lon="5.66372">
        <ele>648.79998779297</ele>
        <time>2011-02-06T09:29:40.000Z</time>
      </trkpt>
      <trkpt lat="45.17397" lon="5.6638">
        <ele>647.59997558594</ele>
        <time>2011-02-06T09:29:43.000Z</time>
      </trkpt>
      <trkpt lat="45.17391" lon="5.66385">
        <ele>647.20001220703</ele>
        <time>2011-02-06T09:29:46.000Z</time>
      </trkpt>
      <trkpt lat="45.17387" lon="5.66388">
        <ele>646.79998779297</ele>
        <time>2011-02-06T09:29:48.000Z</time>
      </trkpt>
      <trkpt lat="45.17385" lon="5.6639">
        <ele>646.79998779297</ele>
        <time>2011-02-06T09:29:49.000Z</time>
      </trkpt>
      <trkpt lat="45.17375" lon="5.66399">
        <ele>646.20001220703</ele>
        <time>2011-02-06T09:29:54.000Z</time>
      </trkpt>
      <trkpt lat="45.1737" lon="5.66402">
        <ele>646.20001220703</ele>
        <time>2011-02-06T09:29:56.000Z</time>
      </trkpt>
      <trkpt lat="45.17362" lon="5.66408">
        <ele>646</ele>
        <time>2011-02-06T09:30:00.000Z</time>
      </trkpt>
      <trkpt lat="45.17353" lon="5.66415">
        <ele>646</ele>
        <time>2011-02-06T09:30:04.000Z</time>
      </trkpt>
      <trkpt lat="45.17348" lon="5.66418">
        <ele>646.20001220703</ele>
        <time>2011-02-06T09:30:06.000Z</time>
      </trkpt>
      <trkpt lat="45.17339" lon="5.66428">
        <ele>645.79998779297</ele>
        <time>2011-02-06T09:30:11.000Z</time>
      </trkpt>
      <trkpt lat="45.17339" lon="5.66431">
        <ele>645.20001220703</ele>
        <time>2011-02-06T09:30:12.000Z</time>
      </trkpt>
      <trkpt lat="45.17341" lon="5.66444">
        <ele>642.40002441406</ele>
        <time>2011-02-06T09:30:17.000Z</time>
      </trkpt>
      <trkpt lat="45.17343" lon="5.66457">
        <ele>639.59997558594</ele>
        <time>2011-02-06T09:30:21.000Z</time>
      </trkpt>
      <trkpt lat="45.17343" lon="5.66461">
        <ele>639</ele>
        <time>2011-02-06T09:30:22.000Z</time>
      </trkpt>
      <trkpt lat="45.17338" lon="5.66471">
        <ele>637.79998779297</ele>
        <time>2011-02-06T09:30:26.000Z</time>
      </trkpt>
      <trkpt lat="45.17336" lon="5.66473">
        <ele>637.79998779297</ele>
        <time>2011-02-06T09:30:27.000Z</time>
      </trkpt>
      <trkpt lat="45.17331" lon="5.66475">
        <ele>638</ele>
        <time>2011-02-06T09:30:29.000Z</time>
      </trkpt>
      <trkpt lat="45.17326" lon="5.66478">
        <ele>638</ele>
        <time>2011-02-06T09:30:31.000Z</time>
      </trkpt>
      <trkpt lat="45.17322" lon="5.6648">
        <ele>638</ele>
        <time>2011-02-06T09:30:33.000Z</time>
      </trkpt>
      <trkpt lat="45.17316" lon="5.66481">
        <ele>638.59997558594</ele>
        <time>2011-02-06T09:30:35.000Z</time>
      </trkpt>
      <trkpt lat="45.17313" lon="5.6648">
        <ele>639</ele>
        <time>2011-02-06T09:30:36.000Z</time>
      </trkpt>
      <trkpt lat="45.17299" lon="5.66483">
        <ele>640.20001220703</ele>
        <time>2011-02-06T09:30:41.000Z</time>
      </trkpt>
      <trkpt lat="45.17294" lon="5.66486">
        <ele>640</ele>
        <time>2011-02-06T09:30:43.000Z</time>
      </trkpt>
      <trkpt lat="45.17286" lon="5.66489">
        <ele>640</ele>
        <time>2011-02-06T09:30:46.000Z</time>
      </trkpt>
      <trkpt lat="45.17276" lon="5.6649">
        <ele>640.59997558594</ele>
        <time>2011-02-06T09:30:50.000Z</time>
      </trkpt>
      <trkpt lat="45.17271" lon="5.66491">
        <ele>641</ele>
        <time>2011-02-06T09:30:52.000Z</time>
      </trkpt>
      <trkpt lat="45.17258" lon="5.66494">
        <ele>641.20001220703</ele>
        <time>2011-02-06T09:30:57.000Z</time>
      </trkpt>
      <trkpt lat="45.17255" lon="5.66495">
        <ele>641</ele>
        <time>2011-02-06T09:30:58.000Z</time>
      </trkpt>
      <trkpt lat="45.17241" lon="5.66504">
        <ele>641.20001220703</ele>
        <time>2011-02-06T09:31:04.000Z</time>
      </trkpt>
      <trkpt lat="45.17239" lon="5.66506">
        <ele>641.59997558594</ele>
        <time>2011-02-06T09:31:05.000Z</time>
      </trkpt>
      <trkpt lat="45.17226" lon="5.66512">
        <ele>643.59997558594</ele>
        <time>2011-02-06T09:31:10.000Z</time>
      </trkpt>
      <trkpt lat="45.17221" lon="5.66518">
        <ele>644</ele>
        <time>2011-02-06T09:31:13.000Z</time>
      </trkpt>
      <trkpt lat="45.17211" lon="5.66531">
        <ele>644.20001220703</ele>
        <time>2011-02-06T09:31:18.000Z</time>
      </trkpt>
      <trkpt lat="45.17208" lon="5.66538">
        <ele>643.59997558594</ele>
        <time>2011-02-06T09:31:20.000Z</time>
      </trkpt>
      <trkpt lat="45.17204" lon="5.66551">
        <ele>642.20001220703</ele>
        <time>2011-02-06T09:31:24.000Z</time>
      </trkpt>
      <trkpt lat="45.17201" lon="5.66563">
        <ele>641</ele>
        <time>2011-02-06T09:31:27.000Z</time>
      </trkpt>
      <trkpt lat="45.172" lon="5.66566">
        <ele>640.59997558594</ele>
        <time>2011-02-06T09:31:28.000Z</time>
      </trkpt>
      <trkpt lat="45.17198" lon="5.66581">
        <ele>638.79998779297</ele>
        <time>2011-02-06T09:31:33.000Z</time>
      </trkpt>
      <trkpt lat="45.17197" lon="5.66588">
        <ele>638.20001220703</ele>
        <time>2011-02-06T09:31:36.000Z</time>
      </trkpt>
      <trkpt lat="45.17195" lon="5.66596">
        <ele>637.79998779297</ele>
        <time>2011-02-06T09:31:40.000Z</time>
      </trkpt>
      <trkpt lat="45.17194" lon="5.66606">
        <ele>637.20001220703</ele>
        <time>2011-02-06T09:31:46.000Z</time>
      </trkpt>
      <trkpt lat="45.17192" lon="5.66614">
        <ele>637</ele>
        <time>2011-02-06T09:31:48.000Z</time>
      </trkpt>
      <trkpt lat="45.17188" lon="5.6663">
        <ele>636.59997558594</ele>
        <time>2011-02-06T09:31:52.000Z</time>
      </trkpt>
      <trkpt lat="45.17185" lon="5.66642">
        <ele>636.40002441406</ele>
        <time>2011-02-06T09:31:55.000Z</time>
      </trkpt>
      <trkpt lat="45.17183" lon="5.66649">
        <ele>636.20001220703</ele>
        <time>2011-02-06T09:31:57.000Z</time>
      </trkpt>
      <trkpt lat="45.17181" lon="5.66668">
        <ele>635.40002441406</ele>
        <time>2011-02-06T09:32:02.000Z</time>
      </trkpt>
      <trkpt lat="45.17181" lon="5.66672">
        <ele>635.59997558594</ele>
        <time>2011-02-06T09:32:03.000Z</time>
      </trkpt>
      <trkpt lat="45.17178" lon="5.66694">
        <ele>638</ele>
        <time>2011-02-06T09:32:09.000Z</time>
      </trkpt>
      <trkpt lat="45.17177" lon="5.66696">
        <ele>638.40002441406</ele>
        <time>2011-02-06T09:32:10.000Z</time>
      </trkpt>
      <trkpt lat="45.17176" lon="5.66713">
        <ele>639.59997558594</ele>
        <time>2011-02-06T09:32:16.000Z</time>
      </trkpt>
      <trkpt lat="45.17179" lon="5.66718">
        <ele>639.20001220703</ele>
        <time>2011-02-06T09:32:18.000Z</time>
      </trkpt>
      <trkpt lat="45.17186" lon="5.66725">
        <ele>637.59997558594</ele>
        <time>2011-02-06T09:32:22.000Z</time>
      </trkpt>
      <trkpt lat="45.17189" lon="5.66731">
        <ele>637.40002441406</ele>
        <time>2011-02-06T09:32:24.000Z</time>
      </trkpt>
      <trkpt lat="45.17187" lon="5.66737">
        <ele>638</ele>
        <time>2011-02-06T09:32:26.000Z</time>
      </trkpt>
      <trkpt lat="45.1718" lon="5.66736">
        <ele>640</ele>
        <time>2011-02-06T09:32:29.000Z</time>
      </trkpt>
      <trkpt lat="45.17168" lon="5.66737">
        <ele>643</ele>
        <time>2011-02-06T09:32:34.000Z</time>
      </trkpt>
      <trkpt lat="45.17166" lon="5.66738">
        <ele>643.20001220703</ele>
        <time>2011-02-06T09:32:35.000Z</time>
      </trkpt>
      <trkpt lat="45.17151" lon="5.66746">
        <ele>640.79998779297</ele>
        <time>2011-02-06T09:32:42.000Z</time>
      </trkpt>
      <trkpt lat="45.17149" lon="5.66747">
        <ele>640.40002441406</ele>
        <time>2011-02-06T09:32:43.000Z</time>
      </trkpt>
      <trkpt lat="45.17141" lon="5.66756">
        <ele>638.59997558594</ele>
        <time>2011-02-06T09:32:48.000Z</time>
      </trkpt>
      <trkpt lat="45.17141" lon="5.66762">
        <ele>638.20001220703</ele>
        <time>2011-02-06T09:32:50.000Z</time>
      </trkpt>
      <trkpt lat="45.17143" lon="5.66766">
        <ele>638.40002441406</ele>
        <time>2011-02-06T09:32:52.000Z</time>
      </trkpt>
      <trkpt lat="45.17144" lon="5.66768">
        <ele>638.59997558594</ele>
        <time>2011-02-06T09:32:53.000Z</time>
      </trkpt>
      <trkpt lat="45.1715" lon="5.66772">
        <ele>640</ele>
        <time>2011-02-06T09:32:57.000Z</time>
      </trkpt>
      <trkpt lat="45.17152" lon="5.66774">
        <ele>640.40002441406</ele>
        <time>2011-02-06T09:32:58.000Z</time>
      </trkpt>
      <trkpt lat="45.17161" lon="5.66779">
        <ele>642.40002441406</ele>
        <time>2011-02-06T09:33:04.000Z</time>
      </trkpt>
      <trkpt lat="45.17166" lon="5.6678">
        <ele>643.79998779297</ele>
        <time>2011-02-06T09:33:07.000Z</time>
      </trkpt>
      <trkpt lat="45.17173" lon="5.66784">
        <ele>643.20001220703</ele>
        <time>2011-02-06T09:33:11.000Z</time>
      </trkpt>
      <trkpt lat="45.17174" lon="5.66787">
        <ele>643.20001220703</ele>
        <time>2011-02-06T09:33:12.000Z</time>
      </trkpt>
      <trkpt lat="45.17174" lon="5.6679">
        <ele>643.40002441406</ele>
        <time>2011-02-06T09:33:13.000Z</time>
      </trkpt>
      <trkpt lat="45.17177" lon="5.66806">
        <ele>643.79998779297</ele>
        <time>2011-02-06T09:33:19.000Z</time>
      </trkpt>
      <trkpt lat="45.17177" lon="5.66807">
        <ele>643.79998779297</ele>
        <time>2011-02-06T09:33:20.000Z</time>
      </trkpt>
      <trkpt lat="45.17182" lon="5.6681">
        <ele>644</ele>
        <time>2011-02-06T09:33:24.000Z</time>
      </trkpt>
      <trkpt lat="45.17196" lon="5.6682">
        <ele>645.40002441406</ele>
        <time>2011-02-06T09:33:31.000Z</time>
      </trkpt>
      <trkpt lat="45.17199" lon="5.66825">
        <ele>646.20001220703</ele>
        <time>2011-02-06T09:33:33.000Z</time>
      </trkpt>
      <trkpt lat="45.17204" lon="5.66833">
        <ele>647.79998779297</ele>
        <time>2011-02-06T09:33:36.000Z</time>
      </trkpt>
      <trkpt lat="45.17206" lon="5.66835">
        <ele>647.79998779297</ele>
        <time>2011-02-06T09:33:37.000Z</time>
      </trkpt>
      <trkpt lat="45.17212" lon="5.66843">
        <ele>645.79998779297</ele>
        <time>2011-02-06T09:33:41.000Z</time>
      </trkpt>
      <trkpt lat="45.17216" lon="5.66848">
        <ele>644.59997558594</ele>
        <time>2011-02-06T09:33:43.000Z</time>
      </trkpt>
      <trkpt lat="45.17219" lon="5.66858">
        <ele>642.20001220703</ele>
        <time>2011-02-06T09:33:48.000Z</time>
      </trkpt>
      <trkpt lat="45.17221" lon="5.66862">
        <ele>641.20001220703</ele>
        <time>2011-02-06T09:33:51.000Z</time>
      </trkpt>
      <trkpt lat="45.17221" lon="5.66865">
        <ele>640.20001220703</ele>
        <time>2011-02-06T09:33:54.000Z</time>
      </trkpt>
      <trkpt lat="45.17224" lon="5.66866">
        <ele>640.40002441406</ele>
        <time>2011-02-06T09:33:58.000Z</time>
      </trkpt>
      <trkpt lat="45.17226" lon="5.66867">
        <ele>640.40002441406</ele>
        <time>2011-02-06T09:33:59.000Z</time>
      </trkpt>
      <trkpt lat="45.17226" lon="5.66868">
        <ele>640.20001220703</ele>
        <time>2011-02-06T09:34:00.000Z</time>
      </trkpt>
      <trkpt lat="45.17227" lon="5.66869">
        <ele>640</ele>
        <time>2011-02-06T09:34:06.000Z</time>
      </trkpt>
      <trkpt lat="45.17228" lon="5.66869">
        <ele>640</ele>
        <time>2011-02-06T09:34:10.000Z</time>
      </trkpt>
      <trkpt lat="45.17226" lon="5.66869">
        <ele>640</ele>
        <time>2011-02-06T09:34:26.000Z</time>
      </trkpt>
      <trkpt lat="45.17226" lon="5.66868">
        <ele>640</ele>
        <time>2011-02-06T09:34:34.000Z</time>
      </trkpt>
      <trkpt lat="45.17225" lon="5.66868">
        <ele>640.20001220703</ele>
        <time>2011-02-06T09:34:42.000Z</time>
      </trkpt>
      <trkpt lat="45.17224" lon="5.66867">
        <ele>640.20001220703</ele>
        <time>2011-02-06T09:35:16.000Z</time>
      </trkpt>
      <trkpt lat="45.17224" lon="5.66867">
        <ele>640.20001220703</ele>
        <time>2011-02-06T09:35:25.000Z</time>
      </trkpt>
      <trkpt lat="45.17224" lon="5.66868">
        <ele>639.79998779297</ele>
        <time>2011-02-06T09:36:06.000Z</time>
      </trkpt>
      <trkpt lat="45.17226" lon="5.66867">
        <ele>640.40002441406</ele>
        <time>2011-02-06T09:36:16.000Z</time>
      </trkpt>
      <trkpt lat="45.17227" lon="5.66864">
        <ele>641.59997558594</ele>
        <time>2011-02-06T09:36:18.000Z</time>
      </trkpt>
      <trkpt lat="45.17225" lon="5.66852">
        <ele>644.59997558594</ele>
        <time>2011-02-06T09:36:24.000Z</time>
      </trkpt>
      <trkpt lat="45.17225" lon="5.66846">
        <ele>646.59997558594</ele>
        <time>2011-02-06T09:36:28.000Z</time>
      </trkpt>
      <trkpt lat="45.17226" lon="5.66844">
        <ele>647</ele>
        <time>2011-02-06T09:36:30.000Z</time>
      </trkpt>
      <trkpt lat="45.17227" lon="5.66846">
        <ele>646.59997558594</ele>
        <time>2011-02-06T09:36:36.000Z</time>
      </trkpt>
      <trkpt lat="45.17225" lon="5.66846">
        <ele>646.59997558594</ele>
        <time>2011-02-06T09:37:13.000Z</time>
      </trkpt>
      <trkpt lat="45.17226" lon="5.66845">
        <ele>646.79998779297</ele>
        <time>2011-02-06T09:37:14.000Z</time>
      </trkpt>
      <trkpt lat="45.17227" lon="5.66844">
        <ele>647.20001220703</ele>
        <time>2011-02-06T09:37:16.000Z</time>
      </trkpt>
      <trkpt lat="45.17229" lon="5.66846">
        <ele>647</ele>
        <time>2011-02-06T09:37:41.000Z</time>
      </trkpt>
      <trkpt lat="45.17229" lon="5.66845">
        <ele>647.20001220703</ele>
        <time>2011-02-06T09:37:46.000Z</time>
      </trkpt>
      <trkpt lat="45.17226" lon="5.66846">
        <ele>646.40002441406</ele>
        <time>2011-02-06T09:38:30.000Z</time>
      </trkpt>
      <trkpt lat="45.17228" lon="5.66845">
        <ele>647</ele>
        <time>2011-02-06T09:38:37.000Z</time>
      </trkpt>
      <trkpt lat="45.17229" lon="5.66846">
        <ele>647</ele>
        <time>2011-02-06T09:38:38.000Z</time>
      </trkpt>
      <trkpt lat="45.17231" lon="5.66852">
        <ele>645.40002441406</ele>
        <time>2011-02-06T09:38:41.000Z</time>
      </trkpt>
      <trkpt lat="45.17229" lon="5.66857">
        <ele>643.79998779297</ele>
        <time>2011-02-06T09:38:44.000Z</time>
      </trkpt>
      <trkpt lat="45.17228" lon="5.6686">
        <ele>642.59997558594</ele>
        <time>2011-02-06T09:38:47.000Z</time>
      </trkpt>
      <trkpt lat="45.17227" lon="5.66863">
        <ele>641.59997558594</ele>
        <time>2011-02-06T09:38:49.000Z</time>
      </trkpt>
      <trkpt lat="45.17226" lon="5.66868">
        <ele>640</ele>
        <time>2011-02-06T09:38:53.000Z</time>
      </trkpt>
      <trkpt lat="45.17224" lon="5.66868">
        <ele>639.79998779297</ele>
        <time>2011-02-06T09:38:58.000Z</time>
      </trkpt>
      <trkpt lat="45.17225" lon="5.66866">
        <ele>640.40002441406</ele>
        <time>2011-02-06T09:39:27.000Z</time>
      </trkpt>
      <trkpt lat="45.17223" lon="5.66867">
        <ele>640</ele>
        <time>2011-02-06T09:39:31.000Z</time>
      </trkpt>
      <trkpt lat="45.17224" lon="5.66868">
        <ele>639.79998779297</ele>
        <time>2011-02-06T09:39:40.000Z</time>
      </trkpt>
      <trkpt lat="45.17222" lon="5.66867">
        <ele>640</ele>
        <time>2011-02-06T09:40:30.000Z</time>
      </trkpt>
      <trkpt lat="45.17221" lon="5.66865">
        <ele>640.40002441406</ele>
        <time>2011-02-06T09:40:32.000Z</time>
      </trkpt>
      <trkpt lat="45.17218" lon="5.66861">
        <ele>641.20001220703</ele>
        <time>2011-02-06T09:40:36.000Z</time>
      </trkpt>
      <trkpt lat="45.17218" lon="5.6686">
        <ele>641.40002441406</ele>
        <time>2011-02-06T09:40:37.000Z</time>
      </trkpt>
      <trkpt lat="45.17214" lon="5.66857">
        <ele>641.79998779297</ele>
        <time>2011-02-06T09:40:42.000Z</time>
      </trkpt>
      <trkpt lat="45.17202" lon="5.66851">
        <ele>642.40002441406</ele>
        <time>2011-02-06T09:40:47.000Z</time>
      </trkpt>
      <trkpt lat="45.17196" lon="5.66847">
        <ele>642.79998779297</ele>
        <time>2011-02-06T09:40:50.000Z</time>
      </trkpt>
      <trkpt lat="45.17192" lon="5.66845">
        <ele>642.79998779297</ele>
        <time>2011-02-06T09:40:52.000Z</time>
      </trkpt>
      <trkpt lat="45.17181" lon="5.66838">
        <ele>644</ele>
        <time>2011-02-06T09:40:57.000Z</time>
      </trkpt>
      <trkpt lat="45.17179" lon="5.66836">
        <ele>644.40002441406</ele>
        <time>2011-02-06T09:40:58.000Z</time>
      </trkpt>
      <trkpt lat="45.1717" lon="5.66824">
        <ele>644.20001220703</ele>
        <time>2011-02-06T09:41:03.000Z</time>
      </trkpt>
      <trkpt lat="45.17166" lon="5.66818">
        <ele>643.79998779297</ele>
        <time>2011-02-06T09:41:05.000Z</time>
      </trkpt>
      <trkpt lat="45.17165" lon="5.66807">
        <ele>643.40002441406</ele>
        <time>2011-02-06T09:41:08.000Z</time>
      </trkpt>
      <trkpt lat="45.17164" lon="5.66803">
        <ele>643.20001220703</ele>
        <time>2011-02-06T09:41:09.000Z</time>
      </trkpt>
      <trkpt lat="45.17164" lon="5.6679">
        <ele>643.20001220703</ele>
        <time>2011-02-06T09:41:13.000Z</time>
      </trkpt>
      <trkpt lat="45.17163" lon="5.66787">
        <ele>643</ele>
        <time>2011-02-06T09:41:14.000Z</time>
      </trkpt>
      <trkpt lat="45.17154" lon="5.66778">
        <ele>641</ele>
        <time>2011-02-06T09:41:19.000Z</time>
      </trkpt>
      <trkpt lat="45.1715" lon="5.66775">
        <ele>639.79998779297</ele>
        <time>2011-02-06T09:41:21.000Z</time>
      </trkpt>
      <trkpt lat="45.17141" lon="5.66767">
        <ele>638.20001220703</ele>
        <time>2011-02-06T09:41:25.000Z</time>
      </trkpt>
      <trkpt lat="45.17142" lon="5.66755">
        <ele>638.79998779297</ele>
        <time>2011-02-06T09:41:28.000Z</time>
      </trkpt>
      <trkpt lat="45.17144" lon="5.66751">
        <ele>639.20001220703</ele>
        <time>2011-02-06T09:41:29.000Z</time>
      </trkpt>
      <trkpt lat="45.17148" lon="5.66747">
        <ele>640.20001220703</ele>
        <time>2011-02-06T09:41:31.000Z</time>
      </trkpt>
      <trkpt lat="45.17156" lon="5.66742">
        <ele>641.59997558594</ele>
        <time>2011-02-06T09:41:34.000Z</time>
      </trkpt>
      <trkpt lat="45.17158" lon="5.66741">
        <ele>642</ele>
        <time>2011-02-06T09:41:35.000Z</time>
      </trkpt>
      <trkpt lat="45.17171" lon="5.66733">
        <ele>642</ele>
        <time>2011-02-06T09:41:41.000Z</time>
      </trkpt>
      <trkpt lat="45.17176" lon="5.66732">
        <ele>640.59997558594</ele>
        <time>2011-02-06T09:41:43.000Z</time>
      </trkpt>
      <trkpt lat="45.17184" lon="5.66733">
        <ele>638.79998779297</ele>
        <time>2011-02-06T09:41:46.000Z</time>
      </trkpt>
      <trkpt lat="45.17186" lon="5.66733">
        <ele>638.20001220703</ele>
        <time>2011-02-06T09:41:47.000Z</time>
      </trkpt>
      <trkpt lat="45.17187" lon="5.66729">
        <ele>637.59997558594</ele>
        <time>2011-02-06T09:41:49.000Z</time>
      </trkpt>
      <trkpt lat="45.17185" lon="5.66726">
        <ele>638</ele>
        <time>2011-02-06T09:41:51.000Z</time>
      </trkpt>
      <trkpt lat="45.17182" lon="5.66724">
        <ele>638.59997558594</ele>
        <time>2011-02-06T09:41:52.000Z</time>
      </trkpt>
      <trkpt lat="45.1718" lon="5.66723">
        <ele>639.20001220703</ele>
        <time>2011-02-06T09:41:53.000Z</time>
      </trkpt>
      <trkpt lat="45.1717" lon="5.66711">
        <ele>641</ele>
        <time>2011-02-06T09:41:57.000Z</time>
      </trkpt>
      <trkpt lat="45.17167" lon="5.66706">
        <ele>641.59997558594</ele>
        <time>2011-02-06T09:41:59.000Z</time>
      </trkpt>
      <trkpt lat="45.17165" lon="5.66707">
        <ele>641.79998779297</ele>
        <time>2011-02-06T09:42:01.000Z</time>
      </trkpt>
      <trkpt lat="45.17161" lon="5.66716">
        <ele>641.59997558594</ele>
        <time>2011-02-06T09:42:04.000Z</time>
      </trkpt>
      <trkpt lat="45.17156" lon="5.66721">
        <ele>641.20001220703</ele>
        <time>2011-02-06T09:42:06.000Z</time>
      </trkpt>
      <trkpt lat="45.17154" lon="5.66723">
        <ele>641</ele>
        <time>2011-02-06T09:42:07.000Z</time>
      </trkpt>
      <trkpt lat="45.1714" lon="5.66725">
        <ele>639.20001220703</ele>
        <time>2011-02-06T09:42:12.000Z</time>
      </trkpt>
      <trkpt lat="45.17133" lon="5.66723">
        <ele>638.40002441406</ele>
        <time>2011-02-06T09:42:14.000Z</time>
      </trkpt>
      <trkpt lat="45.1712" lon="5.66717">
        <ele>637.40002441406</ele>
        <time>2011-02-06T09:42:18.000Z</time>
      </trkpt>
      <trkpt lat="45.17115" lon="5.66713">
        <ele>637.40002441406</ele>
        <time>2011-02-06T09:42:20.000Z</time>
      </trkpt>
      <trkpt lat="45.17104" lon="5.66706">
        <ele>637.40002441406</ele>
        <time>2011-02-06T09:42:24.000Z</time>
      </trkpt>
      <trkpt lat="45.17097" lon="5.66702">
        <ele>637.59997558594</ele>
        <time>2011-02-06T09:42:27.000Z</time>
      </trkpt>
      <trkpt lat="45.17092" lon="5.66699">
        <ele>637.79998779297</ele>
        <time>2011-02-06T09:42:29.000Z</time>
      </trkpt>
      <trkpt lat="45.17078" lon="5.66691">
        <ele>639</ele>
        <time>2011-02-06T09:42:34.000Z</time>
      </trkpt>
      <trkpt lat="45.17075" lon="5.6669">
        <ele>639.20001220703</ele>
        <time>2011-02-06T09:42:35.000Z</time>
      </trkpt>
      <trkpt lat="45.1706" lon="5.66688">
        <ele>639.79998779297</ele>
        <time>2011-02-06T09:42:40.000Z</time>
      </trkpt>
      <trkpt lat="45.17057" lon="5.66689">
        <ele>639.59997558594</ele>
        <time>2011-02-06T09:42:41.000Z</time>
      </trkpt>
      <trkpt lat="45.17043" lon="5.66692">
        <ele>638.79998779297</ele>
        <time>2011-02-06T09:42:46.000Z</time>
      </trkpt>
      <trkpt lat="45.17037" lon="5.66693">
        <ele>638.40002441406</ele>
        <time>2011-02-06T09:42:48.000Z</time>
      </trkpt>
      <trkpt lat="45.17021" lon="5.66695">
        <ele>637.40002441406</ele>
        <time>2011-02-06T09:42:53.000Z</time>
      </trkpt>
      <trkpt lat="45.17018" lon="5.66696">
        <ele>637.20001220703</ele>
        <time>2011-02-06T09:42:54.000Z</time>
      </trkpt>
      <trkpt lat="45.17002" lon="5.66699">
        <ele>635.79998779297</ele>
        <time>2011-02-06T09:42:59.000Z</time>
      </trkpt>
      <trkpt lat="45.17" lon="5.667">
        <ele>635.40002441406</ele>
        <time>2011-02-06T09:43:00.000Z</time>
      </trkpt>
      <trkpt lat="45.16984" lon="5.66705">
        <ele>635.20001220703</ele>
        <time>2011-02-06T09:43:05.000Z</time>
      </trkpt>
      <trkpt lat="45.16981" lon="5.66707">
        <ele>634.59997558594</ele>
        <time>2011-02-06T09:43:06.000Z</time>
      </trkpt>
      <trkpt lat="45.16967" lon="5.66718">
        <ele>631</ele>
        <time>2011-02-06T09:43:11.000Z</time>
      </trkpt>
      <trkpt lat="45.16965" lon="5.66721">
        <ele>630.20001220703</ele>
        <time>2011-02-06T09:43:12.000Z</time>
      </trkpt>
      <trkpt lat="45.16952" lon="5.66733">
        <ele>626.20001220703</ele>
        <time>2011-02-06T09:43:17.000Z</time>
      </trkpt>
      <trkpt lat="45.1695" lon="5.66736">
        <ele>624.79998779297</ele>
        <time>2011-02-06T09:43:18.000Z</time>
      </trkpt>
      <trkpt lat="45.16936" lon="5.66749">
        <ele>620</ele>
        <time>2011-02-06T09:43:23.000Z</time>
      </trkpt>
      <trkpt lat="45.16934" lon="5.66752">
        <ele>619</ele>
        <time>2011-02-06T09:43:24.000Z</time>
      </trkpt>
      <trkpt lat="45.16921" lon="5.66765">
        <ele>615.20001220703</ele>
        <time>2011-02-06T09:43:29.000Z</time>
      </trkpt>
      <trkpt lat="45.16918" lon="5.66768">
        <ele>614.40002441406</ele>
        <time>2011-02-06T09:43:30.000Z</time>
      </trkpt>
      <trkpt lat="45.16911" lon="5.66776">
        <ele>612.20001220703</ele>
        <time>2011-02-06T09:43:33.000Z</time>
      </trkpt>
      <trkpt lat="45.16902" lon="5.66781">
        <ele>610.59997558594</ele>
        <time>2011-02-06T09:43:36.000Z</time>
      </trkpt>
      <trkpt lat="45.16893" lon="5.66786">
        <ele>609</ele>
        <time>2011-02-06T09:43:39.000Z</time>
      </trkpt>
      <trkpt lat="45.16884" lon="5.66788">
        <ele>608.20001220703</ele>
        <time>2011-02-06T09:43:42.000Z</time>
      </trkpt>
      <trkpt lat="45.1688" lon="5.66789">
        <ele>608.20001220703</ele>
        <time>2011-02-06T09:43:44.000Z</time>
      </trkpt>
      <trkpt lat="45.16875" lon="5.66791">
        <ele>607.40002441406</ele>
        <time>2011-02-06T09:43:49.000Z</time>
      </trkpt>
      <trkpt lat="45.16873" lon="5.66792">
        <ele>607.20001220703</ele>
        <time>2011-02-06T09:43:50.000Z</time>
      </trkpt>
      <trkpt lat="45.16868" lon="5.66794">
        <ele>606.20001220703</ele>
        <time>2011-02-06T09:43:53.000Z</time>
      </trkpt>
      <trkpt lat="45.16865" lon="5.66795">
        <ele>606</ele>
        <time>2011-02-06T09:43:54.000Z</time>
      </trkpt>
      <trkpt lat="45.16853" lon="5.66799">
        <ele>604.79998779297</ele>
        <time>2011-02-06T09:43:59.000Z</time>
      </trkpt>
      <trkpt lat="45.16847" lon="5.66801">
        <ele>604.20001220703</ele>
        <time>2011-02-06T09:44:01.000Z</time>
      </trkpt>
      <trkpt lat="45.16838" lon="5.66801">
        <ele>604.40002441406</ele>
        <time>2011-02-06T09:44:04.000Z</time>
      </trkpt>
      <trkpt lat="45.16828" lon="5.66797">
        <ele>606</ele>
        <time>2011-02-06T09:44:08.000Z</time>
      </trkpt>
      <trkpt lat="45.16817" lon="5.66792">
        <ele>607.40002441406</ele>
        <time>2011-02-06T09:44:13.000Z</time>
      </trkpt>
      <trkpt lat="45.16808" lon="5.66791">
        <ele>607.79998779297</ele>
        <time>2011-02-06T09:44:16.000Z</time>
      </trkpt>
      <trkpt lat="45.16805" lon="5.66792">
        <ele>607.59997558594</ele>
        <time>2011-02-06T09:44:17.000Z</time>
      </trkpt>
      <trkpt lat="45.16799" lon="5.66793">
        <ele>607</ele>
        <time>2011-02-06T09:44:19.000Z</time>
      </trkpt>
      <trkpt lat="45.16791" lon="5.66798">
        <ele>605.40002441406</ele>
        <time>2011-02-06T09:44:22.000Z</time>
      </trkpt>
      <trkpt lat="45.16788" lon="5.66802">
        <ele>604.20001220703</ele>
        <time>2011-02-06T09:44:23.000Z</time>
      </trkpt>
      <trkpt lat="45.16775" lon="5.66812">
        <ele>601</ele>
        <time>2011-02-06T09:44:27.000Z</time>
      </trkpt>
      <trkpt lat="45.1677" lon="5.66816">
        <ele>600.20001220703</ele>
        <time>2011-02-06T09:44:29.000Z</time>
      </trkpt>
      <trkpt lat="45.16767" lon="5.66817">
        <ele>599.79998779297</ele>
        <time>2011-02-06T09:44:30.000Z</time>
      </trkpt>
      <trkpt lat="45.16764" lon="5.6682">
        <ele>599</ele>
        <time>2011-02-06T09:44:32.000Z</time>
      </trkpt>
      <trkpt lat="45.16768" lon="5.66825">
        <ele>597.40002441406</ele>
        <time>2011-02-06T09:44:36.000Z</time>
      </trkpt>
      <trkpt lat="45.1677" lon="5.66826">
        <ele>597.20001220703</ele>
        <time>2011-02-06T09:44:37.000Z</time>
      </trkpt>
      <trkpt lat="45.16774" lon="5.66828">
        <ele>596.40002441406</ele>
        <time>2011-02-06T09:44:39.000Z</time>
      </trkpt>
      <trkpt lat="45.16777" lon="5.66829">
        <ele>596</ele>
        <time>2011-02-06T09:44:40.000Z</time>
      </trkpt>
      <trkpt lat="45.16792" lon="5.66832">
        <ele>594.20001220703</ele>
        <time>2011-02-06T09:44:45.000Z</time>
      </trkpt>
      <trkpt lat="45.16796" lon="5.66835">
        <ele>593.20001220703</ele>
        <time>2011-02-06T09:44:46.000Z</time>
      </trkpt>
      <trkpt lat="45.16802" lon="5.6684">
        <ele>590.79998779297</ele>
        <time>2011-02-06T09:44:48.000Z</time>
      </trkpt>
      <trkpt lat="45.1681" lon="5.66848">
        <ele>587.59997558594</ele>
        <time>2011-02-06T09:44:51.000Z</time>
      </trkpt>
      <trkpt lat="45.16818" lon="5.6685">
        <ele>586.40002441406</ele>
        <time>2011-02-06T09:44:53.000Z</time>
      </trkpt>
      <trkpt lat="45.16829" lon="5.66855">
        <ele>584</ele>
        <time>2011-02-06T09:44:57.000Z</time>
      </trkpt>
      <trkpt lat="45.16843" lon="5.66859">
        <ele>582.79998779297</ele>
        <time>2011-02-06T09:45:02.000Z</time>
      </trkpt>
      <trkpt lat="45.16846" lon="5.6686">
        <ele>582.40002441406</ele>
        <time>2011-02-06T09:45:03.000Z</time>
      </trkpt>
      <trkpt lat="45.1685" lon="5.66861">
        <ele>582.20001220703</ele>
        <time>2011-02-06T09:45:04.000Z</time>
      </trkpt>
      <trkpt lat="45.16867" lon="5.66862">
        <ele>582.40002441406</ele>
        <time>2011-02-06T09:45:09.000Z</time>
      </trkpt>
      <trkpt lat="45.1687" lon="5.66862">
        <ele>582.40002441406</ele>
        <time>2011-02-06T09:45:10.000Z</time>
      </trkpt>
      <trkpt lat="45.1688" lon="5.66862">
        <ele>582.59997558594</ele>
        <time>2011-02-06T09:45:13.000Z</time>
      </trkpt>
      <trkpt lat="45.16884" lon="5.66863">
        <ele>582.59997558594</ele>
        <time>2011-02-06T09:45:14.000Z</time>
      </trkpt>
      <trkpt lat="45.1689" lon="5.66864">
        <ele>582.40002441406</ele>
        <time>2011-02-06T09:45:16.000Z</time>
      </trkpt>
      <trkpt lat="45.169" lon="5.66866">
        <ele>582.40002441406</ele>
        <time>2011-02-06T09:45:20.000Z</time>
      </trkpt>
      <trkpt lat="45.1691" lon="5.66867">
        <ele>582.40002441406</ele>
        <time>2011-02-06T09:45:24.000Z</time>
      </trkpt>
      <trkpt lat="45.16917" lon="5.66867">
        <ele>582.59997558594</ele>
        <time>2011-02-06T09:45:26.000Z</time>
      </trkpt>
      <trkpt lat="45.16921" lon="5.66868">
        <ele>582.20001220703</ele>
        <time>2011-02-06T09:45:28.000Z</time>
      </trkpt>
      <trkpt lat="45.16924" lon="5.66874">
        <ele>580.59997558594</ele>
        <time>2011-02-06T09:45:30.000Z</time>
      </trkpt>
      <trkpt lat="45.16926" lon="5.66877">
        <ele>579.79998779297</ele>
        <time>2011-02-06T09:45:31.000Z</time>
      </trkpt>
      <trkpt lat="45.16933" lon="5.66886">
        <ele>577</ele>
        <time>2011-02-06T09:45:34.000Z</time>
      </trkpt>
      <trkpt lat="45.1694" lon="5.66893">
        <ele>575</ele>
        <time>2011-02-06T09:45:37.000Z</time>
      </trkpt>
      <trkpt lat="45.16942" lon="5.66895">
        <ele>574.20001220703</ele>
        <time>2011-02-06T09:45:38.000Z</time>
      </trkpt>
      <trkpt lat="45.16945" lon="5.66898">
        <ele>573.20001220703</ele>
        <time>2011-02-06T09:45:41.000Z</time>
      </trkpt>
      <trkpt lat="45.16945" lon="5.66899">
        <ele>573.20001220703</ele>
        <time>2011-02-06T09:45:42.000Z</time>
      </trkpt>
      <trkpt lat="45.16949" lon="5.66903">
        <ele>571.79998779297</ele>
        <time>2011-02-06T09:45:46.000Z</time>
      </trkpt>
      <trkpt lat="45.16949" lon="5.66906">
        <ele>571</ele>
        <time>2011-02-06T09:45:47.000Z</time>
      </trkpt>
      <trkpt lat="45.1695" lon="5.66912">
        <ele>569.40002441406</ele>
        <time>2011-02-06T09:45:51.000Z</time>
      </trkpt>
      <trkpt lat="45.1695" lon="5.66913">
        <ele>569</ele>
        <time>2011-02-06T09:45:52.000Z</time>
      </trkpt>
      <trkpt lat="45.16948" lon="5.66919">
        <ele>567.59997558594</ele>
        <time>2011-02-06T09:45:55.000Z</time>
      </trkpt>
      <trkpt lat="45.16943" lon="5.66928">
        <ele>565.40002441406</ele>
        <time>2011-02-06T09:45:59.000Z</time>
      </trkpt>
      <trkpt lat="45.1694" lon="5.66933">
        <ele>564.20001220703</ele>
        <time>2011-02-06T09:46:01.000Z</time>
      </trkpt>
      <trkpt lat="45.16937" lon="5.66938">
        <ele>563</ele>
        <time>2011-02-06T09:46:03.000Z</time>
      </trkpt>
      <trkpt lat="45.16935" lon="5.6694">
        <ele>562.40002441406</ele>
        <time>2011-02-06T09:46:04.000Z</time>
      </trkpt>
      <trkpt lat="45.16933" lon="5.66941">
        <ele>562.20001220703</ele>
        <time>2011-02-06T09:46:05.000Z</time>
      </trkpt>
      <trkpt lat="45.16932" lon="5.66944">
        <ele>561.59997558594</ele>
        <time>2011-02-06T09:46:07.000Z</time>
      </trkpt>
      <trkpt lat="45.16935" lon="5.66945">
        <ele>561.20001220703</ele>
        <time>2011-02-06T09:46:09.000Z</time>
      </trkpt>
      <trkpt lat="45.16939" lon="5.66947">
        <ele>560.59997558594</ele>
        <time>2011-02-06T09:46:11.000Z</time>
      </trkpt>
      <trkpt lat="45.16949" lon="5.66954">
        <ele>558.79998779297</ele>
        <time>2011-02-06T09:46:15.000Z</time>
      </trkpt>
      <trkpt lat="45.16949" lon="5.66957">
        <ele>558.20001220703</ele>
        <time>2011-02-06T09:46:16.000Z</time>
      </trkpt>
      <trkpt lat="45.1695" lon="5.66964">
        <ele>556.20001220703</ele>
        <time>2011-02-06T09:46:19.000Z</time>
      </trkpt>
      <trkpt lat="45.16947" lon="5.66968">
        <ele>555.20001220703</ele>
        <time>2011-02-06T09:46:21.000Z</time>
      </trkpt>
      <trkpt lat="45.1694" lon="5.6697">
        <ele>554.79998779297</ele>
        <time>2011-02-06T09:46:25.000Z</time>
      </trkpt>
      <trkpt lat="45.16937" lon="5.66974">
        <ele>553.79998779297</ele>
        <time>2011-02-06T09:46:35.000Z</time>
      </trkpt>
      <trkpt lat="45.16933" lon="5.66974">
        <ele>553.79998779297</ele>
        <time>2011-02-06T09:46:54.000Z</time>
      </trkpt>
      <trkpt lat="45.16929" lon="5.66974">
        <ele>553.59997558594</ele>
        <time>2011-02-06T09:46:56.000Z</time>
      </trkpt>
      <trkpt lat="45.16918" lon="5.66973">
        <ele>554</ele>
        <time>2011-02-06T09:47:02.000Z</time>
      </trkpt>
      <trkpt lat="45.16913" lon="5.66972">
        <ele>553.40002441406</ele>
        <time>2011-02-06T09:47:04.000Z</time>
      </trkpt>
      <trkpt lat="45.16906" lon="5.6697">
        <ele>552.20001220703</ele>
        <time>2011-02-06T09:47:07.000Z</time>
      </trkpt>
      <trkpt lat="45.16894" lon="5.66966">
        <ele>550.59997558594</ele>
        <time>2011-02-06T09:47:12.000Z</time>
      </trkpt>
      <trkpt lat="45.16879" lon="5.66971">
        <ele>545</ele>
        <time>2011-02-06T09:47:17.000Z</time>
      </trkpt>
      <trkpt lat="45.16876" lon="5.66973">
        <ele>543.40002441406</ele>
        <time>2011-02-06T09:47:18.000Z</time>
      </trkpt>
      <trkpt lat="45.16862" lon="5.66976">
        <ele>538.59997558594</ele>
        <time>2011-02-06T09:47:22.000Z</time>
      </trkpt>
      <trkpt lat="45.16857" lon="5.66974">
        <ele>538.20001220703</ele>
        <time>2011-02-06T09:47:24.000Z</time>
      </trkpt>
      <trkpt lat="45.1685" lon="5.6697">
        <ele>538.20001220703</ele>
        <time>2011-02-06T09:47:27.000Z</time>
      </trkpt>
      <trkpt lat="45.16838" lon="5.66964">
        <ele>538</ele>
        <time>2011-02-06T09:47:32.000Z</time>
      </trkpt>
      <trkpt lat="45.16823" lon="5.66955">
        <ele>541.59997558594</ele>
        <time>2011-02-06T09:47:37.000Z</time>
      </trkpt>
      <trkpt lat="45.16819" lon="5.66952">
        <ele>543.20001220703</ele>
        <time>2011-02-06T09:47:38.000Z</time>
      </trkpt>
      <trkpt lat="45.16809" lon="5.66946">
        <ele>546.59997558594</ele>
        <time>2011-02-06T09:47:41.000Z</time>
      </trkpt>
      <trkpt lat="45.16801" lon="5.66945">
        <ele>547.20001220703</ele>
        <time>2011-02-06T09:47:44.000Z</time>
      </trkpt>
      <trkpt lat="45.16794" lon="5.66947">
        <ele>546.59997558594</ele>
        <time>2011-02-06T09:47:46.000Z</time>
      </trkpt>
      <trkpt lat="45.16781" lon="5.66956">
        <ele>542.20001220703</ele>
        <time>2011-02-06T09:47:49.000Z</time>
      </trkpt>
      <trkpt lat="45.16772" lon="5.6696">
        <ele>540.40002441406</ele>
        <time>2011-02-06T09:47:52.000Z</time>
      </trkpt>
      <trkpt lat="45.16766" lon="5.66967">
        <ele>536.59997558594</ele>
        <time>2011-02-06T09:47:56.000Z</time>
      </trkpt>
      <trkpt lat="45.16767" lon="5.66968">
        <ele>535.79998779297</ele>
        <time>2011-02-06T09:47:57.000Z</time>
      </trkpt>
      <trkpt lat="45.16775" lon="5.66971">
        <ele>534.40002441406</ele>
        <time>2011-02-06T09:48:00.000Z</time>
      </trkpt>
      <trkpt lat="45.16787" lon="5.66976">
        <ele>531.40002441406</ele>
        <time>2011-02-06T09:48:04.000Z</time>
      </trkpt>
      <trkpt lat="45.16794" lon="5.66979">
        <ele>530</ele>
        <time>2011-02-06T09:48:06.000Z</time>
      </trkpt>
      <trkpt lat="45.16806" lon="5.66982">
        <ele>528.20001220703</ele>
        <time>2011-02-06T09:48:09.000Z</time>
      </trkpt>
      <trkpt lat="45.1681" lon="5.66983">
        <ele>527.40002441406</ele>
        <time>2011-02-06T09:48:10.000Z</time>
      </trkpt>
      <trkpt lat="45.16825" lon="5.66995">
        <ele>521.20001220703</ele>
        <time>2011-02-06T09:48:15.000Z</time>
      </trkpt>
      <trkpt lat="45.16829" lon="5.66997">
        <ele>520.20001220703</ele>
        <time>2011-02-06T09:48:16.000Z</time>
      </trkpt>
      <trkpt lat="45.16839" lon="5.67011">
        <ele>517</ele>
        <time>2011-02-06T09:48:20.000Z</time>
      </trkpt>
      <trkpt lat="45.16841" lon="5.67015">
        <ele>516</ele>
        <time>2011-02-06T09:48:21.000Z</time>
      </trkpt>
      <trkpt lat="45.16851" lon="5.6703">
        <ele>514</ele>
        <time>2011-02-06T09:48:25.000Z</time>
      </trkpt>
      <trkpt lat="45.16857" lon="5.67036">
        <ele>513.40002441406</ele>
        <time>2011-02-06T09:48:27.000Z</time>
      </trkpt>
      <trkpt lat="45.16867" lon="5.67045">
        <ele>512.79998779297</ele>
        <time>2011-02-06T09:48:30.000Z</time>
      </trkpt>
      <trkpt lat="45.16874" lon="5.6705">
        <ele>512.79998779297</ele>
        <time>2011-02-06T09:48:32.000Z</time>
      </trkpt>
      <trkpt lat="45.16879" lon="5.67057">
        <ele>511.39999389648</ele>
        <time>2011-02-06T09:48:34.000Z</time>
      </trkpt>
      <trkpt lat="45.16889" lon="5.67071">
        <ele>508.20001220703</ele>
        <time>2011-02-06T09:48:38.000Z</time>
      </trkpt>
      <trkpt lat="45.16892" lon="5.67074">
        <ele>507.79998779297</ele>
        <time>2011-02-06T09:48:39.000Z</time>
      </trkpt>
      <trkpt lat="45.16907" lon="5.67085">
        <ele>506.60000610352</ele>
        <time>2011-02-06T09:48:44.000Z</time>
      </trkpt>
      <trkpt lat="45.1691" lon="5.67087">
        <ele>506.60000610352</ele>
        <time>2011-02-06T09:48:45.000Z</time>
      </trkpt>
      <trkpt lat="45.16921" lon="5.67095">
        <ele>504.39999389648</ele>
        <time>2011-02-06T09:48:49.000Z</time>
      </trkpt>
      <trkpt lat="45.16924" lon="5.67098">
        <ele>503.39999389648</ele>
        <time>2011-02-06T09:48:50.000Z</time>
      </trkpt>
      <trkpt lat="45.16939" lon="5.67107">
        <ele>499.39999389648</ele>
        <time>2011-02-06T09:48:55.000Z</time>
      </trkpt>
      <trkpt lat="45.16943" lon="5.67109">
        <ele>498.79998779297</ele>
        <time>2011-02-06T09:48:56.000Z</time>
      </trkpt>
      <trkpt lat="45.16956" lon="5.67116">
        <ele>496</ele>
        <time>2011-02-06T09:49:00.000Z</time>
      </trkpt>
      <trkpt lat="45.16961" lon="5.6712">
        <ele>494.20001220703</ele>
        <time>2011-02-06T09:49:02.000Z</time>
      </trkpt>
      <trkpt lat="45.16974" lon="5.67127">
        <ele>491.20001220703</ele>
        <time>2011-02-06T09:49:05.000Z</time>
      </trkpt>
      <trkpt lat="45.16982" lon="5.67128">
        <ele>490.60000610352</ele>
        <time>2011-02-06T09:49:07.000Z</time>
      </trkpt>
      <trkpt lat="45.16987" lon="5.6713">
        <ele>489.60000610352</ele>
        <time>2011-02-06T09:49:09.000Z</time>
      </trkpt>
      <trkpt lat="45.16998" lon="5.67131">
        <ele>489.79998779297</ele>
        <time>2011-02-06T09:49:13.000Z</time>
      </trkpt>
      <trkpt lat="45.17002" lon="5.6713">
        <ele>490.20001220703</ele>
        <time>2011-02-06T09:49:14.000Z</time>
      </trkpt>
      <trkpt lat="45.17013" lon="5.67128">
        <ele>491.20001220703</ele>
        <time>2011-02-06T09:49:17.000Z</time>
      </trkpt>
      <trkpt lat="45.1702" lon="5.67127">
        <ele>491.79998779297</ele>
        <time>2011-02-06T09:49:19.000Z</time>
      </trkpt>
      <trkpt lat="45.17029" lon="5.67127">
        <ele>492.20001220703</ele>
        <time>2011-02-06T09:49:22.000Z</time>
      </trkpt>
      <trkpt lat="45.17041" lon="5.67129">
        <ele>491.60000610352</ele>
        <time>2011-02-06T09:49:25.000Z</time>
      </trkpt>
      <trkpt lat="45.17045" lon="5.6713">
        <ele>491.39999389648</ele>
        <time>2011-02-06T09:49:26.000Z</time>
      </trkpt>
      <trkpt lat="45.17063" lon="5.67133">
        <ele>490.39999389648</ele>
        <time>2011-02-06T09:49:30.000Z</time>
      </trkpt>
      <trkpt lat="45.17076" lon="5.6714">
        <ele>488</ele>
        <time>2011-02-06T09:49:34.000Z</time>
      </trkpt>
      <trkpt lat="45.17082" lon="5.67141">
        <ele>487.60000610352</ele>
        <time>2011-02-06T09:49:36.000Z</time>
      </trkpt>
      <trkpt lat="45.17089" lon="5.67144">
        <ele>486.60000610352</ele>
        <time>2011-02-06T09:49:38.000Z</time>
      </trkpt>
      <trkpt lat="45.171" lon="5.67152">
        <ele>483.60000610352</ele>
        <time>2011-02-06T09:49:42.000Z</time>
      </trkpt>
      <trkpt lat="45.17103" lon="5.67154">
        <ele>483</ele>
        <time>2011-02-06T09:49:43.000Z</time>
      </trkpt>
      <trkpt lat="45.17118" lon="5.67161">
        <ele>480.20001220703</ele>
        <time>2011-02-06T09:49:47.000Z</time>
      </trkpt>
      <trkpt lat="45.17121" lon="5.67163">
        <ele>479.39999389648</ele>
        <time>2011-02-06T09:49:48.000Z</time>
      </trkpt>
      <trkpt lat="45.17134" lon="5.67173">
        <ele>476.60000610352</ele>
        <time>2011-02-06T09:49:53.000Z</time>
      </trkpt>
      <trkpt lat="45.17136" lon="5.67175">
        <ele>476.39999389648</ele>
        <time>2011-02-06T09:49:54.000Z</time>
      </trkpt>
      <trkpt lat="45.17146" lon="5.67179">
        <ele>475.60000610352</ele>
        <time>2011-02-06T09:49:58.000Z</time>
      </trkpt>
      <trkpt lat="45.17155" lon="5.67183">
        <ele>474.79998779297</ele>
        <time>2011-02-06T09:50:01.000Z</time>
      </trkpt>
      <trkpt lat="45.17158" lon="5.67184">
        <ele>474.60000610352</ele>
        <time>2011-02-06T09:50:02.000Z</time>
      </trkpt>
      <trkpt lat="45.17166" lon="5.67187">
        <ele>474.20001220703</ele>
        <time>2011-02-06T09:50:04.000Z</time>
      </trkpt>
      <trkpt lat="45.17172" lon="5.67192">
        <ele>473.79998779297</ele>
        <time>2011-02-06T09:50:06.000Z</time>
      </trkpt>
      <trkpt lat="45.17184" lon="5.67203">
        <ele>473.60000610352</ele>
        <time>2011-02-06T09:50:10.000Z</time>
      </trkpt>
      <trkpt lat="45.17191" lon="5.67207">
        <ele>474</ele>
        <time>2011-02-06T09:50:12.000Z</time>
      </trkpt>
      <trkpt lat="45.172" lon="5.67213">
        <ele>474.20001220703</ele>
        <time>2011-02-06T09:50:15.000Z</time>
      </trkpt>
      <trkpt lat="45.17209" lon="5.6722">
        <ele>474</ele>
        <time>2011-02-06T09:50:18.000Z</time>
      </trkpt>
      <trkpt lat="45.17215" lon="5.67222">
        <ele>474.60000610352</ele>
        <time>2011-02-06T09:50:20.000Z</time>
      </trkpt>
      <trkpt lat="45.17228" lon="5.67225">
        <ele>475.79998779297</ele>
        <time>2011-02-06T09:50:24.000Z</time>
      </trkpt>
      <trkpt lat="45.17233" lon="5.67225">
        <ele>477</ele>
        <time>2011-02-06T09:50:26.000Z</time>
      </trkpt>
      <trkpt lat="45.17243" lon="5.67226">
        <ele>478.39999389648</ele>
        <time>2011-02-06T09:50:30.000Z</time>
      </trkpt>
      <trkpt lat="45.17247" lon="5.67229">
        <ele>478.60000610352</ele>
        <time>2011-02-06T09:50:32.000Z</time>
      </trkpt>
      <trkpt lat="45.17256" lon="5.67232">
        <ele>479</ele>
        <time>2011-02-06T09:50:35.000Z</time>
      </trkpt>
      <trkpt lat="45.17266" lon="5.67234">
        <ele>480</ele>
        <time>2011-02-06T09:50:39.000Z</time>
      </trkpt>
      <trkpt lat="45.17273" lon="5.67244">
        <ele>478.39999389648</ele>
        <time>2011-02-06T09:50:43.000Z</time>
      </trkpt>
      <trkpt lat="45.17271" lon="5.67257">
        <ele>476.79998779297</ele>
        <time>2011-02-06T09:50:47.000Z</time>
      </trkpt>
      <trkpt lat="45.17267" lon="5.67264">
        <ele>476.20001220703</ele>
        <time>2011-02-06T09:50:49.000Z</time>
      </trkpt>
      <trkpt lat="45.17264" lon="5.67279">
        <ele>476</ele>
        <time>2011-02-06T09:50:53.000Z</time>
      </trkpt>
      <trkpt lat="45.17264" lon="5.67282">
        <ele>476</ele>
        <time>2011-02-06T09:50:54.000Z</time>
      </trkpt>
      <trkpt lat="45.17261" lon="5.67291">
        <ele>475.39999389648</ele>
        <time>2011-02-06T09:50:59.000Z</time>
      </trkpt>
      <trkpt lat="45.17259" lon="5.67293">
        <ele>474.79998779297</ele>
        <time>2011-02-06T09:51:04.000Z</time>
      </trkpt>
      <trkpt lat="45.17256" lon="5.67295">
        <ele>474</ele>
        <time>2011-02-06T09:52:10.000Z</time>
      </trkpt>
      <trkpt lat="45.17257" lon="5.67295">
        <ele>474.20001220703</ele>
        <time>2011-02-06T09:52:31.000Z</time>
      </trkpt>
      <trkpt lat="45.17258" lon="5.67302">
        <ele>474.60000610352</ele>
        <time>2011-02-06T09:52:35.000Z</time>
      </trkpt>
      <trkpt lat="45.17257" lon="5.67307">
        <ele>474.39999389648</ele>
        <time>2011-02-06T09:52:40.000Z</time>
      </trkpt>
      <trkpt lat="45.17255" lon="5.67312">
        <ele>473.79998779297</ele>
        <time>2011-02-06T09:52:43.000Z</time>
      </trkpt>
      <trkpt lat="45.17254" lon="5.67316">
        <ele>473.39999389648</ele>
        <time>2011-02-06T09:52:45.000Z</time>
      </trkpt>
      <trkpt lat="45.17252" lon="5.67319">
        <ele>472.79998779297</ele>
        <time>2011-02-06T09:52:47.000Z</time>
      </trkpt>
      <trkpt lat="45.17249" lon="5.67323">
        <ele>471.79998779297</ele>
        <time>2011-02-06T09:52:49.000Z</time>
      </trkpt>
      <trkpt lat="45.17248" lon="5.67324">
        <ele>471.60000610352</ele>
        <time>2011-02-06T09:52:50.000Z</time>
      </trkpt>
      <trkpt lat="45.17243" lon="5.67331">
        <ele>470.39999389648</ele>
        <time>2011-02-06T09:52:56.000Z</time>
      </trkpt>
      <trkpt lat="45.17237" lon="5.6734">
        <ele>469.20001220703</ele>
        <time>2011-02-06T09:53:01.000Z</time>
      </trkpt>
      <trkpt lat="45.17232" lon="5.67354">
        <ele>468.20001220703</ele>
        <time>2011-02-06T09:53:06.000Z</time>
      </trkpt>
      <trkpt lat="45.17232" lon="5.67357">
        <ele>468.39999389648</ele>
        <time>2011-02-06T09:53:07.000Z</time>
      </trkpt>
      <trkpt lat="45.17232" lon="5.6736">
        <ele>468.39999389648</ele>
        <time>2011-02-06T09:53:08.000Z</time>
      </trkpt>
      <trkpt lat="45.17233" lon="5.67371">
        <ele>468.79998779297</ele>
        <time>2011-02-06T09:53:11.000Z</time>
      </trkpt>
      <trkpt lat="45.17232" lon="5.67381">
        <ele>468.79998779297</ele>
        <time>2011-02-06T09:53:14.000Z</time>
      </trkpt>
      <trkpt lat="45.17231" lon="5.67384">
        <ele>468.60000610352</ele>
        <time>2011-02-06T09:53:15.000Z</time>
      </trkpt>
      <trkpt lat="45.17228" lon="5.67389">
        <ele>468</ele>
        <time>2011-02-06T09:53:17.000Z</time>
      </trkpt>
      <trkpt lat="45.17226" lon="5.67394">
        <ele>467.39999389648</ele>
        <time>2011-02-06T09:53:19.000Z</time>
      </trkpt>
      <trkpt lat="45.17225" lon="5.67395">
        <ele>467.39999389648</ele>
        <time>2011-02-06T09:53:20.000Z</time>
      </trkpt>
      <trkpt lat="45.17227" lon="5.67405">
        <ele>468</ele>
        <time>2011-02-06T09:53:24.000Z</time>
      </trkpt>
      <trkpt lat="45.17232" lon="5.67412">
        <ele>469.39999389648</ele>
        <time>2011-02-06T09:53:29.000Z</time>
      </trkpt>
      <trkpt lat="45.17238" lon="5.67419">
        <ele>470.39999389648</ele>
        <time>2011-02-06T09:53:33.000Z</time>
      </trkpt>
      <trkpt lat="45.17239" lon="5.67422">
        <ele>470.20001220703</ele>
        <time>2011-02-06T09:53:34.000Z</time>
      </trkpt>
      <trkpt lat="45.1724" lon="5.67425">
        <ele>470</ele>
        <time>2011-02-06T09:53:35.000Z</time>
      </trkpt>
      <trkpt lat="45.17247" lon="5.6744">
        <ele>469.20001220703</ele>
        <time>2011-02-06T09:53:40.000Z</time>
      </trkpt>
      <trkpt lat="45.1725" lon="5.67449">
        <ele>468.60000610352</ele>
        <time>2011-02-06T09:53:43.000Z</time>
      </trkpt>
      <trkpt lat="45.17252" lon="5.67455">
        <ele>468.39999389648</ele>
        <time>2011-02-06T09:53:45.000Z</time>
      </trkpt>
      <trkpt lat="45.17254" lon="5.67458">
        <ele>468.39999389648</ele>
        <time>2011-02-06T09:53:46.000Z</time>
      </trkpt>
      <trkpt lat="45.17259" lon="5.67466">
        <ele>468.60000610352</ele>
        <time>2011-02-06T09:53:49.000Z</time>
      </trkpt>
      <trkpt lat="45.17261" lon="5.67472">
        <ele>468</ele>
        <time>2011-02-06T09:53:51.000Z</time>
      </trkpt>
      <trkpt lat="45.17263" lon="5.67479">
        <ele>467.60000610352</ele>
        <time>2011-02-06T09:53:53.000Z</time>
      </trkpt>
      <trkpt lat="45.17271" lon="5.67494">
        <ele>467.20001220703</ele>
        <time>2011-02-06T09:53:58.000Z</time>
      </trkpt>
      <trkpt lat="45.17273" lon="5.67498">
        <ele>467</ele>
        <time>2011-02-06T09:53:59.000Z</time>
      </trkpt>
      <trkpt lat="45.17278" lon="5.67507">
        <ele>466.20001220703</ele>
        <time>2011-02-06T09:54:02.000Z</time>
      </trkpt>
      <trkpt lat="45.1728" lon="5.67508">
        <ele>466.20001220703</ele>
        <time>2011-02-06T09:54:03.000Z</time>
      </trkpt>
      <trkpt lat="45.17286" lon="5.67515">
        <ele>465.79998779297</ele>
        <time>2011-02-06T09:54:06.000Z</time>
      </trkpt>
      <trkpt lat="45.1729" lon="5.67523">
        <ele>464.79998779297</ele>
        <time>2011-02-06T09:54:08.000Z</time>
      </trkpt>
      <trkpt lat="45.17299" lon="5.67536">
        <ele>463.20001220703</ele>
        <time>2011-02-06T09:54:12.000Z</time>
      </trkpt>
      <trkpt lat="45.17301" lon="5.67538">
        <ele>463</ele>
        <time>2011-02-06T09:54:13.000Z</time>
      </trkpt>
      <trkpt lat="45.17314" lon="5.67553">
        <ele>461.79998779297</ele>
        <time>2011-02-06T09:54:19.000Z</time>
      </trkpt>
      <trkpt lat="45.17327" lon="5.67563">
        <ele>461.39999389648</ele>
        <time>2011-02-06T09:54:24.000Z</time>
      </trkpt>
      <trkpt lat="45.1733" lon="5.67565">
        <ele>461.20001220703</ele>
        <time>2011-02-06T09:54:25.000Z</time>
      </trkpt>
      <trkpt lat="45.17342" lon="5.67577">
        <ele>460.20001220703</ele>
        <time>2011-02-06T09:54:29.000Z</time>
      </trkpt>
      <trkpt lat="45.17345" lon="5.6758">
        <ele>459.79998779297</ele>
        <time>2011-02-06T09:54:30.000Z</time>
      </trkpt>
      <trkpt lat="45.17358" lon="5.67594">
        <ele>457.79998779297</ele>
        <time>2011-02-06T09:54:35.000Z</time>
      </trkpt>
      <trkpt lat="45.1736" lon="5.67598">
        <ele>457.39999389648</ele>
        <time>2011-02-06T09:54:36.000Z</time>
      </trkpt>
      <trkpt lat="45.17371" lon="5.67613">
        <ele>454.79998779297</ele>
        <time>2011-02-06T09:54:41.000Z</time>
      </trkpt>
      <trkpt lat="45.17374" lon="5.67615">
        <ele>454.60000610352</ele>
        <time>2011-02-06T09:54:42.000Z</time>
      </trkpt>
      <trkpt lat="45.17381" lon="5.67622">
        <ele>453.79998779297</ele>
        <time>2011-02-06T09:54:45.000Z</time>
      </trkpt>
      <trkpt lat="45.1739" lon="5.67633">
        <ele>452.20001220703</ele>
        <time>2011-02-06T09:54:49.000Z</time>
      </trkpt>
      <trkpt lat="45.17399" lon="5.6764">
        <ele>451.60000610352</ele>
        <time>2011-02-06T09:54:53.000Z</time>
      </trkpt>
      <trkpt lat="45.17406" lon="5.67646">
        <ele>451</ele>
        <time>2011-02-06T09:54:55.000Z</time>
      </trkpt>
      <trkpt lat="45.17414" lon="5.67656">
        <ele>449.20001220703</ele>
        <time>2011-02-06T09:54:58.000Z</time>
      </trkpt>
      <trkpt lat="45.1742" lon="5.67663">
        <ele>447.60000610352</ele>
        <time>2011-02-06T09:55:00.000Z</time>
      </trkpt>
      <trkpt lat="45.17429" lon="5.67676">
        <ele>444.39999389648</ele>
        <time>2011-02-06T09:55:04.000Z</time>
      </trkpt>
      <trkpt lat="45.17434" lon="5.67682">
        <ele>443</ele>
        <time>2011-02-06T09:55:06.000Z</time>
      </trkpt>
      <trkpt lat="45.17444" lon="5.67693">
        <ele>440.79998779297</ele>
        <time>2011-02-06T09:55:10.000Z</time>
      </trkpt>
      <trkpt lat="45.17449" lon="5.67697">
        <ele>440</ele>
        <time>2011-02-06T09:55:12.000Z</time>
      </trkpt>
      <trkpt lat="45.17459" lon="5.67703">
        <ele>439.20001220703</ele>
        <time>2011-02-06T09:55:15.000Z</time>
      </trkpt>
      <trkpt lat="45.17468" lon="5.67707">
        <ele>439</ele>
        <time>2011-02-06T09:55:18.000Z</time>
      </trkpt>
      <trkpt lat="45.17484" lon="5.67716">
        <ele>438.20001220703</ele>
        <time>2011-02-06T09:55:21.000Z</time>
      </trkpt>
      <trkpt lat="45.17487" lon="5.67715">
        <ele>438.60000610352</ele>
        <time>2011-02-06T09:55:22.000Z</time>
      </trkpt>
      <trkpt lat="45.17501" lon="5.67711">
        <ele>441.20001220703</ele>
        <time>2011-02-06T09:55:27.000Z</time>
      </trkpt>
      <trkpt lat="45.17507" lon="5.67709">
        <ele>441.39999389648</ele>
        <time>2011-02-06T09:55:29.000Z</time>
      </trkpt>
      <trkpt lat="45.17518" lon="5.67703">
        <ele>442.20001220703</ele>
        <time>2011-02-06T09:55:33.000Z</time>
      </trkpt>
      <trkpt lat="45.17524" lon="5.677">
        <ele>442.60000610352</ele>
        <time>2011-02-06T09:55:35.000Z</time>
      </trkpt>
      <trkpt lat="45.17536" lon="5.67693">
        <ele>443.39999389648</ele>
        <time>2011-02-06T09:55:39.000Z</time>
      </trkpt>
      <trkpt lat="45.17541" lon="5.67688">
        <ele>444.20001220703</ele>
        <time>2011-02-06T09:55:41.000Z</time>
      </trkpt>
      <trkpt lat="45.17543" lon="5.67685">
        <ele>444.60000610352</ele>
        <time>2011-02-06T09:55:42.000Z</time>
      </trkpt>
      <trkpt lat="45.17545" lon="5.67681">
        <ele>445.20001220703</ele>
        <time>2011-02-06T09:55:43.000Z</time>
      </trkpt>
      <trkpt lat="45.17556" lon="5.6767">
        <ele>446.39999389648</ele>
        <time>2011-02-06T09:55:47.000Z</time>
      </trkpt>
      <trkpt lat="45.17573" lon="5.67656">
        <ele>447.20001220703</ele>
        <time>2011-02-06T09:55:53.000Z</time>
      </trkpt>
      <trkpt lat="45.17583" lon="5.67647">
        <ele>447.39999389648</ele>
        <time>2011-02-06T09:55:57.000Z</time>
      </trkpt>
      <trkpt lat="45.17592" lon="5.6764">
        <ele>447.60000610352</ele>
        <time>2011-02-06T09:56:00.000Z</time>
      </trkpt>
      <trkpt lat="45.17597" lon="5.67635">
        <ele>447.60000610352</ele>
        <time>2011-02-06T09:56:02.000Z</time>
      </trkpt>
      <trkpt lat="45.17611" lon="5.67628">
        <ele>447</ele>
        <time>2011-02-06T09:56:07.000Z</time>
      </trkpt>
      <trkpt lat="45.17615" lon="5.67628">
        <ele>446.60000610352</ele>
        <time>2011-02-06T09:56:08.000Z</time>
      </trkpt>
      <trkpt lat="45.17632" lon="5.67622">
        <ele>445.20001220703</ele>
        <time>2011-02-06T09:56:13.000Z</time>
      </trkpt>
      <trkpt lat="45.17647" lon="5.67615">
        <ele>444.20001220703</ele>
        <time>2011-02-06T09:56:18.000Z</time>
      </trkpt>
      <trkpt lat="45.1765" lon="5.67613">
        <ele>443.79998779297</ele>
        <time>2011-02-06T09:56:19.000Z</time>
      </trkpt>
      <trkpt lat="45.17667" lon="5.67608">
        <ele>442.20001220703</ele>
        <time>2011-02-06T09:56:24.000Z</time>
      </trkpt>
      <trkpt lat="45.17671" lon="5.67607">
        <ele>441.79998779297</ele>
        <time>2011-02-06T09:56:25.000Z</time>
      </trkpt>
      <trkpt lat="45.17685" lon="5.67607">
        <ele>439.79998779297</ele>
        <time>2011-02-06T09:56:29.000Z</time>
      </trkpt>
      <trkpt lat="45.17691" lon="5.67607">
        <ele>439</ele>
        <time>2011-02-06T09:56:31.000Z</time>
      </trkpt>
      <trkpt lat="45.17705" lon="5.67606">
        <ele>437.20001220703</ele>
        <time>2011-02-06T09:56:35.000Z</time>
      </trkpt>
      <trkpt lat="45.1771" lon="5.67605">
        <ele>436.39999389648</ele>
        <time>2011-02-06T09:56:37.000Z</time>
      </trkpt>
      <trkpt lat="45.1772" lon="5.67603">
        <ele>435</ele>
        <time>2011-02-06T09:56:40.000Z</time>
      </trkpt>
      <trkpt lat="45.17728" lon="5.67602">
        <ele>434</ele>
        <time>2011-02-06T09:56:42.000Z</time>
      </trkpt>
      <trkpt lat="45.17741" lon="5.67598">
        <ele>432.39999389648</ele>
        <time>2011-02-06T09:56:46.000Z</time>
      </trkpt>
      <trkpt lat="45.17747" lon="5.67595">
        <ele>431.60000610352</ele>
        <time>2011-02-06T09:56:48.000Z</time>
      </trkpt>
      <trkpt lat="45.17754" lon="5.6759">
        <ele>430.39999389648</ele>
        <time>2011-02-06T09:56:50.000Z</time>
      </trkpt>
      <trkpt lat="45.17758" lon="5.67583">
        <ele>429.20001220703</ele>
        <time>2011-02-06T09:56:52.000Z</time>
      </trkpt>
      <trkpt lat="45.1776" lon="5.67575">
        <ele>430.60000610352</ele>
        <time>2011-02-06T09:56:54.000Z</time>
      </trkpt>
      <trkpt lat="45.1777" lon="5.67548">
        <ele>434</ele>
        <time>2011-02-06T09:57:00.000Z</time>
      </trkpt>
      <trkpt lat="45.17782" lon="5.67524">
        <ele>435.39999389648</ele>
        <time>2011-02-06T09:57:06.000Z</time>
      </trkpt>
      <trkpt lat="45.17794" lon="5.67501">
        <ele>436.39999389648</ele>
        <time>2011-02-06T09:57:12.000Z</time>
      </trkpt>
      <trkpt lat="45.17804" lon="5.67483">
        <ele>436.79998779297</ele>
        <time>2011-02-06T09:57:17.000Z</time>
      </trkpt>
      <trkpt lat="45.17806" lon="5.67479">
        <ele>437.20001220703</ele>
        <time>2011-02-06T09:57:18.000Z</time>
      </trkpt>
      <trkpt lat="45.17815" lon="5.6746">
        <ele>438.60000610352</ele>
        <time>2011-02-06T09:57:23.000Z</time>
      </trkpt>
      <trkpt lat="45.17818" lon="5.67455">
        <ele>439</ele>
        <time>2011-02-06T09:57:24.000Z</time>
      </trkpt>
      <trkpt lat="45.17824" lon="5.67438">
        <ele>441.20001220703</ele>
        <time>2011-02-06T09:57:28.000Z</time>
      </trkpt>
      <trkpt lat="45.1783" lon="5.67433">
        <ele>440.39999389648</ele>
        <time>2011-02-06T09:57:30.000Z</time>
      </trkpt>
      <trkpt lat="45.1784" lon="5.67427">
        <ele>439.60000610352</ele>
        <time>2011-02-06T09:57:33.000Z</time>
      </trkpt>
      <trkpt lat="45.17849" lon="5.67421">
        <ele>439.20001220703</ele>
        <time>2011-02-06T09:57:36.000Z</time>
      </trkpt>
      <trkpt lat="45.17855" lon="5.67419">
        <ele>438.20001220703</ele>
        <time>2011-02-06T09:57:38.000Z</time>
      </trkpt>
      <trkpt lat="45.17869" lon="5.67416">
        <ele>436</ele>
        <time>2011-02-06T09:57:42.000Z</time>
      </trkpt>
      <trkpt lat="45.17884" lon="5.67413">
        <ele>433</ele>
        <time>2011-02-06T09:57:47.000Z</time>
      </trkpt>
      <trkpt lat="45.17887" lon="5.67412">
        <ele>432.39999389648</ele>
        <time>2011-02-06T09:57:48.000Z</time>
      </trkpt>
      <trkpt lat="45.17898" lon="5.67406">
        <ele>431.20001220703</ele>
        <time>2011-02-06T09:57:51.000Z</time>
      </trkpt>
      <trkpt lat="45.17904" lon="5.674">
        <ele>431</ele>
        <time>2011-02-06T09:57:53.000Z</time>
      </trkpt>
      <trkpt lat="45.17913" lon="5.67389">
        <ele>431</ele>
        <time>2011-02-06T09:57:57.000Z</time>
      </trkpt>
      <trkpt lat="45.17919" lon="5.67384">
        <ele>431</ele>
        <time>2011-02-06T09:57:59.000Z</time>
      </trkpt>
      <trkpt lat="45.17924" lon="5.67379">
        <ele>431.60000610352</ele>
        <time>2011-02-06T09:58:01.000Z</time>
      </trkpt>
      <trkpt lat="45.17935" lon="5.6737">
        <ele>432.20001220703</ele>
        <time>2011-02-06T09:58:05.000Z</time>
      </trkpt>
      <trkpt lat="45.17938" lon="5.67368">
        <ele>432.20001220703</ele>
        <time>2011-02-06T09:58:06.000Z</time>
      </trkpt>
      <trkpt lat="45.17952" lon="5.67357">
        <ele>432.20001220703</ele>
        <time>2011-02-06T09:58:11.000Z</time>
      </trkpt>
      <trkpt lat="45.17958" lon="5.67352">
        <ele>432.20001220703</ele>
        <time>2011-02-06T09:58:13.000Z</time>
      </trkpt>
      <trkpt lat="45.17969" lon="5.67341">
        <ele>432</ele>
        <time>2011-02-06T09:58:17.000Z</time>
      </trkpt>
      <trkpt lat="45.17974" lon="5.67335">
        <ele>431.79998779297</ele>
        <time>2011-02-06T09:58:19.000Z</time>
      </trkpt>
      <trkpt lat="45.17984" lon="5.67322">
        <ele>431.20001220703</ele>
        <time>2011-02-06T09:58:23.000Z</time>
      </trkpt>
      <trkpt lat="45.17991" lon="5.67308">
        <ele>431</ele>
        <time>2011-02-06T09:58:27.000Z</time>
      </trkpt>
      <trkpt lat="45.17997" lon="5.67298">
        <ele>430.60000610352</ele>
        <time>2011-02-06T09:58:30.000Z</time>
      </trkpt>
      <trkpt lat="45.18003" lon="5.67294">
        <ele>430</ele>
        <time>2011-02-06T09:58:32.000Z</time>
      </trkpt>
      <trkpt lat="45.18015" lon="5.67287">
        <ele>429.20001220703</ele>
        <time>2011-02-06T09:58:36.000Z</time>
      </trkpt>
      <trkpt lat="45.18018" lon="5.67286">
        <ele>429</ele>
        <time>2011-02-06T09:58:37.000Z</time>
      </trkpt>
      <trkpt lat="45.18032" lon="5.6728">
        <ele>428.20001220703</ele>
        <time>2011-02-06T09:58:42.000Z</time>
      </trkpt>
      <trkpt lat="45.18035" lon="5.67278">
        <ele>428</ele>
        <time>2011-02-06T09:58:43.000Z</time>
      </trkpt>
      <trkpt lat="45.1805" lon="5.67268">
        <ele>427.39999389648</ele>
        <time>2011-02-06T09:58:49.000Z</time>
      </trkpt>
      <trkpt lat="45.18052" lon="5.67267">
        <ele>427.20001220703</ele>
        <time>2011-02-06T09:58:50.000Z</time>
      </trkpt>
      <trkpt lat="45.18062" lon="5.6726">
        <ele>427</ele>
        <time>2011-02-06T09:58:55.000Z</time>
      </trkpt>
      <trkpt lat="45.1807" lon="5.67259">
        <ele>426.39999389648</ele>
        <time>2011-02-06T09:58:58.000Z</time>
      </trkpt>
      <trkpt lat="45.18074" lon="5.67257">
        <ele>426</ele>
        <time>2011-02-06T09:59:00.000Z</time>
      </trkpt>
      <trkpt lat="45.18088" lon="5.67255">
        <ele>425.39999389648</ele>
        <time>2011-02-06T09:59:05.000Z</time>
      </trkpt>
      <trkpt lat="45.18095" lon="5.67252">
        <ele>425.79998779297</ele>
        <time>2011-02-06T09:59:10.000Z</time>
      </trkpt>
      <trkpt lat="45.18097" lon="5.67251">
        <ele>425.79998779297</ele>
        <time>2011-02-06T09:59:12.000Z</time>
      </trkpt>
      <trkpt lat="45.18098" lon="5.67251">
        <ele>425.79998779297</ele>
        <time>2011-02-06T09:59:15.000Z</time>
      </trkpt>
      <trkpt lat="45.18103" lon="5.67252">
        <ele>425.79998779297</ele>
        <time>2011-02-06T10:00:18.000Z</time>
      </trkpt>
      <trkpt lat="45.18102" lon="5.67252">
        <ele>425.79998779297</ele>
        <time>2011-02-06T10:00:28.000Z</time>
      </trkpt>
      <trkpt lat="45.18105" lon="5.6725">
        <ele>425.79998779297</ele>
        <time>2011-02-06T10:00:32.000Z</time>
      </trkpt>
      <trkpt lat="45.18111" lon="5.67245">
        <ele>425.79998779297</ele>
        <time>2011-02-06T10:00:37.000Z</time>
      </trkpt>
      <trkpt lat="45.1812" lon="5.67243">
        <ele>425.79998779297</ele>
        <time>2011-02-06T10:00:41.000Z</time>
      </trkpt>
      <trkpt lat="45.18131" lon="5.67237">
        <ele>425.60000610352</ele>
        <time>2011-02-06T10:00:46.000Z</time>
      </trkpt>
      <trkpt lat="45.18137" lon="5.67235">
        <ele>425.39999389648</ele>
        <time>2011-02-06T10:00:49.000Z</time>
      </trkpt>
      <trkpt lat="45.18145" lon="5.67232">
        <ele>425.39999389648</ele>
        <time>2011-02-06T10:00:53.000Z</time>
      </trkpt>
      <trkpt lat="45.18156" lon="5.67231">
        <ele>425.20001220703</ele>
        <time>2011-02-06T10:00:57.000Z</time>
      </trkpt>
      <trkpt lat="45.18159" lon="5.67232">
        <ele>425.20001220703</ele>
        <time>2011-02-06T10:00:58.000Z</time>
      </trkpt>
      <trkpt lat="45.18172" lon="5.67234">
        <ele>425.39999389648</ele>
        <time>2011-02-06T10:01:04.000Z</time>
      </trkpt>
      <trkpt lat="45.18176" lon="5.67234">
        <ele>425.39999389648</ele>
        <time>2011-02-06T10:01:06.000Z</time>
      </trkpt>
      <trkpt lat="45.18186" lon="5.67231">
        <ele>425.39999389648</ele>
        <time>2011-02-06T10:01:10.000Z</time>
      </trkpt>
      <trkpt lat="45.18195" lon="5.67227">
        <ele>425.20001220703</ele>
        <time>2011-02-06T10:01:13.000Z</time>
      </trkpt>
      <trkpt lat="45.18198" lon="5.67226">
        <ele>425.20001220703</ele>
        <time>2011-02-06T10:01:14.000Z</time>
      </trkpt>
      <trkpt lat="45.18212" lon="5.6722">
        <ele>424.79998779297</ele>
        <time>2011-02-06T10:01:19.000Z</time>
      </trkpt>
      <trkpt lat="45.18228" lon="5.67218">
        <ele>424.39999389648</ele>
        <time>2011-02-06T10:01:25.000Z</time>
      </trkpt>
      <trkpt lat="45.18231" lon="5.67217">
        <ele>424.39999389648</ele>
        <time>2011-02-06T10:01:26.000Z</time>
      </trkpt>
      <trkpt lat="45.18248" lon="5.67215">
        <ele>424</ele>
        <time>2011-02-06T10:01:31.000Z</time>
      </trkpt>
      <trkpt lat="45.18251" lon="5.67214">
        <ele>424</ele>
        <time>2011-02-06T10:01:32.000Z</time>
      </trkpt>
      <trkpt lat="45.18265" lon="5.67214">
        <ele>424.20001220703</ele>
        <time>2011-02-06T10:01:37.000Z</time>
      </trkpt>
      <trkpt lat="45.1827" lon="5.67215">
        <ele>424.20001220703</ele>
        <time>2011-02-06T10:01:39.000Z</time>
      </trkpt>
      <trkpt lat="45.18276" lon="5.67211">
        <ele>424</ele>
        <time>2011-02-06T10:01:42.000Z</time>
      </trkpt>
      <trkpt lat="45.18287" lon="5.6721">
        <ele>424</ele>
        <time>2011-02-06T10:01:47.000Z</time>
      </trkpt>
      <trkpt lat="45.18291" lon="5.67211">
        <ele>424.20001220703</ele>
        <time>2011-02-06T10:01:49.000Z</time>
      </trkpt>
      <trkpt lat="45.183" lon="5.67216">
        <ele>424.79998779297</ele>
        <time>2011-02-06T10:01:53.000Z</time>
      </trkpt>
      <trkpt lat="45.18311" lon="5.67223">
        <ele>425.39999389648</ele>
        <time>2011-02-06T10:01:57.000Z</time>
      </trkpt>
      <trkpt lat="45.18316" lon="5.67226">
        <ele>425.79998779297</ele>
        <time>2011-02-06T10:01:59.000Z</time>
      </trkpt>
      <trkpt lat="45.18329" lon="5.67231">
        <ele>426.20001220703</ele>
        <time>2011-02-06T10:02:04.000Z</time>
      </trkpt>
      <trkpt lat="45.18347" lon="5.67238">
        <ele>426.20001220703</ele>
        <time>2011-02-06T10:02:10.000Z</time>
      </trkpt>
      <trkpt lat="45.18358" lon="5.67245">
        <ele>426</ele>
        <time>2011-02-06T10:02:15.000Z</time>
      </trkpt>
      <trkpt lat="45.18365" lon="5.67251">
        <ele>426</ele>
        <time>2011-02-06T10:02:18.000Z</time>
      </trkpt>
      <trkpt lat="45.18371" lon="5.67258">
        <ele>425.60000610352</ele>
        <time>2011-02-06T10:02:21.000Z</time>
      </trkpt>
      <trkpt lat="45.18381" lon="5.67266">
        <ele>425</ele>
        <time>2011-02-06T10:02:25.000Z</time>
      </trkpt>
      <trkpt lat="45.18387" lon="5.67266">
        <ele>424.60000610352</ele>
        <time>2011-02-06T10:02:27.000Z</time>
      </trkpt>
      <trkpt lat="45.18402" lon="5.67263">
        <ele>423.60000610352</ele>
        <time>2011-02-06T10:02:32.000Z</time>
      </trkpt>
      <trkpt lat="45.18422" lon="5.6726">
        <ele>422.20001220703</ele>
        <time>2011-02-06T10:02:38.000Z</time>
      </trkpt>
      <trkpt lat="45.18438" lon="5.67257">
        <ele>420.39999389648</ele>
        <time>2011-02-06T10:02:43.000Z</time>
      </trkpt>
      <trkpt lat="45.18441" lon="5.67257">
        <ele>420</ele>
        <time>2011-02-06T10:02:44.000Z</time>
      </trkpt>
      <trkpt lat="45.18456" lon="5.67254">
        <ele>418.39999389648</ele>
        <time>2011-02-06T10:02:49.000Z</time>
      </trkpt>
      <trkpt lat="45.18459" lon="5.67254">
        <ele>418.20001220703</ele>
        <time>2011-02-06T10:02:50.000Z</time>
      </trkpt>
      <trkpt lat="45.18471" lon="5.67249">
        <ele>417.20001220703</ele>
        <time>2011-02-06T10:02:54.000Z</time>
      </trkpt>
      <trkpt lat="45.18476" lon="5.67247">
        <ele>416.60000610352</ele>
        <time>2011-02-06T10:02:56.000Z</time>
      </trkpt>
      <trkpt lat="45.18487" lon="5.6724">
        <ele>415.79998779297</ele>
        <time>2011-02-06T10:03:00.000Z</time>
      </trkpt>
      <trkpt lat="45.18493" lon="5.67237">
        <ele>415.39999389648</ele>
        <time>2011-02-06T10:03:02.000Z</time>
      </trkpt>
      <trkpt lat="45.18503" lon="5.67228">
        <ele>414.60000610352</ele>
        <time>2011-02-06T10:03:06.000Z</time>
      </trkpt>
      <trkpt lat="45.18509" lon="5.67223">
        <ele>414.20001220703</ele>
        <time>2011-02-06T10:03:08.000Z</time>
      </trkpt>
      <trkpt lat="45.18517" lon="5.67212">
        <ele>413.79998779297</ele>
        <time>2011-02-06T10:03:12.000Z</time>
      </trkpt>
      <trkpt lat="45.18524" lon="5.67202">
        <ele>413.79998779297</ele>
        <time>2011-02-06T10:03:15.000Z</time>
      </trkpt>
      <trkpt lat="45.18529" lon="5.67196">
        <ele>413.79998779297</ele>
        <time>2011-02-06T10:03:17.000Z</time>
      </trkpt>
      <trkpt lat="45.18538" lon="5.67183">
        <ele>414</ele>
        <time>2011-02-06T10:03:21.000Z</time>
      </trkpt>
      <trkpt lat="45.1855" lon="5.67173">
        <ele>413.79998779297</ele>
        <time>2011-02-06T10:03:26.000Z</time>
      </trkpt>
      <trkpt lat="45.18556" lon="5.6717">
        <ele>413.79998779297</ele>
        <time>2011-02-06T10:03:28.000Z</time>
      </trkpt>
      <trkpt lat="45.18568" lon="5.67165">
        <ele>413.39999389648</ele>
        <time>2011-02-06T10:03:32.000Z</time>
      </trkpt>
      <trkpt lat="45.18576" lon="5.67161">
        <ele>413</ele>
        <time>2011-02-06T10:03:35.000Z</time>
      </trkpt>
      <trkpt lat="45.18581" lon="5.67157">
        <ele>412.79998779297</ele>
        <time>2011-02-06T10:03:37.000Z</time>
      </trkpt>
      <trkpt lat="45.18592" lon="5.67152">
        <ele>411.60000610352</ele>
        <time>2011-02-06T10:03:41.000Z</time>
      </trkpt>
      <trkpt lat="45.18598" lon="5.67148">
        <ele>411</ele>
        <time>2011-02-06T10:03:43.000Z</time>
      </trkpt>
      <trkpt lat="45.18609" lon="5.6714">
        <ele>410</ele>
        <time>2011-02-06T10:03:47.000Z</time>
      </trkpt>
      <trkpt lat="45.18612" lon="5.67138">
        <ele>409.60000610352</ele>
        <time>2011-02-06T10:03:48.000Z</time>
      </trkpt>
      <trkpt lat="45.18626" lon="5.6713">
        <ele>408.39999389648</ele>
        <time>2011-02-06T10:03:53.000Z</time>
      </trkpt>
      <trkpt lat="45.18629" lon="5.67128">
        <ele>408.20001220703</ele>
        <time>2011-02-06T10:03:54.000Z</time>
      </trkpt>
      <trkpt lat="45.1864" lon="5.6712">
        <ele>407.39999389648</ele>
        <time>2011-02-06T10:03:58.000Z</time>
      </trkpt>
      <trkpt lat="45.18643" lon="5.67118">
        <ele>407.39999389648</ele>
        <time>2011-02-06T10:03:59.000Z</time>
      </trkpt>
      <trkpt lat="45.18657" lon="5.67102">
        <ele>407.39999389648</ele>
        <time>2011-02-06T10:04:05.000Z</time>
      </trkpt>
      <trkpt lat="45.18659" lon="5.67099">
        <ele>407.60000610352</ele>
        <time>2011-02-06T10:04:06.000Z</time>
      </trkpt>
      <trkpt lat="45.18676" lon="5.67087">
        <ele>408.39999389648</ele>
        <time>2011-02-06T10:04:12.000Z</time>
      </trkpt>
      <trkpt lat="45.18686" lon="5.67081">
        <ele>409</ele>
        <time>2011-02-06T10:04:16.000Z</time>
      </trkpt>
      <trkpt lat="45.18693" lon="5.67077">
        <ele>409</ele>
        <time>2011-02-06T10:04:21.000Z</time>
      </trkpt>
      <trkpt lat="45.18694" lon="5.67077">
        <ele>409</ele>
        <time>2011-02-06T10:04:22.000Z</time>
      </trkpt>
      <trkpt lat="45.18694" lon="5.67078">
        <ele>409</ele>
        <time>2011-02-06T10:04:26.000Z</time>
      </trkpt>
      <trkpt lat="45.18693" lon="5.67077">
        <ele>409</ele>
        <time>2011-02-06T10:04:37.000Z</time>
      </trkpt>
      <trkpt lat="45.18698" lon="5.67076">
        <ele>409</ele>
        <time>2011-02-06T10:05:20.000Z</time>
      </trkpt>
      <trkpt lat="45.18704" lon="5.67077">
        <ele>409</ele>
        <time>2011-02-06T10:05:26.000Z</time>
      </trkpt>
      <trkpt lat="45.18708" lon="5.67075">
        <ele>409</ele>
        <time>2011-02-06T10:05:29.000Z</time>
      </trkpt>
      <trkpt lat="45.1871" lon="5.67072">
        <ele>409</ele>
        <time>2011-02-06T10:05:31.000Z</time>
      </trkpt>
      <trkpt lat="45.18712" lon="5.67072">
        <ele>409</ele>
        <time>2011-02-06T10:05:32.000Z</time>
      </trkpt>
      <trkpt lat="45.18718" lon="5.67074">
        <ele>409</ele>
        <time>2011-02-06T10:05:35.000Z</time>
      </trkpt>
      <trkpt lat="45.18728" lon="5.67077">
        <ele>409</ele>
        <time>2011-02-06T10:05:39.000Z</time>
      </trkpt>
      <trkpt lat="45.1873" lon="5.67077">
        <ele>409</ele>
        <time>2011-02-06T10:05:40.000Z</time>
      </trkpt>
      <trkpt lat="45.18742" lon="5.67077">
        <ele>409</ele>
        <time>2011-02-06T10:05:45.000Z</time>
      </trkpt>
      <trkpt lat="45.18747" lon="5.67076">
        <ele>409</ele>
        <time>2011-02-06T10:05:47.000Z</time>
      </trkpt>
      <trkpt lat="45.18754" lon="5.67076">
        <ele>409</ele>
        <time>2011-02-06T10:05:50.000Z</time>
      </trkpt>
      <trkpt lat="45.18766" lon="5.6708">
        <ele>409.39999389648</ele>
        <time>2011-02-06T10:05:55.000Z</time>
      </trkpt>
      <trkpt lat="45.18773" lon="5.67085">
        <ele>409.20001220703</ele>
        <time>2011-02-06T10:05:58.000Z</time>
      </trkpt>
      <trkpt lat="45.18775" lon="5.67087">
        <ele>409.20001220703</ele>
        <time>2011-02-06T10:05:59.000Z</time>
      </trkpt>
      <trkpt lat="45.18782" lon="5.67093">
        <ele>408.79998779297</ele>
        <time>2011-02-06T10:06:02.000Z</time>
      </trkpt>
      <trkpt lat="45.18784" lon="5.67094">
        <ele>408.60000610352</ele>
        <time>2011-02-06T10:06:03.000Z</time>
      </trkpt>
      <trkpt lat="45.18786" lon="5.67094">
        <ele>408.60000610352</ele>
        <time>2011-02-06T10:06:04.000Z</time>
      </trkpt>
      <trkpt lat="45.18789" lon="5.67094">
        <ele>408.79998779297</ele>
        <time>2011-02-06T10:06:05.000Z</time>
      </trkpt>
      <trkpt lat="45.18795" lon="5.67093">
        <ele>409</ele>
        <time>2011-02-06T10:06:08.000Z</time>
      </trkpt>
      <trkpt lat="45.18804" lon="5.67095">
        <ele>409</ele>
        <time>2011-02-06T10:06:12.000Z</time>
      </trkpt>
      <trkpt lat="45.18808" lon="5.67096">
        <ele>409</ele>
        <time>2011-02-06T10:06:13.000Z</time>
      </trkpt>
      <trkpt lat="45.18815" lon="5.67098">
        <ele>409</ele>
        <time>2011-02-06T10:06:15.000Z</time>
      </trkpt>
      <trkpt lat="45.1882" lon="5.67099">
        <ele>409</ele>
        <time>2011-02-06T10:06:17.000Z</time>
      </trkpt>
      <trkpt lat="45.18823" lon="5.67099">
        <ele>409.20001220703</ele>
        <time>2011-02-06T10:06:18.000Z</time>
      </trkpt>
      <trkpt lat="45.18826" lon="5.67099">
        <ele>409.20001220703</ele>
        <time>2011-02-06T10:06:19.000Z</time>
      </trkpt>
      <trkpt lat="45.18841" lon="5.67104">
        <ele>408.20001220703</ele>
        <time>2011-02-06T10:06:24.000Z</time>
      </trkpt>
      <trkpt lat="45.18844" lon="5.67103">
        <ele>408</ele>
        <time>2011-02-06T10:06:25.000Z</time>
      </trkpt>
      <trkpt lat="45.18858" lon="5.67101">
        <ele>406.60000610352</ele>
        <time>2011-02-06T10:06:31.000Z</time>
      </trkpt>
      <trkpt lat="45.18861" lon="5.671">
        <ele>406.39999389648</ele>
        <time>2011-02-06T10:06:32.000Z</time>
      </trkpt>
      <trkpt lat="45.18869" lon="5.671">
        <ele>405.60000610352</ele>
        <time>2011-02-06T10:06:35.000Z</time>
      </trkpt>
      <trkpt lat="45.1888" lon="5.67101">
        <ele>404.39999389648</ele>
        <time>2011-02-06T10:06:39.000Z</time>
      </trkpt>
      <trkpt lat="45.1889" lon="5.67096">
        <ele>403.79998779297</ele>
        <time>2011-02-06T10:06:44.000Z</time>
      </trkpt>
      <trkpt lat="45.18897" lon="5.67092">
        <ele>403.39999389648</ele>
        <time>2011-02-06T10:06:47.000Z</time>
      </trkpt>
      <trkpt lat="45.18902" lon="5.6709">
        <ele>403</ele>
        <time>2011-02-06T10:06:49.000Z</time>
      </trkpt>
      <trkpt lat="45.18912" lon="5.67084">
        <ele>402.39999389648</ele>
        <time>2011-02-06T10:06:54.000Z</time>
      </trkpt>
      <trkpt lat="45.18915" lon="5.67081">
        <ele>402.20001220703</ele>
        <time>2011-02-06T10:06:56.000Z</time>
      </trkpt>
      <trkpt lat="45.1892" lon="5.67076">
        <ele>401.39999389648</ele>
        <time>2011-02-06T10:07:00.000Z</time>
      </trkpt>
      <trkpt lat="45.18927" lon="5.67064">
        <ele>400</ele>
        <time>2011-02-06T10:07:05.000Z</time>
      </trkpt>
      <trkpt lat="45.18929" lon="5.67061">
        <ele>399.79998779297</ele>
        <time>2011-02-06T10:07:06.000Z</time>
      </trkpt>
      <trkpt lat="45.18936" lon="5.67044">
        <ele>398.79998779297</ele>
        <time>2011-02-06T10:07:11.000Z</time>
      </trkpt>
      <trkpt lat="45.18939" lon="5.67038">
        <ele>398.60000610352</ele>
        <time>2011-02-06T10:07:13.000Z</time>
      </trkpt>
      <trkpt lat="45.18943" lon="5.6703">
        <ele>398</ele>
        <time>2011-02-06T10:07:16.000Z</time>
      </trkpt>
      <trkpt lat="45.18945" lon="5.67028">
        <ele>397.79998779297</ele>
        <time>2011-02-06T10:07:17.000Z</time>
      </trkpt>
      <trkpt lat="45.18952" lon="5.67019">
        <ele>396.79998779297</ele>
        <time>2011-02-06T10:07:21.000Z</time>
      </trkpt>
      <trkpt lat="45.18953" lon="5.67016">
        <ele>396.39999389648</ele>
        <time>2011-02-06T10:07:22.000Z</time>
      </trkpt>
      <trkpt lat="45.18963" lon="5.67006">
        <ele>395</ele>
        <time>2011-02-06T10:07:26.000Z</time>
      </trkpt>
      <trkpt lat="45.18967" lon="5.67002">
        <ele>394.39999389648</ele>
        <time>2011-02-06T10:07:28.000Z</time>
      </trkpt>
      <trkpt lat="45.18974" lon="5.66996">
        <ele>393</ele>
        <time>2011-02-06T10:07:32.000Z</time>
      </trkpt>
      <trkpt lat="45.18985" lon="5.6699">
        <ele>391</ele>
        <time>2011-02-06T10:07:37.000Z</time>
      </trkpt>
      <trkpt lat="45.18989" lon="5.66988">
        <ele>390.39999389648</ele>
        <time>2011-02-06T10:07:39.000Z</time>
      </trkpt>
      <trkpt lat="45.18993" lon="5.66989">
        <ele>389.39999389648</ele>
        <time>2011-02-06T10:07:42.000Z</time>
      </trkpt>
      <trkpt lat="45.19" lon="5.66988">
        <ele>388</ele>
        <time>2011-02-06T10:07:47.000Z</time>
      </trkpt>
      <trkpt lat="45.19002" lon="5.66986">
        <ele>387.60000610352</ele>
        <time>2011-02-06T10:07:48.000Z</time>
      </trkpt>
      <trkpt lat="45.19004" lon="5.66986">
        <ele>387</ele>
        <time>2011-02-06T10:07:49.000Z</time>
      </trkpt>
      <trkpt lat="45.19008" lon="5.66985">
        <ele>386</ele>
        <time>2011-02-06T10:07:51.000Z</time>
      </trkpt>
      <trkpt lat="45.19016" lon="5.66983">
        <ele>383.79998779297</ele>
        <time>2011-02-06T10:07:56.000Z</time>
      </trkpt>
      <trkpt lat="45.19019" lon="5.66981">
        <ele>383</ele>
        <time>2011-02-06T10:07:58.000Z</time>
      </trkpt>
      <trkpt lat="45.19023" lon="5.6698">
        <ele>382</ele>
        <time>2011-02-06T10:08:00.000Z</time>
      </trkpt>
      <trkpt lat="45.19027" lon="5.66978">
        <ele>381</ele>
        <time>2011-02-06T10:08:02.000Z</time>
      </trkpt>
      <trkpt lat="45.19036" lon="5.66969">
        <ele>379</ele>
        <time>2011-02-06T10:08:07.000Z</time>
      </trkpt>
      <trkpt lat="45.19038" lon="5.66968">
        <ele>378.39999389648</ele>
        <time>2011-02-06T10:08:08.000Z</time>
      </trkpt>
      <trkpt lat="45.19039" lon="5.66968">
        <ele>377.79998779297</ele>
        <time>2011-02-06T10:08:09.000Z</time>
      </trkpt>
      <trkpt lat="45.19041" lon="5.66967">
        <ele>377.39999389648</ele>
        <time>2011-02-06T10:08:10.000Z</time>
      </trkpt>
      <trkpt lat="45.19042" lon="5.66964">
        <ele>377.20001220703</ele>
        <time>2011-02-06T10:08:12.000Z</time>
      </trkpt>
      <trkpt lat="45.19043" lon="5.66956">
        <ele>377.20001220703</ele>
        <time>2011-02-06T10:08:18.000Z</time>
      </trkpt>
      <trkpt lat="45.19044" lon="5.66951">
        <ele>377.20001220703</ele>
        <time>2011-02-06T10:08:22.000Z</time>
      </trkpt>
      <trkpt lat="45.19045" lon="5.6695">
        <ele>377.20001220703</ele>
        <time>2011-02-06T10:08:23.000Z</time>
      </trkpt>
      <trkpt lat="45.19045" lon="5.66942">
        <ele>377.39999389648</ele>
        <time>2011-02-06T10:08:28.000Z</time>
      </trkpt>
      <trkpt lat="45.19045" lon="5.66939">
        <ele>377.60000610352</ele>
        <time>2011-02-06T10:08:29.000Z</time>
      </trkpt>
      <trkpt lat="45.19048" lon="5.66928">
        <ele>377.20001220703</ele>
        <time>2011-02-06T10:08:33.000Z</time>
      </trkpt>
      <trkpt lat="45.19052" lon="5.66925">
        <ele>375.79998779297</ele>
        <time>2011-02-06T10:08:36.000Z</time>
      </trkpt>
      <trkpt lat="45.19052" lon="5.66928">
        <ele>375.60000610352</ele>
        <time>2011-02-06T10:08:37.000Z</time>
      </trkpt>
      <trkpt lat="45.19052" lon="5.66934">
        <ele>375.60000610352</ele>
        <time>2011-02-06T10:08:39.000Z</time>
      </trkpt>
      <trkpt lat="45.19053" lon="5.66948">
        <ele>374.39999389648</ele>
        <time>2011-02-06T10:08:44.000Z</time>
      </trkpt>
      <trkpt lat="45.19054" lon="5.66954">
        <ele>374</ele>
        <time>2011-02-06T10:08:46.000Z</time>
      </trkpt>
      <trkpt lat="45.19055" lon="5.66959">
        <ele>373.20001220703</ele>
        <time>2011-02-06T10:08:48.000Z</time>
      </trkpt>
      <trkpt lat="45.19057" lon="5.66962">
        <ele>372.79998779297</ele>
        <time>2011-02-06T10:08:49.000Z</time>
      </trkpt>
      <trkpt lat="45.19062" lon="5.66976">
        <ele>370.39999389648</ele>
        <time>2011-02-06T10:08:54.000Z</time>
      </trkpt>
      <trkpt lat="45.19067" lon="5.66993">
        <ele>368.79998779297</ele>
        <time>2011-02-06T10:08:59.000Z</time>
      </trkpt>
      <trkpt lat="45.19068" lon="5.67004">
        <ele>367.39999389648</ele>
        <time>2011-02-06T10:09:02.000Z</time>
      </trkpt>
      <trkpt lat="45.19067" lon="5.67011">
        <ele>366.60000610352</ele>
        <time>2011-02-06T10:09:04.000Z</time>
      </trkpt>
      <trkpt lat="45.19059" lon="5.67025">
        <ele>366.79998779297</ele>
        <time>2011-02-06T10:09:09.000Z</time>
      </trkpt>
      <trkpt lat="45.19046" lon="5.67039">
        <ele>368.79998779297</ele>
        <time>2011-02-06T10:09:15.000Z</time>
      </trkpt>
      <trkpt lat="45.19044" lon="5.67042">
        <ele>369</ele>
        <time>2011-02-06T10:09:16.000Z</time>
      </trkpt>
      <trkpt lat="45.19038" lon="5.67054">
        <ele>369.60000610352</ele>
        <time>2011-02-06T10:09:20.000Z</time>
      </trkpt>
      <trkpt lat="45.19034" lon="5.67063">
        <ele>369.60000610352</ele>
        <time>2011-02-06T10:09:23.000Z</time>
      </trkpt>
      <trkpt lat="45.1903" lon="5.67074">
        <ele>369.79998779297</ele>
        <time>2011-02-06T10:09:26.000Z</time>
      </trkpt>
      <trkpt lat="45.19026" lon="5.67087">
        <ele>369.39999389648</ele>
        <time>2011-02-06T10:09:29.000Z</time>
      </trkpt>
      <trkpt lat="45.19023" lon="5.67094">
        <ele>368.79998779297</ele>
        <time>2011-02-06T10:09:31.000Z</time>
      </trkpt>
      <trkpt lat="45.19014" lon="5.67109">
        <ele>369.60000610352</ele>
        <time>2011-02-06T10:09:36.000Z</time>
      </trkpt>
      <trkpt lat="45.19003" lon="5.67128">
        <ele>372.20001220703</ele>
        <time>2011-02-06T10:09:42.000Z</time>
      </trkpt>
      <trkpt lat="45.19001" lon="5.67131">
        <ele>372.79998779297</ele>
        <time>2011-02-06T10:09:43.000Z</time>
      </trkpt>
      <trkpt lat="45.18993" lon="5.67142">
        <ele>374.39999389648</ele>
        <time>2011-02-06T10:09:47.000Z</time>
      </trkpt>
      <trkpt lat="45.18988" lon="5.67152">
        <ele>374.60000610352</ele>
        <time>2011-02-06T10:09:50.000Z</time>
      </trkpt>
      <trkpt lat="45.18987" lon="5.67156">
        <ele>374.39999389648</ele>
        <time>2011-02-06T10:09:51.000Z</time>
      </trkpt>
      <trkpt lat="45.18983" lon="5.67173">
        <ele>373.20001220703</ele>
        <time>2011-02-06T10:09:55.000Z</time>
      </trkpt>
      <trkpt lat="45.18983" lon="5.67177">
        <ele>372.79998779297</ele>
        <time>2011-02-06T10:09:56.000Z</time>
      </trkpt>
      <trkpt lat="45.18982" lon="5.67188">
        <ele>371</ele>
        <time>2011-02-06T10:09:59.000Z</time>
      </trkpt>
      <trkpt lat="45.18978" lon="5.67205">
        <ele>369.39999389648</ele>
        <time>2011-02-06T10:10:04.000Z</time>
      </trkpt>
      <trkpt lat="45.18977" lon="5.67208">
        <ele>369.20001220703</ele>
        <time>2011-02-06T10:10:05.000Z</time>
      </trkpt>
      <trkpt lat="45.1897" lon="5.67224">
        <ele>368.79998779297</ele>
        <time>2011-02-06T10:10:11.000Z</time>
      </trkpt>
      <trkpt lat="45.18969" lon="5.67227">
        <ele>368.60000610352</ele>
        <time>2011-02-06T10:10:13.000Z</time>
      </trkpt>
      <trkpt lat="45.18968" lon="5.6723">
        <ele>368.39999389648</ele>
        <time>2011-02-06T10:10:14.000Z</time>
      </trkpt>
      <trkpt lat="45.18968" lon="5.67237">
        <ele>367.20001220703</ele>
        <time>2011-02-06T10:10:16.000Z</time>
      </trkpt>
      <trkpt lat="45.18961" lon="5.67248">
        <ele>367.39999389648</ele>
        <time>2011-02-06T10:10:20.000Z</time>
      </trkpt>
      <trkpt lat="45.18959" lon="5.6725">
        <ele>367.79998779297</ele>
        <time>2011-02-06T10:10:21.000Z</time>
      </trkpt>
      <trkpt lat="45.18956" lon="5.67252">
        <ele>368.20001220703</ele>
        <time>2011-02-06T10:10:22.000Z</time>
      </trkpt>
      <trkpt lat="45.18951" lon="5.67257">
        <ele>369</ele>
        <time>2011-02-06T10:10:25.000Z</time>
      </trkpt>
      <trkpt lat="45.18943" lon="5.67267">
        <ele>370</ele>
        <time>2011-02-06T10:10:30.000Z</time>
      </trkpt>
      <trkpt lat="45.18942" lon="5.67269">
        <ele>370</ele>
        <time>2011-02-06T10:10:31.000Z</time>
      </trkpt>
      <trkpt lat="45.18937" lon="5.67286">
        <ele>369.20001220703</ele>
        <time>2011-02-06T10:10:37.000Z</time>
      </trkpt>
      <trkpt lat="45.18936" lon="5.6729">
        <ele>369</ele>
        <time>2011-02-06T10:10:39.000Z</time>
      </trkpt>
      <trkpt lat="45.18935" lon="5.67295">
        <ele>368.39999389648</ele>
        <time>2011-02-06T10:10:41.000Z</time>
      </trkpt>
      <trkpt lat="45.18938" lon="5.67305">
        <ele>366</ele>
        <time>2011-02-06T10:10:47.000Z</time>
      </trkpt>
      <trkpt lat="45.18939" lon="5.67311">
        <ele>364.60000610352</ele>
        <time>2011-02-06T10:10:50.000Z</time>
      </trkpt>
      <trkpt lat="45.1894" lon="5.67315">
        <ele>363.60000610352</ele>
        <time>2011-02-06T10:10:52.000Z</time>
      </trkpt>
      <trkpt lat="45.1894" lon="5.67318">
        <ele>363</ele>
        <time>2011-02-06T10:10:53.000Z</time>
      </trkpt>
      <trkpt lat="45.18936" lon="5.6733">
        <ele>362.79998779297</ele>
        <time>2011-02-06T10:10:58.000Z</time>
      </trkpt>
      <trkpt lat="45.18936" lon="5.67332">
        <ele>362.79998779297</ele>
        <time>2011-02-06T10:10:59.000Z</time>
      </trkpt>
      <trkpt lat="45.18934" lon="5.6734">
        <ele>362</ele>
        <time>2011-02-06T10:11:03.000Z</time>
      </trkpt>
      <trkpt lat="45.18937" lon="5.67352">
        <ele>358.79998779297</ele>
        <time>2011-02-06T10:11:09.000Z</time>
      </trkpt>
      <trkpt lat="45.18938" lon="5.67358">
        <ele>357.39999389648</ele>
        <time>2011-02-06T10:11:12.000Z</time>
      </trkpt>
      <trkpt lat="45.18939" lon="5.67366">
        <ele>355.79998779297</ele>
        <time>2011-02-06T10:11:15.000Z</time>
      </trkpt>
      <trkpt lat="45.18939" lon="5.67368">
        <ele>355.20001220703</ele>
        <time>2011-02-06T10:11:16.000Z</time>
      </trkpt>
      <trkpt lat="45.18942" lon="5.6738">
        <ele>352</ele>
        <time>2011-02-06T10:11:22.000Z</time>
      </trkpt>
      <trkpt lat="45.18943" lon="5.67385">
        <ele>350.79998779297</ele>
        <time>2011-02-06T10:11:24.000Z</time>
      </trkpt>
      <trkpt lat="45.18944" lon="5.6739">
        <ele>349.60000610352</ele>
        <time>2011-02-06T10:11:26.000Z</time>
      </trkpt>
      <trkpt lat="45.18945" lon="5.67393">
        <ele>349</ele>
        <time>2011-02-06T10:11:27.000Z</time>
      </trkpt>
      <trkpt lat="45.18948" lon="5.67406">
        <ele>345.60000610352</ele>
        <time>2011-02-06T10:11:31.000Z</time>
      </trkpt>
      <trkpt lat="45.18949" lon="5.67409">
        <ele>345</ele>
        <time>2011-02-06T10:11:32.000Z</time>
      </trkpt>
      <trkpt lat="45.18951" lon="5.67415">
        <ele>343.39999389648</ele>
        <time>2011-02-06T10:11:34.000Z</time>
      </trkpt>
      <trkpt lat="45.18952" lon="5.67424">
        <ele>341.39999389648</ele>
        <time>2011-02-06T10:11:37.000Z</time>
      </trkpt>
      <trkpt lat="45.18953" lon="5.67432">
        <ele>339.79998779297</ele>
        <time>2011-02-06T10:11:40.000Z</time>
      </trkpt>
      <trkpt lat="45.18954" lon="5.67438">
        <ele>338.39999389648</ele>
        <time>2011-02-06T10:11:43.000Z</time>
      </trkpt>
      <trkpt lat="45.18954" lon="5.67441">
        <ele>338</ele>
        <time>2011-02-06T10:11:44.000Z</time>
      </trkpt>
      <trkpt lat="45.18953" lon="5.67451">
        <ele>336.60000610352</ele>
        <time>2011-02-06T10:11:47.000Z</time>
      </trkpt>
      <trkpt lat="45.18957" lon="5.67466">
        <ele>332.79998779297</ele>
        <time>2011-02-06T10:11:51.000Z</time>
      </trkpt>
      <trkpt lat="45.18957" lon="5.6747">
        <ele>332</ele>
        <time>2011-02-06T10:11:52.000Z</time>
      </trkpt>
      <trkpt lat="45.18961" lon="5.67482">
        <ele>328.60000610352</ele>
        <time>2011-02-06T10:11:57.000Z</time>
      </trkpt>
      <trkpt lat="45.18964" lon="5.67482">
        <ele>327.20001220703</ele>
        <time>2011-02-06T10:11:59.000Z</time>
      </trkpt>
      <trkpt lat="45.18967" lon="5.67482">
        <ele>326.20001220703</ele>
        <time>2011-02-06T10:12:00.000Z</time>
      </trkpt>
      <trkpt lat="45.18969" lon="5.67483">
        <ele>325.20001220703</ele>
        <time>2011-02-06T10:12:01.000Z</time>
      </trkpt>
      <trkpt lat="45.18981" lon="5.67487">
        <ele>320.20001220703</ele>
        <time>2011-02-06T10:12:07.000Z</time>
      </trkpt>
      <trkpt lat="45.18985" lon="5.6749">
        <ele>318.39999389648</ele>
        <time>2011-02-06T10:12:09.000Z</time>
      </trkpt>
      <trkpt lat="45.18986" lon="5.67492">
        <ele>317.39999389648</ele>
        <time>2011-02-06T10:12:10.000Z</time>
      </trkpt>
      <trkpt lat="45.18987" lon="5.67495">
        <ele>316.39999389648</ele>
        <time>2011-02-06T10:12:11.000Z</time>
      </trkpt>
      <trkpt lat="45.1899" lon="5.6751">
        <ele>312</ele>
        <time>2011-02-06T10:12:16.000Z</time>
      </trkpt>
      <trkpt lat="45.1899" lon="5.67513">
        <ele>311.20001220703</ele>
        <time>2011-02-06T10:12:17.000Z</time>
      </trkpt>
      <trkpt lat="45.18989" lon="5.67516">
        <ele>310.60000610352</ele>
        <time>2011-02-06T10:12:18.000Z</time>
      </trkpt>
      <trkpt lat="45.18988" lon="5.67525">
        <ele>308.60000610352</ele>
        <time>2011-02-06T10:12:21.000Z</time>
      </trkpt>
      <trkpt lat="45.18989" lon="5.6754">
        <ele>304.39999389648</ele>
        <time>2011-02-06T10:12:26.000Z</time>
      </trkpt>
      <trkpt lat="45.18989" lon="5.67543">
        <ele>303.39999389648</ele>
        <time>2011-02-06T10:12:27.000Z</time>
      </trkpt>
      <trkpt lat="45.18988" lon="5.67556">
        <ele>300.60000610352</ele>
        <time>2011-02-06T10:12:32.000Z</time>
      </trkpt>
      <trkpt lat="45.18988" lon="5.6757">
        <ele>296.60000610352</ele>
        <time>2011-02-06T10:12:37.000Z</time>
      </trkpt>
      <trkpt lat="45.18995" lon="5.67588">
        <ele>287.39999389648</ele>
        <time>2011-02-06T10:12:43.000Z</time>
      </trkpt>
      <trkpt lat="45.18997" lon="5.67593">
        <ele>285.20001220703</ele>
        <time>2011-02-06T10:12:44.000Z</time>
      </trkpt>
      <trkpt lat="45.18996" lon="5.67601">
        <ele>282.60000610352</ele>
        <time>2011-02-06T10:12:46.000Z</time>
      </trkpt>
      <trkpt lat="45.1899" lon="5.67616">
        <ele>280.60000610352</ele>
        <time>2011-02-06T10:12:51.000Z</time>
      </trkpt>
      <trkpt lat="45.18988" lon="5.67619">
        <ele>280.60000610352</ele>
        <time>2011-02-06T10:12:52.000Z</time>
      </trkpt>
      <trkpt lat="45.1898" lon="5.67633">
        <ele>281</ele>
        <time>2011-02-06T10:12:57.000Z</time>
      </trkpt>
      <trkpt lat="45.18974" lon="5.67638">
        <ele>283</ele>
        <time>2011-02-06T10:13:00.000Z</time>
      </trkpt>
      <trkpt lat="45.18966" lon="5.67646">
        <ele>285.79998779297</ele>
        <time>2011-02-06T10:13:04.000Z</time>
      </trkpt>
      <trkpt lat="45.18957" lon="5.67654">
        <ele>289.79998779297</ele>
        <time>2011-02-06T10:13:09.000Z</time>
      </trkpt>
      <trkpt lat="45.18954" lon="5.67657">
        <ele>291.39999389648</ele>
        <time>2011-02-06T10:13:11.000Z</time>
      </trkpt>
      <trkpt lat="45.18942" lon="5.67666">
        <ele>297.79998779297</ele>
        <time>2011-02-06T10:13:17.000Z</time>
      </trkpt>
      <trkpt lat="45.1894" lon="5.67668">
        <ele>299</ele>
        <time>2011-02-06T10:13:18.000Z</time>
      </trkpt>
      <trkpt lat="45.18932" lon="5.67671">
        <ele>304.20001220703</ele>
        <time>2011-02-06T10:13:23.000Z</time>
      </trkpt>
      <trkpt lat="45.18931" lon="5.67671">
        <ele>304.79998779297</ele>
        <time>2011-02-06T10:13:24.000Z</time>
      </trkpt>
      <trkpt lat="45.18923" lon="5.67673">
        <ele>310.20001220703</ele>
        <time>2011-02-06T10:13:28.000Z</time>
      </trkpt>
      <trkpt lat="45.18921" lon="5.67674">
        <ele>311.39999389648</ele>
        <time>2011-02-06T10:13:29.000Z</time>
      </trkpt>
      <trkpt lat="45.18916" lon="5.67678">
        <ele>314.20001220703</ele>
        <time>2011-02-06T10:13:32.000Z</time>
      </trkpt>
      <trkpt lat="45.1891" lon="5.67684">
        <ele>314</ele>
        <time>2011-02-06T10:13:35.000Z</time>
      </trkpt>
      <trkpt lat="45.18905" lon="5.6769">
        <ele>313.60000610352</ele>
        <time>2011-02-06T10:13:38.000Z</time>
      </trkpt>
      <trkpt lat="45.18902" lon="5.67692">
        <ele>313.39999389648</ele>
        <time>2011-02-06T10:13:39.000Z</time>
      </trkpt>
      <trkpt lat="45.18891" lon="5.67695">
        <ele>314.20001220703</ele>
        <time>2011-02-06T10:13:44.000Z</time>
      </trkpt>
      <trkpt lat="45.18887" lon="5.67696">
        <ele>314.39999389648</ele>
        <time>2011-02-06T10:13:46.000Z</time>
      </trkpt>
      <trkpt lat="45.1888" lon="5.67699">
        <ele>314.79998779297</ele>
        <time>2011-02-06T10:13:50.000Z</time>
      </trkpt>
      <trkpt lat="45.18872" lon="5.67701">
        <ele>315.20001220703</ele>
        <time>2011-02-06T10:13:54.000Z</time>
      </trkpt>
      <trkpt lat="45.18867" lon="5.67701">
        <ele>315.60000610352</ele>
        <time>2011-02-06T10:13:56.000Z</time>
      </trkpt>
      <trkpt lat="45.18859" lon="5.677">
        <ele>316.60000610352</ele>
        <time>2011-02-06T10:13:59.000Z</time>
      </trkpt>
      <trkpt lat="45.18848" lon="5.67696">
        <ele>318.39999389648</ele>
        <time>2011-02-06T10:14:04.000Z</time>
      </trkpt>
      <trkpt lat="45.18844" lon="5.67696">
        <ele>319</ele>
        <time>2011-02-06T10:14:06.000Z</time>
      </trkpt>
      <trkpt lat="45.1883" lon="5.67704">
        <ele>319.20001220703</ele>
        <time>2011-02-06T10:14:13.000Z</time>
      </trkpt>
      <trkpt lat="45.18816" lon="5.67712">
        <ele>320.60000610352</ele>
        <time>2011-02-06T10:14:20.000Z</time>
      </trkpt>
      <trkpt lat="45.18814" lon="5.67714">
        <ele>320.60000610352</ele>
        <time>2011-02-06T10:14:21.000Z</time>
      </trkpt>
      <trkpt lat="45.18804" lon="5.67725">
        <ele>320.79998779297</ele>
        <time>2011-02-06T10:14:26.000Z</time>
      </trkpt>
      <trkpt lat="45.18798" lon="5.67729">
        <ele>321.20001220703</ele>
        <time>2011-02-06T10:14:29.000Z</time>
      </trkpt>
      <trkpt lat="45.18791" lon="5.67734">
        <ele>321.60000610352</ele>
        <time>2011-02-06T10:14:32.000Z</time>
      </trkpt>
      <trkpt lat="45.18778" lon="5.67739">
        <ele>323.20001220703</ele>
        <time>2011-02-06T10:14:37.000Z</time>
      </trkpt>
      <trkpt lat="45.18776" lon="5.6774">
        <ele>323.60000610352</ele>
        <time>2011-02-06T10:14:38.000Z</time>
      </trkpt>
      <trkpt lat="45.18765" lon="5.67745">
        <ele>324.79998779297</ele>
        <time>2011-02-06T10:14:43.000Z</time>
      </trkpt>
      <trkpt lat="45.18761" lon="5.67752">
        <ele>324.39999389648</ele>
        <time>2011-02-06T10:14:46.000Z</time>
      </trkpt>
      <trkpt lat="45.18756" lon="5.6776">
        <ele>324</ele>
        <time>2011-02-06T10:14:49.000Z</time>
      </trkpt>
      <trkpt lat="45.18748" lon="5.67772">
        <ele>323.39999389648</ele>
        <time>2011-02-06T10:14:54.000Z</time>
      </trkpt>
      <trkpt lat="45.18746" lon="5.67774">
        <ele>323.20001220703</ele>
        <time>2011-02-06T10:14:55.000Z</time>
      </trkpt>
      <trkpt lat="45.1874" lon="5.67787">
        <ele>321.60000610352</ele>
        <time>2011-02-06T10:15:00.000Z</time>
      </trkpt>
      <trkpt lat="45.18737" lon="5.67793">
        <ele>321</ele>
        <time>2011-02-06T10:15:02.000Z</time>
      </trkpt>
      <trkpt lat="45.18731" lon="5.67801">
        <ele>320.39999389648</ele>
        <time>2011-02-06T10:15:05.000Z</time>
      </trkpt>
      <trkpt lat="45.18723" lon="5.67811">
        <ele>319.79998779297</ele>
        <time>2011-02-06T10:15:09.000Z</time>
      </trkpt>
      <trkpt lat="45.1872" lon="5.67814">
        <ele>319.60000610352</ele>
        <time>2011-02-06T10:15:10.000Z</time>
      </trkpt>
      <trkpt lat="45.1871" lon="5.67828">
        <ele>318.60000610352</ele>
        <time>2011-02-06T10:15:15.000Z</time>
      </trkpt>
      <trkpt lat="45.18708" lon="5.67831">
        <ele>318.39999389648</ele>
        <time>2011-02-06T10:15:16.000Z</time>
      </trkpt>
      <trkpt lat="45.187" lon="5.67842">
        <ele>318</ele>
        <time>2011-02-06T10:15:20.000Z</time>
      </trkpt>
      <trkpt lat="45.18694" lon="5.67849">
        <ele>318</ele>
        <time>2011-02-06T10:15:23.000Z</time>
      </trkpt>
      <trkpt lat="45.1869" lon="5.67855">
        <ele>317.79998779297</ele>
        <time>2011-02-06T10:15:25.000Z</time>
      </trkpt>
      <trkpt lat="45.18681" lon="5.67867">
        <ele>317.39999389648</ele>
        <time>2011-02-06T10:15:29.000Z</time>
      </trkpt>
      <trkpt lat="45.18678" lon="5.67873">
        <ele>317.20001220703</ele>
        <time>2011-02-06T10:15:31.000Z</time>
      </trkpt>
      <trkpt lat="45.18667" lon="5.67888">
        <ele>316.60000610352</ele>
        <time>2011-02-06T10:15:36.000Z</time>
      </trkpt>
      <trkpt lat="45.18665" lon="5.67891">
        <ele>316.60000610352</ele>
        <time>2011-02-06T10:15:37.000Z</time>
      </trkpt>
      <trkpt lat="45.18654" lon="5.67905">
        <ele>315.79998779297</ele>
        <time>2011-02-06T10:15:42.000Z</time>
      </trkpt>
      <trkpt lat="45.18651" lon="5.67907">
        <ele>315.79998779297</ele>
        <time>2011-02-06T10:15:43.000Z</time>
      </trkpt>
      <trkpt lat="45.18638" lon="5.67917">
        <ele>316</ele>
        <time>2011-02-06T10:15:48.000Z</time>
      </trkpt>
      <trkpt lat="45.18635" lon="5.67919">
        <ele>316</ele>
        <time>2011-02-06T10:15:49.000Z</time>
      </trkpt>
      <trkpt lat="45.18626" lon="5.67928">
        <ele>315.79998779297</ele>
        <time>2011-02-06T10:15:53.000Z</time>
      </trkpt>
      <trkpt lat="45.1862" lon="5.67935">
        <ele>315.79998779297</ele>
        <time>2011-02-06T10:15:56.000Z</time>
      </trkpt>
      <trkpt lat="45.18618" lon="5.67937">
        <ele>315.79998779297</ele>
        <time>2011-02-06T10:15:57.000Z</time>
      </trkpt>
      <trkpt lat="45.18608" lon="5.67949">
        <ele>316</ele>
        <time>2011-02-06T10:16:02.000Z</time>
      </trkpt>
      <trkpt lat="45.18606" lon="5.67952">
        <ele>316.20001220703</ele>
        <time>2011-02-06T10:16:03.000Z</time>
      </trkpt>
      <trkpt lat="45.18597" lon="5.67964">
        <ele>317</ele>
        <time>2011-02-06T10:16:08.000Z</time>
      </trkpt>
      <trkpt lat="45.18592" lon="5.6797">
        <ele>317.39999389648</ele>
        <time>2011-02-06T10:16:10.000Z</time>
      </trkpt>
      <trkpt lat="45.18586" lon="5.67983">
        <ele>318.20001220703</ele>
        <time>2011-02-06T10:16:14.000Z</time>
      </trkpt>
      <trkpt lat="45.18581" lon="5.67992">
        <ele>318.60000610352</ele>
        <time>2011-02-06T10:16:17.000Z</time>
      </trkpt>
      <trkpt lat="45.18578" lon="5.67998">
        <ele>318.79998779297</ele>
        <time>2011-02-06T10:16:19.000Z</time>
      </trkpt>
      <trkpt lat="45.18574" lon="5.68008">
        <ele>318.60000610352</ele>
        <time>2011-02-06T10:16:23.000Z</time>
      </trkpt>
      <trkpt lat="45.18573" lon="5.68013">
        <ele>318.20001220703</ele>
        <time>2011-02-06T10:16:25.000Z</time>
      </trkpt>
      <trkpt lat="45.18574" lon="5.68015">
        <ele>317.79998779297</ele>
        <time>2011-02-06T10:16:26.000Z</time>
      </trkpt>
      <trkpt lat="45.18574" lon="5.68017">
        <ele>317.39999389648</ele>
        <time>2011-02-06T10:16:27.000Z</time>
      </trkpt>
      <trkpt lat="45.18574" lon="5.68028">
        <ele>316.20001220703</ele>
        <time>2011-02-06T10:16:30.000Z</time>
      </trkpt>
      <trkpt lat="45.18574" lon="5.6804">
        <ele>314.60000610352</ele>
        <time>2011-02-06T10:16:33.000Z</time>
      </trkpt>
      <trkpt lat="45.18573" lon="5.68054">
        <ele>313.60000610352</ele>
        <time>2011-02-06T10:16:36.000Z</time>
      </trkpt>
      <trkpt lat="45.18571" lon="5.68066">
        <ele>312.39999389648</ele>
        <time>2011-02-06T10:16:39.000Z</time>
      </trkpt>
      <trkpt lat="45.18568" lon="5.68077">
        <ele>311.60000610352</ele>
        <time>2011-02-06T10:16:42.000Z</time>
      </trkpt>
      <trkpt lat="45.18564" lon="5.68092">
        <ele>310.79998779297</ele>
        <time>2011-02-06T10:16:46.000Z</time>
      </trkpt>
      <trkpt lat="45.18563" lon="5.68096">
        <ele>310.60000610352</ele>
        <time>2011-02-06T10:16:47.000Z</time>
      </trkpt>
      <trkpt lat="45.18556" lon="5.68117">
        <ele>309.79998779297</ele>
        <time>2011-02-06T10:16:53.000Z</time>
      </trkpt>
      <trkpt lat="45.18551" lon="5.68137">
        <ele>308.79998779297</ele>
        <time>2011-02-06T10:16:58.000Z</time>
      </trkpt>
      <trkpt lat="45.1855" lon="5.68144">
        <ele>308.39999389648</ele>
        <time>2011-02-06T10:17:00.000Z</time>
      </trkpt>
      <trkpt lat="45.18548" lon="5.68155">
        <ele>307.60000610352</ele>
        <time>2011-02-06T10:17:03.000Z</time>
      </trkpt>
      <trkpt lat="45.18543" lon="5.6817">
        <ele>307</ele>
        <time>2011-02-06T10:17:07.000Z</time>
      </trkpt>
      <trkpt lat="45.18541" lon="5.68178">
        <ele>306.20001220703</ele>
        <time>2011-02-06T10:17:09.000Z</time>
      </trkpt>
      <trkpt lat="45.18536" lon="5.68194">
        <ele>305.60000610352</ele>
        <time>2011-02-06T10:17:13.000Z</time>
      </trkpt>
      <trkpt lat="45.18532" lon="5.68205">
        <ele>305.39999389648</ele>
        <time>2011-02-06T10:17:16.000Z</time>
      </trkpt>
      <trkpt lat="45.18529" lon="5.6822">
        <ele>304.60000610352</ele>
        <time>2011-02-06T10:17:20.000Z</time>
      </trkpt>
      <trkpt lat="45.18529" lon="5.68224">
        <ele>304.39999389648</ele>
        <time>2011-02-06T10:17:21.000Z</time>
      </trkpt>
      <trkpt lat="45.18524" lon="5.68245">
        <ele>304.20001220703</ele>
        <time>2011-02-06T10:17:26.000Z</time>
      </trkpt>
      <trkpt lat="45.18522" lon="5.68249">
        <ele>304.79998779297</ele>
        <time>2011-02-06T10:17:27.000Z</time>
      </trkpt>
      <trkpt lat="45.18512" lon="5.68268">
        <ele>307.20001220703</ele>
        <time>2011-02-06T10:17:32.000Z</time>
      </trkpt>
      <trkpt lat="45.18504" lon="5.68285">
        <ele>309.79998779297</ele>
        <time>2011-02-06T10:17:37.000Z</time>
      </trkpt>
      <trkpt lat="45.185" lon="5.68292">
        <ele>311.60000610352</ele>
        <time>2011-02-06T10:17:39.000Z</time>
      </trkpt>
      <trkpt lat="45.18493" lon="5.68302">
        <ele>312.60000610352</ele>
        <time>2011-02-06T10:17:42.000Z</time>
      </trkpt>
      <trkpt lat="45.18486" lon="5.6831">
        <ele>313.39999389648</ele>
        <time>2011-02-06T10:17:45.000Z</time>
      </trkpt>
      <trkpt lat="45.18478" lon="5.68321">
        <ele>314</ele>
        <time>2011-02-06T10:17:48.000Z</time>
      </trkpt>
      <trkpt lat="45.18472" lon="5.68331">
        <ele>314.60000610352</ele>
        <time>2011-02-06T10:17:51.000Z</time>
      </trkpt>
      <trkpt lat="45.18467" lon="5.68339">
        <ele>313.60000610352</ele>
        <time>2011-02-06T10:17:53.000Z</time>
      </trkpt>
      <trkpt lat="45.1846" lon="5.68354">
        <ele>311</ele>
        <time>2011-02-06T10:17:57.000Z</time>
      </trkpt>
      <trkpt lat="45.18458" lon="5.68357">
        <ele>310.60000610352</ele>
        <time>2011-02-06T10:17:58.000Z</time>
      </trkpt>
      <trkpt lat="45.18452" lon="5.68376">
        <ele>306.39999389648</ele>
        <time>2011-02-06T10:18:03.000Z</time>
      </trkpt>
      <trkpt lat="45.18457" lon="5.68392">
        <ele>300.60000610352</ele>
        <time>2011-02-06T10:18:08.000Z</time>
      </trkpt>
      <trkpt lat="45.18461" lon="5.68399">
        <ele>297.20001220703</ele>
        <time>2011-02-06T10:18:13.000Z</time>
      </trkpt>
      <trkpt lat="45.18462" lon="5.684">
        <ele>296.79998779297</ele>
        <time>2011-02-06T10:18:14.000Z</time>
      </trkpt>
      <trkpt lat="45.18464" lon="5.68405">
        <ele>294.39999389648</ele>
        <time>2011-02-06T10:18:20.000Z</time>
      </trkpt>
      <trkpt lat="45.18468" lon="5.68402">
        <ele>294.39999389648</ele>
        <time>2011-02-06T10:18:58.000Z</time>
      </trkpt>
      <trkpt lat="45.18469" lon="5.68405">
        <ele>293.20001220703</ele>
        <time>2011-02-06T10:19:01.000Z</time>
      </trkpt>
      <trkpt lat="45.18473" lon="5.68413">
        <ele>289.60000610352</ele>
        <time>2011-02-06T10:19:07.000Z</time>
      </trkpt>
      <trkpt lat="45.18474" lon="5.68416">
        <ele>288.39999389648</ele>
        <time>2011-02-06T10:19:08.000Z</time>
      </trkpt>
      <trkpt lat="45.18475" lon="5.68433">
        <ele>284.60000610352</ele>
        <time>2011-02-06T10:19:14.000Z</time>
      </trkpt>
      <trkpt lat="45.18472" lon="5.68442">
        <ele>284</ele>
        <time>2011-02-06T10:19:17.000Z</time>
      </trkpt>
      <trkpt lat="45.18472" lon="5.68443">
        <ele>283.79998779297</ele>
        <time>2011-02-06T10:19:18.000Z</time>
      </trkpt>
      <trkpt lat="45.18471" lon="5.68446">
        <ele>283.60000610352</ele>
        <time>2011-02-06T10:19:19.000Z</time>
      </trkpt>
      <trkpt lat="45.18469" lon="5.68455">
        <ele>282.60000610352</ele>
        <time>2011-02-06T10:19:25.000Z</time>
      </trkpt>
      <trkpt lat="45.18464" lon="5.68466">
        <ele>282.60000610352</ele>
        <time>2011-02-06T10:19:29.000Z</time>
      </trkpt>
      <trkpt lat="45.18464" lon="5.68468">
        <ele>282.39999389648</ele>
        <time>2011-02-06T10:19:30.000Z</time>
      </trkpt>
      <trkpt lat="45.18462" lon="5.68476">
        <ele>282</ele>
        <time>2011-02-06T10:19:33.000Z</time>
      </trkpt>
      <trkpt lat="45.18457" lon="5.68489">
        <ele>281.60000610352</ele>
        <time>2011-02-06T10:19:37.000Z</time>
      </trkpt>
      <trkpt lat="45.18456" lon="5.68493">
        <ele>281.39999389648</ele>
        <time>2011-02-06T10:19:38.000Z</time>
      </trkpt>
      <trkpt lat="45.18451" lon="5.68506">
        <ele>281.79998779297</ele>
        <time>2011-02-06T10:19:42.000Z</time>
      </trkpt>
      <trkpt lat="45.18448" lon="5.68514">
        <ele>281.79998779297</ele>
        <time>2011-02-06T10:19:45.000Z</time>
      </trkpt>
      <trkpt lat="45.18446" lon="5.68522">
        <ele>281.60000610352</ele>
        <time>2011-02-06T10:19:47.000Z</time>
      </trkpt>
      <trkpt lat="45.18441" lon="5.68539">
        <ele>281.79998779297</ele>
        <time>2011-02-06T10:19:52.000Z</time>
      </trkpt>
      <trkpt lat="45.18437" lon="5.6855">
        <ele>282.20001220703</ele>
        <time>2011-02-06T10:19:57.000Z</time>
      </trkpt>
      <trkpt lat="45.18433" lon="5.6856">
        <ele>282.79998779297</ele>
        <time>2011-02-06T10:20:02.000Z</time>
      </trkpt>
      <trkpt lat="45.18432" lon="5.68563">
        <ele>283</ele>
        <time>2011-02-06T10:20:03.000Z</time>
      </trkpt>
      <trkpt lat="45.18432" lon="5.68575">
        <ele>281.60000610352</ele>
        <time>2011-02-06T10:20:07.000Z</time>
      </trkpt>
      <trkpt lat="45.18433" lon="5.6859">
        <ele>278.39999389648</ele>
        <time>2011-02-06T10:20:12.000Z</time>
      </trkpt>
      <trkpt lat="45.18432" lon="5.68596">
        <ele>276.60000610352</ele>
        <time>2011-02-06T10:20:14.000Z</time>
      </trkpt>
      <trkpt lat="45.18435" lon="5.68615">
        <ele>269.20001220703</ele>
        <time>2011-02-06T10:20:20.000Z</time>
      </trkpt>
      <trkpt lat="45.18437" lon="5.68628">
        <ele>264.79998779297</ele>
        <time>2011-02-06T10:20:25.000Z</time>
      </trkpt>
      <trkpt lat="45.18436" lon="5.6863">
        <ele>264.39999389648</ele>
        <time>2011-02-06T10:20:26.000Z</time>
      </trkpt>
      <trkpt lat="45.18431" lon="5.68636">
        <ele>264.79998779297</ele>
        <time>2011-02-06T10:20:29.000Z</time>
      </trkpt>
      <trkpt lat="45.1843" lon="5.68638">
        <ele>265.20001220703</ele>
        <time>2011-02-06T10:20:30.000Z</time>
      </trkpt>
      <trkpt lat="45.18426" lon="5.68644">
        <ele>265</ele>
        <time>2011-02-06T10:20:33.000Z</time>
      </trkpt>
      <trkpt lat="45.18422" lon="5.68649">
        <ele>265</ele>
        <time>2011-02-06T10:20:37.000Z</time>
      </trkpt>
      <trkpt lat="45.18422" lon="5.6865">
        <ele>265</ele>
        <time>2011-02-06T10:20:38.000Z</time>
      </trkpt>
      <trkpt lat="45.18421" lon="5.68651">
        <ele>265.20001220703</ele>
        <time>2011-02-06T10:20:39.000Z</time>
      </trkpt>
      <trkpt lat="45.18418" lon="5.68653">
        <ele>265.79998779297</ele>
        <time>2011-02-06T10:20:42.000Z</time>
      </trkpt>
      <trkpt lat="45.18417" lon="5.68655">
        <ele>265.60000610352</ele>
        <time>2011-02-06T10:20:43.000Z</time>
      </trkpt>
      <trkpt lat="45.18415" lon="5.68658">
        <ele>264.79998779297</ele>
        <time>2011-02-06T10:20:44.000Z</time>
      </trkpt>
      <trkpt lat="45.18412" lon="5.68663">
        <ele>262.60000610352</ele>
        <time>2011-02-06T10:20:48.000Z</time>
      </trkpt>
      <trkpt lat="45.18411" lon="5.68663">
        <ele>262.39999389648</ele>
        <time>2011-02-06T10:20:49.000Z</time>
      </trkpt>
      <trkpt lat="45.18409" lon="5.68669">
        <ele>260.20001220703</ele>
        <time>2011-02-06T10:20:52.000Z</time>
      </trkpt>
      <trkpt lat="45.18408" lon="5.68672">
        <ele>259.20001220703</ele>
        <time>2011-02-06T10:20:53.000Z</time>
      </trkpt>
      <trkpt lat="45.18405" lon="5.68676">
        <ele>257.39999389648</ele>
        <time>2011-02-06T10:20:55.000Z</time>
      </trkpt>
      <trkpt lat="45.18404" lon="5.68678">
        <ele>256.60000610352</ele>
        <time>2011-02-06T10:20:56.000Z</time>
      </trkpt>
      <trkpt lat="45.18402" lon="5.68678">
        <ele>256.20001220703</ele>
        <time>2011-02-06T10:20:57.000Z</time>
      </trkpt>
      <trkpt lat="45.18396" lon="5.68681">
        <ele>254.39999389648</ele>
        <time>2011-02-06T10:21:02.000Z</time>
      </trkpt>
      <trkpt lat="45.18392" lon="5.68681">
        <ele>254.39999389648</ele>
        <time>2011-02-06T10:21:04.000Z</time>
      </trkpt>
      <trkpt lat="45.18389" lon="5.68681">
        <ele>254</ele>
        <time>2011-02-06T10:21:06.000Z</time>
      </trkpt>
      <trkpt lat="45.18388" lon="5.68682">
        <ele>253.39999389648</ele>
        <time>2011-02-06T10:21:07.000Z</time>
      </trkpt>
      <trkpt lat="45.18386" lon="5.68683">
        <ele>253</ele>
        <time>2011-02-06T10:21:08.000Z</time>
      </trkpt>
      <trkpt lat="45.18383" lon="5.68681">
        <ele>253.19999694824</ele>
        <time>2011-02-06T10:21:10.000Z</time>
      </trkpt>
      <trkpt lat="45.18382" lon="5.6868">
        <ele>253.39999389648</ele>
        <time>2011-02-06T10:21:11.000Z</time>
      </trkpt>
      <trkpt lat="45.1838" lon="5.68678">
        <ele>254</ele>
        <time>2011-02-06T10:21:13.000Z</time>
      </trkpt>
      <trkpt lat="45.18378" lon="5.68676">
        <ele>254.39999389648</ele>
        <time>2011-02-06T10:21:15.000Z</time>
      </trkpt>
      <trkpt lat="45.18376" lon="5.68673">
        <ele>255.19999694824</ele>
        <time>2011-02-06T10:21:17.000Z</time>
      </trkpt>
      <trkpt lat="45.18376" lon="5.68672">
        <ele>255.80000305176</ele>
        <time>2011-02-06T10:21:18.000Z</time>
      </trkpt>
      <trkpt lat="45.18375" lon="5.68668">
        <ele>257</ele>
        <time>2011-02-06T10:21:21.000Z</time>
      </trkpt>
      <trkpt lat="45.18374" lon="5.68666">
        <ele>257.79998779297</ele>
        <time>2011-02-06T10:21:23.000Z</time>
      </trkpt>
      <trkpt lat="45.18374" lon="5.68665">
        <ele>258</ele>
        <time>2011-02-06T10:21:24.000Z</time>
      </trkpt>
      <trkpt lat="45.18373" lon="5.68664">
        <ele>258</ele>
        <time>2011-02-06T10:21:25.000Z</time>
      </trkpt>
      <trkpt lat="45.18371" lon="5.68663">
        <ele>258.20001220703</ele>
        <time>2011-02-06T10:21:27.000Z</time>
      </trkpt>
      <trkpt lat="45.18365" lon="5.68659">
        <ele>259.20001220703</ele>
        <time>2011-02-06T10:21:31.000Z</time>
      </trkpt>
      <trkpt lat="45.18362" lon="5.68652">
        <ele>261.60000610352</ele>
        <time>2011-02-06T10:21:35.000Z</time>
      </trkpt>
      <trkpt lat="45.18361" lon="5.6865">
        <ele>262.20001220703</ele>
        <time>2011-02-06T10:21:36.000Z</time>
      </trkpt>
      <trkpt lat="45.18355" lon="5.68643">
        <ele>264.20001220703</ele>
        <time>2011-02-06T10:21:41.000Z</time>
      </trkpt>
      <trkpt lat="45.18354" lon="5.68642">
        <ele>264.60000610352</ele>
        <time>2011-02-06T10:21:42.000Z</time>
      </trkpt>
      <trkpt lat="45.18353" lon="5.68643">
        <ele>264.39999389648</ele>
        <time>2011-02-06T10:21:44.000Z</time>
      </trkpt>
      <trkpt lat="45.18353" lon="5.68644">
        <ele>263.79998779297</ele>
        <time>2011-02-06T10:21:45.000Z</time>
      </trkpt>
      <trkpt lat="45.1835" lon="5.68646">
        <ele>262.79998779297</ele>
        <time>2011-02-06T10:21:51.000Z</time>
      </trkpt>
      <trkpt lat="45.1835" lon="5.68648">
        <ele>262</ele>
        <time>2011-02-06T10:21:52.000Z</time>
      </trkpt>
      <trkpt lat="45.1835" lon="5.68651">
        <ele>260.79998779297</ele>
        <time>2011-02-06T10:21:54.000Z</time>
      </trkpt>
      <trkpt lat="45.1835" lon="5.68657">
        <ele>258.39999389648</ele>
        <time>2011-02-06T10:21:56.000Z</time>
      </trkpt>
      <trkpt lat="45.18353" lon="5.68666">
        <ele>255.39999389648</ele>
        <time>2011-02-06T10:22:01.000Z</time>
      </trkpt>
      <trkpt lat="45.18356" lon="5.6867">
        <ele>254.19999694824</ele>
        <time>2011-02-06T10:22:05.000Z</time>
      </trkpt>
      <trkpt lat="45.18358" lon="5.68672">
        <ele>253.60000610352</ele>
        <time>2011-02-06T10:22:07.000Z</time>
      </trkpt>
      <trkpt lat="45.18357" lon="5.68671">
        <ele>253.80000305176</ele>
        <time>2011-02-06T10:22:08.000Z</time>
      </trkpt>
      <trkpt lat="45.18356" lon="5.6867">
        <ele>254.19999694824</ele>
        <time>2011-02-06T10:22:09.000Z</time>
      </trkpt>
      <trkpt lat="45.18351" lon="5.68666">
        <ele>255</ele>
        <time>2011-02-06T10:22:12.000Z</time>
      </trkpt>
      <trkpt lat="45.1834" lon="5.68663">
        <ele>255.19999694824</ele>
        <time>2011-02-06T10:22:16.000Z</time>
      </trkpt>
      <trkpt lat="45.18338" lon="5.68662">
        <ele>255.19999694824</ele>
        <time>2011-02-06T10:22:18.000Z</time>
      </trkpt>
      <trkpt lat="45.18338" lon="5.68663">
        <ele>255</ele>
        <time>2011-02-06T10:22:19.000Z</time>
      </trkpt>
      <trkpt lat="45.18338" lon="5.68664">
        <ele>254.60000610352</ele>
        <time>2011-02-06T10:22:20.000Z</time>
      </trkpt>
      <trkpt lat="45.18344" lon="5.6867">
        <ele>252.80000305176</ele>
        <time>2011-02-06T10:22:25.000Z</time>
      </trkpt>
      <trkpt lat="45.18347" lon="5.68677">
        <ele>250.80000305176</ele>
        <time>2011-02-06T10:22:30.000Z</time>
      </trkpt>
      <trkpt lat="45.18345" lon="5.68678">
        <ele>250.39999389648</ele>
        <time>2011-02-06T10:22:31.000Z</time>
      </trkpt>
      <trkpt lat="45.18343" lon="5.68678">
        <ele>250</ele>
        <time>2011-02-06T10:22:32.000Z</time>
      </trkpt>
      <trkpt lat="45.18337" lon="5.68678">
        <ele>249.60000610352</ele>
        <time>2011-02-06T10:22:35.000Z</time>
      </trkpt>
      <trkpt lat="45.18333" lon="5.68678">
        <ele>249</ele>
        <time>2011-02-06T10:22:37.000Z</time>
      </trkpt>
      <trkpt lat="45.1833" lon="5.68679">
        <ele>248.60000610352</ele>
        <time>2011-02-06T10:22:39.000Z</time>
      </trkpt>
      <trkpt lat="45.18326" lon="5.68679">
        <ele>248.39999389648</ele>
        <time>2011-02-06T10:22:41.000Z</time>
      </trkpt>
      <trkpt lat="45.1832" lon="5.6868">
        <ele>247.80000305176</ele>
        <time>2011-02-06T10:22:45.000Z</time>
      </trkpt>
      <trkpt lat="45.18319" lon="5.68682">
        <ele>247</ele>
        <time>2011-02-06T10:22:46.000Z</time>
      </trkpt>
      <trkpt lat="45.18321" lon="5.68686">
        <ele>245.60000610352</ele>
        <time>2011-02-06T10:22:49.000Z</time>
      </trkpt>
      <trkpt lat="45.18327" lon="5.68688">
        <ele>245.19999694824</ele>
        <time>2011-02-06T10:22:53.000Z</time>
      </trkpt>
      <trkpt lat="45.18328" lon="5.68689">
        <ele>245</ele>
        <time>2011-02-06T10:22:54.000Z</time>
      </trkpt>
      <trkpt lat="45.18334" lon="5.68695">
        <ele>243.39999389648</ele>
        <time>2011-02-06T10:22:58.000Z</time>
      </trkpt>
      <trkpt lat="45.18339" lon="5.687">
        <ele>242.19999694824</ele>
        <time>2011-02-06T10:23:02.000Z</time>
      </trkpt>
      <trkpt lat="45.1834" lon="5.68704">
        <ele>241</ele>
        <time>2011-02-06T10:23:04.000Z</time>
      </trkpt>
      <trkpt lat="45.18342" lon="5.68707">
        <ele>240.19999694824</ele>
        <time>2011-02-06T10:23:06.000Z</time>
      </trkpt>
      <trkpt lat="45.18344" lon="5.68708">
        <ele>239.80000305176</ele>
        <time>2011-02-06T10:23:07.000Z</time>
      </trkpt>
      <trkpt lat="45.1835" lon="5.68717">
        <ele>237.60000610352</ele>
        <time>2011-02-06T10:23:12.000Z</time>
      </trkpt>
      <trkpt lat="45.18352" lon="5.68722">
        <ele>236</ele>
        <time>2011-02-06T10:23:14.000Z</time>
      </trkpt>
      <trkpt lat="45.18356" lon="5.68732">
        <ele>233</ele>
        <time>2011-02-06T10:23:18.000Z</time>
      </trkpt>
      <trkpt lat="45.1836" lon="5.68742">
        <ele>229.80000305176</ele>
        <time>2011-02-06T10:23:23.000Z</time>
      </trkpt>
      <trkpt lat="45.18359" lon="5.68744">
        <ele>229.19999694824</ele>
        <time>2011-02-06T10:23:24.000Z</time>
      </trkpt>
      <trkpt lat="45.18354" lon="5.68741">
        <ele>229.80000305176</ele>
        <time>2011-02-06T10:23:27.000Z</time>
      </trkpt>
      <trkpt lat="45.18352" lon="5.68739">
        <ele>230.19999694824</ele>
        <time>2011-02-06T10:23:28.000Z</time>
      </trkpt>
      <trkpt lat="45.18345" lon="5.68735">
        <ele>230.80000305176</ele>
        <time>2011-02-06T10:23:31.000Z</time>
      </trkpt>
      <trkpt lat="45.18341" lon="5.68735">
        <ele>230.39999389648</ele>
        <time>2011-02-06T10:23:33.000Z</time>
      </trkpt>
      <trkpt lat="45.1834" lon="5.68739">
        <ele>229.19999694824</ele>
        <time>2011-02-06T10:23:35.000Z</time>
      </trkpt>
      <trkpt lat="45.1834" lon="5.68747">
        <ele>226.60000610352</ele>
        <time>2011-02-06T10:23:37.000Z</time>
      </trkpt>
      <trkpt lat="45.1834" lon="5.68761">
        <ele>224.80000305176</ele>
        <time>2011-02-06T10:23:41.000Z</time>
      </trkpt>
      <trkpt lat="45.18341" lon="5.68765">
        <ele>224.60000610352</ele>
        <time>2011-02-06T10:23:43.000Z</time>
      </trkpt>
      <trkpt lat="45.18342" lon="5.68765">
        <ele>224.80000305176</ele>
        <time>2011-02-06T10:23:45.000Z</time>
      </trkpt>
      <trkpt lat="45.18343" lon="5.68767">
        <ele>224.80000305176</ele>
        <time>2011-02-06T10:23:47.000Z</time>
      </trkpt>
    </trkseg>
  </trk>
</gpx>